Time,TemperatureF,DewpointF,PressureIn,WindDirection,WindDirectionDegrees,WindSpeedMPH,WindSpeedGustMPH,Humidity,HourlyPrecipIn,Conditions,Clouds,dailyrainin,SoftwareType,DateUTC
2013-01-15 00:00:00,39.1,38.6,30.17,ENE,68,4.0,4.0,98,0.05,,RA,2.03,VWS V14.01,2013-01-15 05:00:00,
2013-01-15 00:01:00,39.1,38.6,30.17,ENE,61,4.0,5.0,98,0.05,,RA,0.00,VWS V14.01,2013-01-15 05:01:00,
2013-01-15 00:02:00,39.1,38.6,30.17,East,101,4.0,5.0,98,0.05,,RA,0.00,VWS V14.01,2013-01-15 05:02:00,
2013-01-15 00:03:00,39.1,38.6,30.17,East,100,1.0,4.0,98,0.05,,RA,0.00,VWS V14.01,2013-01-15 05:03:00,
2013-01-15 00:04:00,39.1,38.6,30.17,East,89,6.0,7.0,98,0.05,,,0.01,VWS V14.01,2013-01-15 05:04:00,
2013-01-15 00:05:00,39.1,38.6,30.17,East,86,2.0,6.0,98,0.05,,,0.01,VWS V14.01,2013-01-15 05:05:00,
2013-01-15 00:06:00,39.2,38.7,30.17,SE,124,3.0,5.0,98,0.05,,,0.01,VWS V14.01,2013-01-15 05:06:00,
2013-01-15 00:07:00,39.2,38.7,30.17,ENE,67,2.0,6.0,98,0.05,,,0.01,VWS V14.01,2013-01-15 05:07:00,
2013-01-15 00:08:00,39.2,38.7,30.17,ENE,59,4.0,6.0,98,0.04,,RA,0.01,VWS V14.01,2013-01-15 05:08:00,
2013-01-15 00:09:00,39.2,38.7,30.17,ESE,102,3.0,6.0,98,0.04,,,0.01,VWS V14.01,2013-01-15 05:09:00,
2013-01-15 00:10:00,39.2,38.7,30.17,ENE,66,5.0,7.0,98,0.04,,,0.01,VWS V14.01,2013-01-15 05:10:00,
2013-01-15 00:11:00,39.2,38.7,30.17,ESE,110,2.0,5.0,98,0.04,,,0.01,VWS V14.01,2013-01-15 05:11:00,
2013-01-15 00:12:00,39.2,38.7,30.17,East,94,4.0,8.0,98,0.04,,,0.01,VWS V14.01,2013-01-15 05:12:00,
2013-01-15 00:13:00,39.2,38.7,30.17,ENE,67,5.0,6.0,98,0.04,,RA,0.01,VWS V14.01,2013-01-15 05:13:00,
2013-01-15 00:14:00,39.2,38.7,30.17,ENE,71,6.0,7.0,98,0.04,,,0.01,VWS V14.01,2013-01-15 05:14:00,
2013-01-15 00:15:00,39.2,38.7,30.17,ENE,57,4.0,7.0,98,0.04,,,0.01,VWS V14.01,2013-01-15 05:15:00,
2013-01-15 00:16:00,39.3,38.8,30.17,East,84,1.0,4.0,98,0.04,,,0.01,VWS V14.01,2013-01-15 05:16:00,
2013-01-15 00:17:00,39.3,38.8,30.16,ENE,63,4.0,7.0,98,0.04,,,0.01,VWS V14.01,2013-01-15 05:17:00,
2013-01-15 00:18:00,39.3,38.8,30.16,ESE,113,6.0,6.0,98,0.04,,RA,0.01,VWS V14.01,2013-01-15 05:18:00,
2013-01-15 00:19:00,39.3,38.8,30.16,ESE,102,2.0,7.0,98,0.05,,,0.02,VWS V14.01,2013-01-15 05:19:00,
2013-01-15 00:20:00,39.4,38.9,30.16,East,87,5.0,7.0,98,0.05,,,0.02,VWS V14.01,2013-01-15 05:20:00,
2013-01-15 00:21:00,39.4,38.9,30.16,ESE,113,1.0,9.0,98,0.05,,,0.02,VWS V14.01,2013-01-15 05:21:00,
2013-01-15 00:22:00,39.4,38.9,30.16,East,98,6.0,6.0,98,0.05,,,0.02,VWS V14.01,2013-01-15 05:22:00,
2013-01-15 00:23:00,39.5,39.0,30.16,ENE,67,5.0,5.0,98,0.05,,RA,0.02,VWS V14.01,2013-01-15 05:23:00,
2013-01-15 00:24:00,39.5,39.0,30.16,East,84,5.0,6.0,98,0.05,,,0.02,VWS V14.01,2013-01-15 05:24:00,
2013-01-15 00:25:00,39.5,39.0,30.16,ESE,107,6.0,8.0,98,0.05,,,0.02,VWS V14.01,2013-01-15 05:25:00,
2013-01-15 00:26:00,39.5,39.0,30.16,East,92,3.0,7.0,98,0.05,,,0.02,VWS V14.01,2013-01-15 05:26:00,
2013-01-15 00:27:00,39.6,39.1,30.16,ENE,59,2.0,6.0,98,0.05,,,0.02,VWS V14.01,2013-01-15 05:27:00,
2013-01-15 00:28:00,39.6,39.1,30.16,ESE,112,2.0,7.0,98,0.05,,RA,0.02,VWS V14.01,2013-01-15 05:28:00,
2013-01-15 00:29:00,39.6,39.1,30.16,SE,128,1.0,6.0,98,0.05,,,0.02,VWS V14.01,2013-01-15 05:29:00,
2013-01-15 00:30:00,39.6,39.1,30.15,East,80,2.0,6.0,98,0.05,,,0.02,VWS V14.01,2013-01-15 05:30:00,
2013-01-15 00:31:00,39.7,39.2,30.15,East,97,6.0,6.0,98,0.05,,,0.02,VWS V14.01,2013-01-15 05:31:00,
2013-01-15 00:32:00,39.7,39.2,30.15,SE,136,0.0,6.0,98,0.05,,,0.02,VWS V14.01,2013-01-15 05:32:00,
2013-01-15 00:33:00,39.7,39.2,30.15,ENE,59,2.0,6.0,98,0.05,,RA,0.02,VWS V14.01,2013-01-15 05:33:00,
2013-01-15 00:34:00,39.7,39.2,30.15,NNE,24,5.0,5.0,98,0.05,,,0.02,VWS V14.01,2013-01-15 05:34:00,
2013-01-15 00:35:00,39.7,39.2,30.15,ESE,104,2.0,7.0,98,0.05,,,0.02,VWS V14.01,2013-01-15 05:35:00,
2013-01-15 00:36:00,39.7,39.2,30.16,NE,49,1.0,5.0,98,0.05,,,0.02,VWS V14.01,2013-01-15 05:36:00,
2013-01-15 00:37:00,39.7,39.2,30.15,ENE,73,2.0,6.0,98,0.04,,,0.02,VWS V14.01,2013-01-15 05:37:00,
2013-01-15 00:38:00,39.8,39.3,30.15,NE,47,3.0,4.0,98,0.04,,-RA,0.02,VWS V14.01,2013-01-15 05:38:00,
2013-01-15 00:39:00,39.8,39.3,30.15,ENE,74,2.0,5.0,98,0.04,,,0.02,VWS V14.01,2013-01-15 05:39:00,
2013-01-15 00:40:00,39.8,39.3,30.15,East,82,7.0,8.0,98,0.04,,,0.02,VWS V14.01,2013-01-15 05:40:00,
2013-01-15 00:41:00,39.8,39.3,30.15,ESE,117,3.0,7.0,98,0.04,,,0.02,VWS V14.01,2013-01-15 05:41:00,
2013-01-15 00:42:00,39.8,39.3,30.15,East,82,3.0,8.0,98,0.03,,,0.02,VWS V14.01,2013-01-15 05:42:00,
2013-01-15 00:43:00,39.9,39.4,30.15,ESE,103,2.0,2.0,98,0.03,,-RA,0.02,VWS V14.01,2013-01-15 05:43:00,
2013-01-15 00:44:00,39.9,39.4,30.15,ESE,103,1.0,4.0,98,0.03,,,0.02,VWS V14.01,2013-01-15 05:44:00,
2013-01-15 00:45:00,39.9,39.4,30.15,NE,48,6.0,7.0,98,0.03,,,0.02,VWS V14.01,2013-01-15 05:45:00,
2013-01-15 00:47:00,39.9,39.4,30.15,ENE,64,10.0,10.0,98,0.03,,,0.02,VWS V14.01,2013-01-15 05:47:00,
2013-01-15 00:48:00,40.0,39.5,30.15,ENE,65,3.0,4.0,98,0.03,,-RA,0.02,VWS V14.01,2013-01-15 05:48:00,
2013-01-15 00:49:00,40.0,39.5,30.15,NE,46,5.0,6.0,98,0.03,,,0.02,VWS V14.01,2013-01-15 05:49:00,
2013-01-15 00:50:00,40.0,39.5,30.15,NE,44,5.0,5.0,98,0.04,,,0.03,VWS V14.01,2013-01-15 05:50:00,
2013-01-15 00:51:00,40.0,39.5,30.15,East,80,4.0,6.0,98,0.04,,,0.03,VWS V14.01,2013-01-15 05:51:00,
2013-01-15 00:52:00,40.1,39.6,30.15,ENE,57,0.0,5.0,98,0.04,,,0.03,VWS V14.01,2013-01-15 05:52:00,
2013-01-15 00:53:00,40.1,39.6,30.15,NE,55,2.0,3.0,98,0.04,,,0.03,VWS V14.01,2013-01-15 05:53:00,
2013-01-15 00:54:00,40.1,39.6,30.15,NE,44,3.0,3.0,98,0.04,,-RA,0.03,VWS V14.01,2013-01-15 05:54:00,
2013-01-15 00:55:00,40.1,39.6,30.15,NE,55,4.0,5.0,98,0.04,,,0.03,VWS V14.01,2013-01-15 05:55:00,
2013-01-15 00:56:00,40.1,39.6,30.14,NNE,32,3.0,7.0,98,0.03,,,0.03,VWS V14.01,2013-01-15 05:56:00,
2013-01-15 00:57:00,40.2,39.7,30.14,NNE,26,9.0,12.0,98,0.03,,,0.03,VWS V14.01,2013-01-15 05:57:00,
2013-01-15 00:58:00,40.2,39.7,30.14,ENE,60,5.0,12.0,98,0.03,,,0.03,VWS V14.01,2013-01-15 05:58:00,
2013-01-15 00:59:00,40.2,39.7,30.14,ENE,61,4.0,6.0,98,0.03,,-RA,0.03,VWS V14.01,2013-01-15 05:59:00,
2013-01-15 01:00:00,40.2,39.7,30.13,East,79,2.0,8.0,98,0.03,,,0.03,VWS V14.01,2013-01-15 06:00:00,
2013-01-15 01:01:00,40.2,39.7,30.14,East,79,1.0,2.0,98,0.03,,,0.03,VWS V14.01,2013-01-15 06:01:00,
2013-01-15 01:02:00,40.2,39.7,30.14,NE,56,4.0,6.0,98,0.03,,,0.03,VWS V14.01,2013-01-15 06:02:00,
2013-01-15 01:03:00,40.3,39.8,30.14,NE,56,2.0,5.0,98,0.03,,,0.03,VWS V14.01,2013-01-15 06:03:00,
2013-01-15 01:04:00,40.3,39.8,30.14,ENE,57,1.0,3.0,98,0.03,,-RA,0.03,VWS V14.01,2013-01-15 06:04:00,
2013-01-15 01:05:00,40.3,39.8,30.14,North,9,2.0,5.0,98,0.02,,,0.03,VWS V14.01,2013-01-15 06:05:00,
2013-01-15 01:06:00,40.3,39.8,30.15,NNE,13,3.0,5.0,98,0.02,,,0.03,VWS V14.01,2013-01-15 06:06:00,
2013-01-15 01:07:00,40.3,39.8,30.15,NNE,13,2.0,4.0,98,0.02,,,0.03,VWS V14.01,2013-01-15 06:07:00,
2013-01-15 01:08:00,40.4,39.9,30.15,NNE,13,4.0,4.0,98,0.02,,,0.03,VWS V14.01,2013-01-15 06:08:00,
2013-01-15 01:09:00,40.4,39.9,30.15,NE,35,6.0,6.0,98,0.02,,-RA,0.03,VWS V14.01,2013-01-15 06:09:00,
2013-01-15 01:10:00,40.4,39.9,30.15,NNE,16,4.0,5.0,98,0.02,,,0.03,VWS V14.01,2013-01-15 06:10:00,
2013-01-15 01:11:00,40.4,39.9,30.15,North,351,7.0,7.0,98,0.02,,,0.03,VWS V14.01,2013-01-15 06:11:00,
2013-01-15 01:12:00,40.4,39.9,30.15,North,5,2.0,7.0,98,0.03,,,0.04,VWS V14.01,2013-01-15 06:12:00,
2013-01-15 01:13:00,40.4,39.9,30.15,NNE,28,1.0,5.0,98,0.03,,,0.04,VWS V14.01,2013-01-15 06:13:00,
2013-01-15 01:14:00,40.4,39.9,30.15,NNE,28,4.0,4.0,98,0.03,,-RA,0.04,VWS V14.01,2013-01-15 06:14:00,
2013-01-15 01:15:00,40.4,39.9,30.15,North,5,5.0,6.0,98,0.03,,,0.04,VWS V14.01,2013-01-15 06:15:00,
2013-01-15 01:16:00,40.5,40.0,30.15,NNE,26,4.0,6.0,98,0.03,,,0.04,VWS V14.01,2013-01-15 06:16:00,
2013-01-15 01:17:00,40.5,40.0,30.14,NNE,26,2.0,6.0,98,0.03,,,0.04,VWS V14.01,2013-01-15 06:17:00,
2013-01-15 01:18:00,40.5,40.0,30.14,NNE,26,2.0,5.0,98,0.03,,,0.04,VWS V14.01,2013-01-15 06:18:00,
2013-01-15 01:19:00,40.5,40.0,30.14,NE,46,6.0,6.0,98,0.03,,-RA,0.04,VWS V14.01,2013-01-15 06:19:00,
2013-01-15 01:20:00,40.6,40.1,30.14,NE,43,4.0,5.0,98,0.02,,,0.04,VWS V14.01,2013-01-15 06:20:00,
2013-01-15 01:21:00,40.5,40.0,30.14,NNE,22,4.0,5.0,98,0.02,,,0.04,VWS V14.01,2013-01-15 06:21:00,
2013-01-15 01:22:00,40.6,40.1,30.13,NE,36,6.0,7.0,98,0.02,,,0.04,VWS V14.01,2013-01-15 06:22:00,
2013-01-15 01:23:00,40.5,40.0,30.14,North,9,6.0,8.0,98,0.02,,,0.04,VWS V14.01,2013-01-15 06:23:00,
2013-01-15 01:24:00,40.6,40.1,30.14,NNE,33,6.0,6.0,98,0.02,,-RA,0.04,VWS V14.01,2013-01-15 06:24:00,
2013-01-15 01:25:00,40.6,40.1,30.14,NNE,25,1.0,5.0,98,0.03,,,0.05,VWS V14.01,2013-01-15 06:25:00,
2013-01-15 01:26:00,40.6,40.1,30.14,North,355,4.0,6.0,98,0.03,,,0.05,VWS V14.01,2013-01-15 06:26:00,
2013-01-15 01:27:00,40.6,40.1,30.14,North,5,2.0,5.0,98,0.03,,,0.05,VWS V14.01,2013-01-15 06:27:00,
2013-01-15 01:28:00,40.6,40.1,30.14,North,5,2.0,3.0,98,0.03,,,0.05,VWS V14.01,2013-01-15 06:28:00,
2013-01-15 01:29:00,40.6,40.1,30.14,North,5,5.0,5.0,98,0.03,,-RA,0.05,VWS V14.01,2013-01-15 06:29:00,
2013-01-15 01:30:00,40.6,40.1,30.14,NNE,25,4.0,5.0,98,0.03,,,0.05,VWS V14.01,2013-01-15 06:30:00,
2013-01-15 01:31:00,40.6,40.1,30.14,NNE,22,6.0,7.0,98,0.03,,,0.05,VWS V14.01,2013-01-15 06:31:00,
2013-01-15 01:32:00,40.7,40.2,30.14,NNE,28,6.0,7.0,98,0.03,,,0.05,VWS V14.01,2013-01-15 06:32:00,
2013-01-15 01:33:00,40.7,40.2,30.13,NNE,32,5.0,6.0,98,0.03,,,0.05,VWS V14.01,2013-01-15 06:33:00,
2013-01-15 01:34:00,40.7,40.2,30.13,North,355,8.0,9.0,98,0.03,,-RA,0.05,VWS V14.01,2013-01-15 06:34:00,
2013-01-15 01:35:00,40.7,40.2,30.13,NNE,18,2.0,8.0,98,0.03,,,0.05,VWS V14.01,2013-01-15 06:35:00,
2013-01-15 01:36:00,40.7,40.2,30.13,NNE,26,2.0,6.0,98,0.03,,,0.05,VWS V14.01,2013-01-15 06:36:00,
2013-01-15 01:37:00,40.7,40.2,30.13,NNE,26,0.0,2.0,98,0.03,,,0.05,VWS V14.01,2013-01-15 06:37:00,
2013-01-15 01:38:00,40.7,40.2,30.13,NNE,26,1.0,1.0,98,0.03,,,0.05,VWS V14.01,2013-01-15 06:38:00,
2013-01-15 01:39:00,40.8,40.3,30.13,NNE,26,0.0,1.0,98,0.03,,-RA,0.05,VWS V14.01,2013-01-15 06:39:00,
2013-01-15 01:41:00,40.7,40.2,30.13,North,5,5.0,6.0,98,0.03,,,0.05,VWS V14.01,2013-01-15 06:41:00,
2013-01-15 01:42:00,40.7,40.2,30.13,North,5,3.0,5.0,98,0.03,,,0.05,VWS V14.01,2013-01-15 06:42:00,
2013-01-15 01:43:00,40.7,40.2,30.13,North,5,4.0,7.0,98,0.03,,,0.05,VWS V14.01,2013-01-15 06:43:00,
2013-01-15 01:44:00,40.7,40.2,30.13,North,5,4.0,4.0,98,0.03,,-RA,0.05,VWS V14.01,2013-01-15 06:44:00,
2013-01-15 01:45:00,40.7,40.2,30.13,North,5,3.0,5.0,98,0.03,,,0.05,VWS V14.01,2013-01-15 06:45:00,
2013-01-15 01:46:00,40.6,40.1,30.13,North,10,2.0,4.0,98,0.04,,,0.06,VWS V14.01,2013-01-15 06:46:00,
2013-01-15 01:47:00,40.6,40.1,30.12,North,11,4.0,5.0,98,0.04,,,0.06,VWS V14.01,2013-01-15 06:47:00,
2013-01-15 01:48:00,40.6,40.1,30.12,NE,42,4.0,5.0,98,0.04,,,0.06,VWS V14.01,2013-01-15 06:48:00,
2013-01-15 01:49:00,40.6,40.1,30.13,North,355,5.0,6.0,98,0.04,,-RA,0.06,VWS V14.01,2013-01-15 06:49:00,
2013-01-15 01:50:00,40.6,40.1,30.13,NE,45,6.0,6.0,98,0.04,,,0.06,VWS V14.01,2013-01-15 06:50:00,
2013-01-15 01:51:00,40.6,40.1,30.13,NNE,22,5.0,7.0,98,0.03,,,0.06,VWS V14.01,2013-01-15 06:51:00,
2013-01-15 01:52:00,40.5,40.0,30.13,ENE,58,3.0,5.0,98,0.03,,,0.06,VWS V14.01,2013-01-15 06:52:00,
2013-01-15 01:53:00,40.5,40.0,30.12,North,355,5.0,5.0,98,0.03,,,0.06,VWS V14.01,2013-01-15 06:53:00,
2013-01-15 01:54:00,40.5,40.0,30.12,NE,53,2.0,6.0,98,0.03,,,0.06,VWS V14.01,2013-01-15 06:54:00,
2013-01-15 01:55:00,40.5,40.0,30.12,NE,53,2.0,2.0,98,0.03,,-RA,0.06,VWS V14.01,2013-01-15 06:55:00,
2013-01-15 01:56:00,40.5,40.0,30.12,NE,40,4.0,4.0,98,0.03,,,0.06,VWS V14.01,2013-01-15 06:56:00,
2013-01-15 01:57:00,40.5,40.0,30.12,NNE,18,4.0,6.0,98,0.03,,,0.06,VWS V14.01,2013-01-15 06:57:00,
2013-01-15 01:58:00,40.6,40.1,30.12,NNE,20,1.0,4.0,98,0.04,,,0.07,VWS V14.01,2013-01-15 06:58:00,
2013-01-15 01:59:00,40.6,40.1,30.12,North,5,2.0,4.0,98,0.04,,,0.07,VWS V14.01,2013-01-15 06:59:00,
2013-01-15 02:00:00,40.6,40.1,30.12,NNE,21,1.0,4.0,98,0.04,,-RA,0.07,VWS V14.01,2013-01-15 07:00:00,
2013-01-15 02:01:00,40.6,40.1,30.13,NNE,26,2.0,5.0,98,0.04,,,0.07,VWS V14.01,2013-01-15 07:01:00,
2013-01-15 02:02:00,40.6,40.1,30.13,NNE,22,2.0,3.0,98,0.04,,,0.07,VWS V14.01,2013-01-15 07:02:00,
2013-01-15 02:03:00,40.6,40.1,30.12,North,5,4.0,6.0,98,0.04,,,0.07,VWS V14.01,2013-01-15 07:03:00,
2013-01-15 02:04:00,40.6,40.1,30.12,North,5,4.0,5.0,98,0.04,,,0.07,VWS V14.01,2013-01-15 07:04:00,
2013-01-15 02:05:00,40.6,40.1,30.12,North,360,4.0,5.0,98,0.04,,-RA,0.07,VWS V14.01,2013-01-15 07:05:00,
2013-01-15 02:06:00,40.6,40.1,30.12,North,5,4.0,5.0,98,0.04,,,0.07,VWS V14.01,2013-01-15 07:06:00,
2013-01-15 02:07:00,40.6,40.1,30.12,North,5,4.0,5.0,98,0.04,,,0.07,VWS V14.01,2013-01-15 07:07:00,
2013-01-15 02:08:00,40.7,40.2,30.12,North,360,4.0,5.0,98,0.04,,,0.07,VWS V14.01,2013-01-15 07:08:00,
2013-01-15 02:09:00,40.7,40.2,30.13,North,360,5.0,5.0,98,0.04,,,0.07,VWS V14.01,2013-01-15 07:09:00,
2013-01-15 02:10:00,40.7,40.2,30.13,North,360,4.0,8.0,98,0.05,,-RA,0.08,VWS V14.01,2013-01-15 07:10:00,
2013-01-15 02:11:00,40.7,40.2,30.13,NE,34,5.0,6.0,98,0.05,,,0.08,VWS V14.01,2013-01-15 07:11:00,
2013-01-15 02:12:00,40.7,40.2,30.13,NNE,30,4.0,6.0,98,0.05,,,0.08,VWS V14.01,2013-01-15 07:12:00,
2013-01-15 02:13:00,40.7,40.2,30.13,NNE,13,2.0,5.0,98,0.04,,,0.08,VWS V14.01,2013-01-15 07:13:00,
2013-01-15 02:14:00,40.7,40.2,30.13,North,5,3.0,6.0,98,0.04,,,0.08,VWS V14.01,2013-01-15 07:14:00,
2013-01-15 02:15:00,40.7,40.2,30.13,North,355,5.0,5.0,98,0.05,,-RA,0.09,VWS V14.01,2013-01-15 07:15:00,
2013-01-15 02:16:00,40.7,40.2,30.13,North,9,4.0,7.0,98,0.05,,,0.09,VWS V14.01,2013-01-15 07:16:00,
2013-01-15 02:17:00,40.7,40.2,30.13,NNE,12,4.0,5.0,98,0.05,,,0.09,VWS V14.01,2013-01-15 07:17:00,
2013-01-15 02:18:00,40.7,40.2,30.13,NNE,12,3.0,4.0,98,0.05,,,0.09,VWS V14.01,2013-01-15 07:18:00,
2013-01-15 02:19:00,40.7,40.2,30.13,NNE,13,4.0,4.0,98,0.05,,,0.09,VWS V14.01,2013-01-15 07:19:00,
2013-01-15 02:20:00,40.8,40.3,30.13,NNE,12,2.0,4.0,98,0.05,,-RA,0.09,VWS V14.01,2013-01-15 07:20:00,
2013-01-15 02:21:00,40.8,40.3,30.13,NE,44,5.0,5.0,98,0.05,,,0.09,VWS V14.01,2013-01-15 07:21:00,
2013-01-15 02:22:00,40.8,40.3,30.13,NE,42,5.0,7.0,98,0.05,,,0.09,VWS V14.01,2013-01-15 07:22:00,
2013-01-15 02:23:00,40.7,40.2,30.13,NE,43,4.0,5.0,98,0.05,,,0.09,VWS V14.01,2013-01-15 07:23:00,
2013-01-15 02:24:00,40.8,40.3,30.13,NNE,18,4.0,5.0,98,0.06,,,0.10,VWS V14.01,2013-01-15 07:24:00,
2013-01-15 02:25:00,40.8,40.3,30.13,NNE,17,4.0,6.0,98,0.06,,-RA,0.10,VWS V14.01,2013-01-15 07:25:00,
2013-01-15 02:26:00,40.8,40.3,30.12,NNE,17,0.0,1.0,98,0.05,,,0.10,VWS V14.01,2013-01-15 07:26:00,
2013-01-15 02:27:00,40.8,40.3,30.12,NNE,17,1.0,4.0,98,0.05,,,0.10,VWS V14.01,2013-01-15 07:27:00,
2013-01-15 02:28:00,40.8,40.3,30.12,NNE,17,6.0,6.0,98,0.05,,,0.10,VWS V14.01,2013-01-15 07:28:00,
2013-01-15 02:29:00,40.8,40.3,30.12,NE,55,5.0,6.0,98,0.05,,,0.10,VWS V14.01,2013-01-15 07:29:00,
2013-01-15 02:30:00,40.8,40.3,30.12,NE,55,1.0,5.0,98,0.06,,-RA,0.11,VWS V14.01,2013-01-15 07:30:00,
2013-01-15 02:31:00,40.8,40.3,30.12,ENE,70,1.0,4.0,98,0.06,,,0.11,VWS V14.01,2013-01-15 07:31:00,
2013-01-15 02:32:00,40.8,40.3,30.12,ENE,68,5.0,5.0,98,0.06,,,0.11,VWS V14.01,2013-01-15 07:32:00,
2013-01-15 02:33:00,40.9,40.4,30.12,ENE,68,3.0,5.0,98,0.06,,,0.11,VWS V14.01,2013-01-15 07:33:00,
2013-01-15 02:34:00,40.9,40.4,30.12,NE,51,5.0,5.0,98,0.06,,,0.11,VWS V14.01,2013-01-15 07:34:00,
2013-01-15 02:35:00,40.9,40.4,30.12,NE,47,5.0,6.0,98,0.06,,-RA,0.11,VWS V14.01,2013-01-15 07:35:00,
2013-01-15 02:36:00,40.9,40.4,30.12,ENE,69,1.0,6.0,98,0.06,,,0.11,VWS V14.01,2013-01-15 07:36:00,
2013-01-15 02:37:00,40.9,40.4,30.12,East,81,2.0,4.0,98,0.07,,,0.12,VWS V14.01,2013-01-15 07:37:00,
2013-01-15 02:38:00,40.9,40.4,30.12,East,81,2.0,3.0,98,0.07,,,0.12,VWS V14.01,2013-01-15 07:38:00,
2013-01-15 02:39:00,40.9,40.4,30.13,East,81,2.0,2.0,98,0.07,,,0.12,VWS V14.01,2013-01-15 07:39:00,
2013-01-15 02:40:00,40.9,40.4,30.13,ENE,62,1.0,4.0,98,0.07,,-RA,0.12,VWS V14.01,2013-01-15 07:40:00,
2013-01-15 02:41:00,40.9,40.4,30.13,NE,45,0.0,5.0,98,0.07,,,0.12,VWS V14.01,2013-01-15 07:41:00,
2013-01-15 02:42:00,41.0,40.5,30.13,NE,38,2.0,5.0,98,0.08,,,0.13,VWS V14.01,2013-01-15 07:42:00,
2013-01-15 02:43:00,41.0,40.5,30.13,NNE,15,5.0,5.0,98,0.08,,,0.13,VWS V14.01,2013-01-15 07:43:00,
2013-01-15 02:44:00,41.0,40.5,30.13,NNE,28,4.0,5.0,98,0.08,,,0.13,VWS V14.01,2013-01-15 07:44:00,
2013-01-15 02:45:00,41.0,40.5,30.13,NNE,26,4.0,4.0,98,0.08,,-RA,0.13,VWS V14.01,2013-01-15 07:45:00,
2013-01-15 02:46:00,41.0,40.5,30.13,NNE,26,2.0,4.0,98,0.08,,,0.13,VWS V14.01,2013-01-15 07:46:00,
2013-01-15 02:47:00,41.0,40.5,30.14,NNW,348,6.0,6.0,98,0.08,,,0.14,VWS V14.01,2013-01-15 07:47:00,
2013-01-15 02:48:00,41.0,40.5,30.13,North,355,2.0,6.0,98,0.08,,,0.14,VWS V14.01,2013-01-15 07:48:00,
2013-01-15 02:49:00,41.1,40.6,30.13,North,5,1.0,4.0,98,0.08,,,0.14,VWS V14.01,2013-01-15 07:49:00,
2013-01-15 02:50:00,41.1,40.6,30.13,North,5,3.0,4.0,98,0.08,,-RA,0.14,VWS V14.01,2013-01-15 07:50:00,
2013-01-15 02:51:00,41.1,40.6,30.13,North,5,1.0,4.0,98,0.09,,,0.15,VWS V14.01,2013-01-15 07:51:00,
2013-01-15 02:52:00,41.1,40.6,30.13,North,5,1.0,4.0,98,0.09,,,0.15,VWS V14.01,2013-01-15 07:52:00,
2013-01-15 02:53:00,41.1,40.6,30.13,NNE,32,4.0,5.0,98,0.09,,,0.15,VWS V14.01,2013-01-15 07:53:00,
2013-01-15 02:54:00,41.1,40.6,30.13,NNE,32,4.0,4.0,98,0.09,,,0.15,VWS V14.01,2013-01-15 07:54:00,
2013-01-15 02:55:00,41.1,40.6,30.13,North,5,3.0,6.0,98,0.09,,RA,0.15,VWS V14.01,2013-01-15 07:55:00,
2013-01-15 02:56:00,41.1,40.6,30.12,North,11,1.0,2.0,98,0.10,,,0.16,VWS V14.01,2013-01-15 07:56:00,
2013-01-15 02:59:00,41.1,40.6,30.12,North,5,4.0,5.0,98,0.09,,,0.16,VWS V14.01,2013-01-15 07:59:00,
2013-01-15 03:00:00,41.1,40.6,30.13,North,5,4.0,4.0,98,0.09,, +RA,0.16,VWS V14.01,2013-01-15 08:00:00,
2013-01-15 03:01:00,41.1,40.6,30.13,North,5,3.0,6.0,98,0.09,,,0.16,VWS V14.01,2013-01-15 08:01:00,
2013-01-15 03:03:00,41.2,40.7,30.13,NNE,17,5.0,6.0,98,0.10,,,0.17,VWS V14.01,2013-01-15 08:03:00,
2013-01-15 03:04:00,41.1,40.6,30.12,NNW,348,5.0,8.0,98,0.10,,,0.17,VWS V14.01,2013-01-15 08:04:00,
2013-01-15 03:05:00,41.1,40.6,30.12,NNW,348,3.0,5.0,98,0.10,, +RA,0.17,VWS V14.01,2013-01-15 08:05:00,
2013-01-15 03:07:00,41.1,40.6,30.13,NNE,18,5.0,6.0,98,0.10,,,0.17,VWS V14.01,2013-01-15 08:07:00,
2013-01-15 03:08:00,41.1,40.6,30.13,NNE,15,5.0,6.0,98,0.10,,,0.17,VWS V14.01,2013-01-15 08:08:00,
2013-01-15 03:09:00,41.1,40.6,30.13,NNE,15,2.0,5.0,98,0.10,,,0.17,VWS V14.01,2013-01-15 08:09:00,
2013-01-15 03:10:00,41.1,40.6,30.13,NNE,24,5.0,5.0,98,0.10,, +RA,0.17,VWS V14.01,2013-01-15 08:10:00,
2013-01-15 03:11:00,41.1,40.6,30.13,NNE,22,2.0,5.0,98,0.10,,,0.18,VWS V14.01,2013-01-15 08:11:00,
2013-01-15 03:12:00,41.2,40.7,30.13,NNE,22,0.0,3.0,98,0.10,,,0.18,VWS V14.01,2013-01-15 08:12:00,
2013-01-15 03:13:00,41.2,40.7,30.13,NNE,22,2.0,5.0,98,0.10,,,0.18,VWS V14.01,2013-01-15 08:13:00,
2013-01-15 03:14:00,41.2,40.7,30.13,North,355,5.0,5.0,98,0.10,,,0.18,VWS V14.01,2013-01-15 08:14:00,
2013-01-15 03:15:00,41.2,40.7,30.14,North,5,2.0,6.0,98,0.10,,RA,0.18,VWS V14.01,2013-01-15 08:15:00,
2013-01-15 03:16:00,41.2,40.7,30.13,North,360,3.0,4.0,98,0.09,,,0.18,VWS V14.01,2013-01-15 08:16:00,
2013-01-15 03:17:00,41.2,40.7,30.13,North,360,4.0,5.0,98,0.09,,,0.18,VWS V14.01,2013-01-15 08:17:00,
2013-01-15 03:18:00,41.2,40.7,30.14,North,360,0.0,4.0,98,0.09,,,0.18,VWS V14.01,2013-01-15 08:18:00,
2013-01-15 03:19:00,41.2,40.7,30.13,North,9,4.0,5.0,98,0.10,,,0.19,VWS V14.01,2013-01-15 08:19:00,
2013-01-15 03:20:00,41.3,40.8,30.13,North,9,3.0,6.0,98,0.10,,RA,0.19,VWS V14.01,2013-01-15 08:20:00,
2013-01-15 03:21:00,41.3,40.8,30.13,North,9,4.0,4.0,98,0.10,,,0.19,VWS V14.01,2013-01-15 08:21:00,
2013-01-15 03:22:00,41.3,40.8,30.13,North,9,1.0,5.0,98,0.10,,,0.19,VWS V14.01,2013-01-15 08:22:00,
2013-01-15 03:23:00,41.3,40.8,30.14,North,9,2.0,2.0,98,0.10,,,0.19,VWS V14.01,2013-01-15 08:23:00,
2013-01-15 03:24:00,41.3,40.8,30.14,North,9,0.0,4.0,98,0.10,,,0.19,VWS V14.01,2013-01-15 08:24:00,
2013-01-15 03:25:00,41.3,40.8,30.14,North,9,0.0,0.0,98,0.10,,RA,0.20,VWS V14.01,2013-01-15 08:25:00,
2013-01-15 03:26:00,41.3,40.8,30.14,North,5,4.0,4.0,98,0.10,,,0.20,VWS V14.01,2013-01-15 08:26:00,
2013-01-15 03:27:00,41.3,40.8,30.14,NNW,344,0.0,5.0,98,0.10,,,0.20,VWS V14.01,2013-01-15 08:27:00,
2013-01-15 03:28:00,41.3,40.8,30.13,NNW,344,0.0,0.0,98,0.10,,,0.20,VWS V14.01,2013-01-15 08:28:00,
2013-01-15 03:29:00,41.3,40.8,30.13,NNW,344,0.0,1.0,98,0.10,,,0.20,VWS V14.01,2013-01-15 08:29:00,
2013-01-15 03:30:00,41.3,40.8,30.13,NNW,344,0.0,0.0,98,0.11,,RA,0.21,VWS V14.01,2013-01-15 08:30:00,
2013-01-15 03:31:00,41.3,40.8,30.14,NNW,344,0.0,2.0,98,0.10,,,0.21,VWS V14.01,2013-01-15 08:31:00,
2013-01-15 03:32:00,41.3,40.8,30.13,NNE,12,3.0,6.0,98,0.10,,,0.21,VWS V14.01,2013-01-15 08:32:00,
2013-01-15 03:33:00,41.3,40.8,30.13,North,355,4.0,5.0,98,0.10,,,0.21,VWS V14.01,2013-01-15 08:33:00,
2013-01-15 03:34:00,41.3,40.8,30.13,NNE,31,3.0,5.0,98,0.10,,,0.21,VWS V14.01,2013-01-15 08:34:00,
2013-01-15 03:35:00,41.3,40.8,30.13,NNE,27,1.0,4.0,98,0.10,,RA,0.21,VWS V14.01,2013-01-15 08:35:00,
2013-01-15 03:36:00,41.3,40.8,30.13,NNE,27,1.0,2.0,98,0.11,,,0.22,VWS V14.01,2013-01-15 08:36:00,
2013-01-15 03:37:00,41.3,40.8,30.13,NNE,27,0.0,2.0,98,0.11,,,0.22,VWS V14.01,2013-01-15 08:37:00,
2013-01-15 03:38:00,41.3,40.8,30.13,NNE,27,1.0,2.0,98,0.10,,,0.22,VWS V14.01,2013-01-15 08:38:00,
2013-01-15 03:39:00,41.3,40.8,30.13,NNE,27,2.0,2.0,98,0.10,,,0.22,VWS V14.01,2013-01-15 08:39:00,
2013-01-15 03:40:00,41.3,40.8,30.13,NNE,27,0.0,3.0,98,0.11,,RA,0.23,VWS V14.01,2013-01-15 08:40:00,
2013-01-15 03:41:00,41.3,40.8,30.13,NNE,27,0.0,1.0,98,0.11,,,0.23,VWS V14.01,2013-01-15 08:41:00,
2013-01-15 03:42:00,41.3,40.8,30.13,NNE,27,0.0,1.0,98,0.11,,,0.23,VWS V14.01,2013-01-15 08:42:00,
2013-01-15 03:43:00,41.3,40.8,30.14,NNE,27,1.0,1.0,98,0.10,,,0.23,VWS V14.01,2013-01-15 08:43:00,
2013-01-15 03:44:00,41.4,40.9,30.14,NNE,27,0.0,1.0,98,0.10,,,0.23,VWS V14.01,2013-01-15 08:44:00,
2013-01-15 03:45:00,41.3,40.8,30.14,NNE,31,4.0,5.0,98,0.10,,RA,0.23,VWS V14.01,2013-01-15 08:45:00,
2013-01-15 03:46:00,41.3,40.8,30.14,NW,320,0.0,4.0,98,0.11,,,0.24,VWS V14.01,2013-01-15 08:46:00,
2013-01-15 03:47:00,41.3,40.8,30.14,North,360,4.0,5.0,98,0.11,,,0.24,VWS V14.01,2013-01-15 08:47:00,
2013-01-15 03:48:00,41.3,40.8,30.13,NNE,22,4.0,6.0,98,0.10,,,0.24,VWS V14.01,2013-01-15 08:48:00,
2013-01-15 03:49:00,41.2,40.7,30.13,NNE,22,2.0,4.0,98,0.11,,,0.25,VWS V14.01,2013-01-15 08:49:00,
2013-01-15 03:50:00,41.1,40.6,30.13,NNE,22,2.0,3.0,98,0.11,,RA,0.25,VWS V14.01,2013-01-15 08:50:00,
2013-01-15 03:51:00,41.1,40.6,30.13,NNE,23,3.0,4.0,98,0.10,,,0.25,VWS V14.01,2013-01-15 08:51:00,
2013-01-15 03:52:00,41.0,40.5,30.14,North,5,5.0,5.0,98,0.11,,,0.26,VWS V14.01,2013-01-15 08:52:00,
2013-01-15 03:53:00,41.0,40.5,30.13,North,5,2.0,5.0,98,0.11,,,0.26,VWS V14.01,2013-01-15 08:53:00,
2013-01-15 03:54:00,40.9,40.4,30.13,NE,43,3.0,5.0,98,0.12,,,0.27,VWS V14.01,2013-01-15 08:54:00,
2013-01-15 03:55:00,40.9,40.4,30.13,NE,44,4.0,5.0,98,0.12,,RA,0.27,VWS V14.01,2013-01-15 08:55:00,
2013-01-15 03:56:00,40.8,40.3,30.13,NE,44,2.0,4.0,98,0.12,,,0.27,VWS V14.01,2013-01-15 08:56:00,
2013-01-15 03:57:00,40.8,40.3,30.13,NE,44,1.0,4.0,98,0.12,,,0.28,VWS V14.01,2013-01-15 08:57:00,
2013-01-15 03:58:00,40.7,40.2,30.13,NE,44,2.0,5.0,98,0.12,,,0.28,VWS V14.01,2013-01-15 08:58:00,
2013-01-15 03:59:00,40.7,40.2,30.13,NE,44,0.0,3.0,98,0.13,,,0.29,VWS V14.01,2013-01-15 08:59:00,
2013-01-15 04:00:00,40.7,40.2,30.13,ENE,59,2.0,3.0,98,0.13,, +RA,0.29,VWS V14.01,2013-01-15 09:00:00,
2013-01-15 04:01:00,40.7,40.2,30.13,NE,48,1.0,2.0,98,0.13,,,0.29,VWS V14.01,2013-01-15 09:01:00,
2013-01-15 04:02:00,40.7,40.2,30.13,NE,48,3.0,4.0,98,0.13,,,0.29,VWS V14.01,2013-01-15 09:02:00,
2013-01-15 04:03:00,40.6,40.1,30.13,NE,56,2.0,5.0,98,0.14,,,0.31,VWS V14.01,2013-01-15 09:03:00,
2013-01-15 04:04:00,40.6,40.1,30.13,NE,56,1.0,2.0,98,0.14,,,0.31,VWS V14.01,2013-01-15 09:04:00,
2013-01-15 04:05:00,40.6,40.1,30.13,NE,55,4.0,4.0,98,0.15,, +RA,0.32,VWS V14.01,2013-01-15 09:05:00,
2013-01-15 04:06:00,40.6,40.1,30.13,NE,55,4.0,4.0,98,0.16,,,0.33,VWS V14.01,2013-01-15 09:06:00,
2013-01-15 04:07:00,40.6,40.1,30.12,ENE,57,4.0,5.0,98,0.17,,,0.34,VWS V14.01,2013-01-15 09:07:00,
2013-01-15 04:08:00,40.6,40.1,30.12,East,86,4.0,5.0,98,0.17,,,0.34,VWS V14.01,2013-01-15 09:08:00,
2013-01-15 04:09:00,40.6,40.1,30.11,East,91,1.0,4.0,98,0.18,,,0.35,VWS V14.01,2013-01-15 09:09:00,
2013-01-15 04:10:00,40.6,40.1,30.11,East,94,2.0,3.0,98,0.18,,,0.35,VWS V14.01,2013-01-15 09:10:00,
2013-01-15 04:11:00,40.6,40.1,30.11,East,93,0.0,2.0,98,0.18,, +RA,0.35,VWS V14.01,2013-01-15 09:11:00,
2013-01-15 04:12:00,40.6,40.1,30.11,East,79,3.0,3.0,98,0.17,,,0.35,VWS V14.01,2013-01-15 09:12:00,
2013-01-15 04:13:00,40.6,40.1,30.11,East,101,2.0,4.0,98,0.18,,,0.36,VWS V14.01,2013-01-15 09:13:00,
2013-01-15 04:14:00,40.6,40.1,30.11,East,90,0.0,4.0,98,0.18,,,0.36,VWS V14.01,2013-01-15 09:14:00,
2013-01-15 04:15:00,40.6,40.1,30.11,East,90,1.0,2.0,98,0.18,,,0.36,VWS V14.01,2013-01-15 09:15:00,
2013-01-15 04:16:00,40.6,40.1,30.11,East,90,1.0,2.0,98,0.19,, +RA,0.37,VWS V14.01,2013-01-15 09:16:00,
2013-01-15 04:17:00,40.6,40.1,30.12,East,90,0.0,0.0,98,0.19,,,0.37,VWS V14.01,2013-01-15 09:17:00,
2013-01-15 04:18:00,40.6,40.1,30.12,East,90,2.0,2.0,98,0.19,,,0.37,VWS V14.01,2013-01-15 09:18:00,
2013-01-15 04:19:00,40.6,40.1,30.12,East,86,4.0,4.0,98,0.19,,,0.37,VWS V14.01,2013-01-15 09:19:00,
2013-01-15 04:20:00,40.6,40.1,30.12,ENE,71,4.0,4.0,98,0.18,,,0.37,VWS V14.01,2013-01-15 09:20:00,
2013-01-15 04:21:00,40.6,40.1,30.11,East,87,1.0,4.0,98,0.18,, +RA,0.37,VWS V14.01,2013-01-15 09:21:00,
2013-01-15 04:22:00,40.6,40.1,30.11,ESE,118,1.0,5.0,98,0.19,,,0.38,VWS V14.01,2013-01-15 09:22:00,
2013-01-15 04:23:00,40.6,40.1,30.11,ESE,118,0.0,1.0,98,0.19,,,0.38,VWS V14.01,2013-01-15 09:23:00,
2013-01-15 04:24:00,40.7,40.2,30.11,ESE,118,1.0,3.0,98,0.19,,,0.38,VWS V14.01,2013-01-15 09:24:00,
2013-01-15 04:25:00,40.6,40.1,30.11,ESE,118,2.0,3.0,98,0.19,,,0.38,VWS V14.01,2013-01-15 09:25:00,
2013-01-15 04:26:00,40.7,40.2,30.11,ESE,118,2.0,2.0,98,0.19,, +RA,0.39,VWS V14.01,2013-01-15 09:26:00,
2013-01-15 04:27:00,40.7,40.2,30.12,ENE,70,1.0,3.0,98,0.19,,,0.39,VWS V14.01,2013-01-15 09:27:00,
2013-01-15 04:28:00,40.7,40.2,30.12,NNE,19,2.0,5.0,98,0.19,,,0.39,VWS V14.01,2013-01-15 09:28:00,
2013-01-15 04:29:00,40.7,40.2,30.12,NNW,342,4.0,5.0,98,0.19,,,0.39,VWS V14.01,2013-01-15 09:29:00,
2013-01-15 04:30:00,40.7,40.2,30.13,North,360,4.0,7.0,98,0.19,,,0.39,VWS V14.01,2013-01-15 09:30:00,
2013-01-15 04:31:00,40.7,40.2,30.13,North,360,1.0,4.0,98,0.18,, +RA,0.39,VWS V14.01,2013-01-15 09:31:00,
2013-01-15 04:32:00,40.7,40.2,30.13,North,360,2.0,2.0,98,0.18,,,0.39,VWS V14.01,2013-01-15 09:32:00,
2013-01-15 04:33:00,40.7,40.2,30.14,North,360,2.0,4.0,98,0.18,,,0.39,VWS V14.01,2013-01-15 09:33:00,
2013-01-15 04:34:00,40.7,40.2,30.14,NNW,347,3.0,6.0,98,0.18,,,0.39,VWS V14.01,2013-01-15 09:34:00,
2013-01-15 04:35:00,40.7,40.2,30.14,NNW,347,2.0,3.0,98,0.18,,,0.39,VWS V14.01,2013-01-15 09:35:00,
2013-01-15 04:36:00,40.8,40.3,30.14,NW,325,1.0,4.0,98,0.18,, +RA,0.39,VWS V14.01,2013-01-15 09:36:00,
2013-01-15 04:37:00,40.8,40.3,30.14,NW,325,0.0,1.0,98,0.17,,,0.39,VWS V14.01,2013-01-15 09:37:00,
2013-01-15 04:38:00,40.8,40.3,30.14,NNW,340,1.0,4.0,98,0.18,,,0.40,VWS V14.01,2013-01-15 09:38:00,
2013-01-15 04:39:00,40.8,40.3,30.14,NNW,340,0.0,2.0,98,0.18,,,0.40,VWS V14.01,2013-01-15 09:39:00,
2013-01-15 04:40:00,40.8,40.3,30.15,NNW,327,1.0,2.0,98,0.18,,,0.40,VWS V14.01,2013-01-15 09:40:00,
2013-01-15 04:41:00,40.8,40.3,30.14,NNW,329,2.0,2.0,98,0.18,, +RA,0.41,VWS V14.01,2013-01-15 09:41:00,
2013-01-15 04:42:00,40.8,40.3,30.14,NNE,19,2.0,4.0,98,0.18,,,0.41,VWS V14.01,2013-01-15 09:42:00,
2013-01-15 04:43:00,40.8,40.3,30.15,NNE,19,0.0,2.0,98,0.18,,,0.41,VWS V14.01,2013-01-15 09:43:00,
2013-01-15 04:44:00,40.7,40.2,30.14,NNE,19,0.0,1.0,98,0.18,,,0.41,VWS V14.01,2013-01-15 09:44:00,
2013-01-15 04:45:00,40.7,40.2,30.14,NNE,19,1.0,4.0,98,0.19,,,0.42,VWS V14.01,2013-01-15 09:45:00,
2013-01-15 04:46:00,40.7,40.2,30.14,NNE,19,4.0,4.0,98,0.20,, +RA,0.43,VWS V14.01,2013-01-15 09:46:00,
2013-01-15 04:47:00,40.7,40.2,30.14,NNE,19,3.0,4.0,98,0.19,,,0.43,VWS V14.01,2013-01-15 09:47:00,
2013-01-15 04:48:00,40.7,40.2,30.15,North,5,0.0,4.0,98,0.19,,,0.43,VWS V14.01,2013-01-15 09:48:00,
2013-01-15 04:49:00,40.7,40.2,30.15,NNE,15,2.0,5.0,98,0.20,,,0.44,VWS V14.01,2013-01-15 09:49:00,
2013-01-15 04:50:00,40.7,40.2,30.14,NNE,13,2.0,4.0,98,0.20,,,0.45,VWS V14.01,2013-01-15 09:50:00,
2013-01-15 04:51:00,40.7,40.2,30.14,NNE,13,1.0,3.0,98,0.20,, +RA,0.45,VWS V14.01,2013-01-15 09:51:00,
2013-01-15 04:52:00,40.7,40.2,30.15,NNE,13,0.0,1.0,98,0.20,,,0.45,VWS V14.01,2013-01-15 09:52:00,
2013-01-15 04:53:00,40.7,40.2,30.15,NNE,14,0.0,2.0,98,0.19,,,0.45,VWS V14.01,2013-01-15 09:53:00,
2013-01-15 04:54:00,40.7,40.2,30.15,NNE,13,0.0,1.0,98,0.20,,,0.46,VWS V14.01,2013-01-15 09:54:00,
2013-01-15 04:55:00,40.7,40.2,30.15,NNE,13,0.0,2.0,98,0.19,,,0.46,VWS V14.01,2013-01-15 09:55:00,
2013-01-15 04:56:00,40.7,40.2,30.15,NNE,13,4.0,4.0,98,0.20,, +RA,0.47,VWS V14.01,2013-01-15 09:56:00,
2013-01-15 04:57:00,40.7,40.2,30.15,North,360,6.0,6.0,98,0.20,,,0.47,VWS V14.01,2013-01-15 09:57:00,
2013-01-15 04:58:00,40.7,40.2,30.15,North,360,0.0,6.0,98,0.19,,,0.47,VWS V14.01,2013-01-15 09:58:00,
2013-01-15 04:59:00,40.6,40.1,30.15,North,360,0.0,2.0,98,0.19,,,0.47,VWS V14.01,2013-01-15 09:59:00,
2013-01-15 05:00:00,40.7,40.2,30.15,NNW,344,0.0,6.0,98,0.19,,,0.48,VWS V14.01,2013-01-15 10:00:00,
2013-01-15 05:01:00,40.7,40.2,30.15,NNW,344,0.0,0.0,98,0.19,, +RA,0.48,VWS V14.01,2013-01-15 10:01:00,
2013-01-15 05:02:00,40.6,40.1,30.15,North,5,1.0,5.0,98,0.20,,,0.49,VWS V14.01,2013-01-15 10:02:00,
2013-01-15 05:03:00,40.6,40.1,30.15,West,278,4.0,6.0,98,0.20,,,0.49,VWS V14.01,2013-01-15 10:03:00,
2013-01-15 05:04:00,40.6,40.1,30.15,North,360,2.0,4.0,98,0.18,,,0.49,VWS V14.01,2013-01-15 10:04:00,
2013-01-15 05:05:00,40.6,40.1,30.15,North,360,1.0,2.0,98,0.18,,,0.49,VWS V14.01,2013-01-15 10:05:00,
2013-01-15 05:06:00,40.6,40.1,30.15,North,360,1.0,4.0,98,0.17,, +RA,0.49,VWS V14.01,2013-01-15 10:06:00,
2013-01-15 05:07:00,40.6,40.1,30.15,North,360,2.0,4.0,98,0.17,,,0.50,VWS V14.01,2013-01-15 10:07:00,
2013-01-15 05:08:00,40.6,40.1,30.15,North,360,1.0,5.0,98,0.16,,,0.50,VWS V14.01,2013-01-15 10:08:00,
2013-01-15 05:09:00,40.6,40.1,30.15,NNE,24,5.0,5.0,98,0.16,,,0.50,VWS V14.01,2013-01-15 10:09:00,
2013-01-15 05:10:00,40.5,40.0,30.14,NE,52,1.0,5.0,98,0.16,,,0.51,VWS V14.01,2013-01-15 10:10:00,
2013-01-15 05:11:00,40.5,40.0,30.15,NE,52,2.0,2.0,98,0.16,, +RA,0.51,VWS V14.01,2013-01-15 10:11:00,
2013-01-15 05:12:00,40.5,40.0,30.15,NE,52,3.0,3.0,98,0.16,,,0.51,VWS V14.01,2013-01-15 10:12:00,
2013-01-15 05:13:00,40.5,40.0,30.15,NE,52,2.0,4.0,98,0.16,,,0.51,VWS V14.01,2013-01-15 10:13:00,
2013-01-15 05:14:00,40.5,40.0,30.15,NE,52,1.0,2.0,98,0.15,,,0.51,VWS V14.01,2013-01-15 10:14:00,
2013-01-15 05:15:00,40.5,40.0,30.15,North,5,4.0,6.0,98,0.15,,,0.51,VWS V14.01,2013-01-15 10:15:00,
2013-01-15 05:16:00,40.5,40.0,30.14,NNE,33,4.0,6.0,98,0.16,, +RA,0.52,VWS V14.01,2013-01-15 10:16:00,
2013-01-15 05:17:00,40.4,39.9,30.14,NE,44,5.0,5.0,98,0.16,,,0.53,VWS V14.01,2013-01-15 10:17:00,
2013-01-15 05:18:00,40.4,39.9,30.13,NE,38,4.0,7.0,98,0.16,,,0.53,VWS V14.01,2013-01-15 10:18:00,
2013-01-15 05:19:00,40.4,39.9,30.13,NE,46,1.0,6.0,98,0.16,,,0.53,VWS V14.01,2013-01-15 10:19:00,
2013-01-15 05:20:00,40.4,39.9,30.13,NE,49,2.0,5.0,98,0.16,,,0.53,VWS V14.01,2013-01-15 10:20:00,
2013-01-15 05:21:00,40.4,39.9,30.14,NE,51,6.0,6.0,98,0.16,, +RA,0.53,VWS V14.01,2013-01-15 10:21:00,
2013-01-15 05:22:00,40.4,39.9,30.14,North,355,3.0,6.0,98,0.15,,,0.53,VWS V14.01,2013-01-15 10:22:00,
2013-01-15 05:23:00,40.4,39.9,30.15,NNE,16,4.0,5.0,98,0.16,,,0.54,VWS V14.01,2013-01-15 10:23:00,
2013-01-15 05:24:00,40.4,39.9,30.14,NNE,28,2.0,4.0,98,0.16,,,0.54,VWS V14.01,2013-01-15 10:24:00,
2013-01-15 05:25:00,40.4,39.9,30.14,East,84,5.0,7.0,98,0.16,,,0.54,VWS V14.01,2013-01-15 10:25:00,
2013-01-15 05:26:00,40.4,39.9,30.13,ENE,63,5.0,7.0,98,0.16,, +RA,0.54,VWS V14.01,2013-01-15 10:26:00,
2013-01-15 05:27:00,40.3,39.8,30.13,NE,52,6.0,6.0,98,0.16,,,0.55,VWS V14.01,2013-01-15 10:27:00,
2013-01-15 05:28:00,40.3,39.8,30.13,ENE,71,2.0,6.0,98,0.16,,,0.55,VWS V14.01,2013-01-15 10:28:00,
2013-01-15 05:29:00,40.3,39.8,30.12,ESE,106,2.0,6.0,98,0.16,,,0.55,VWS V14.01,2013-01-15 10:29:00,
2013-01-15 05:30:00,40.3,39.8,30.13,ENE,78,2.0,5.0,98,0.16,,,0.55,VWS V14.01,2013-01-15 10:30:00,
2013-01-15 05:31:00,40.3,39.8,30.13,ENE,59,6.0,7.0,98,0.16,, +RA,0.55,VWS V14.01,2013-01-15 10:31:00,
2013-01-15 05:32:00,40.3,39.8,30.14,NNE,12,5.0,6.0,98,0.16,,,0.55,VWS V14.01,2013-01-15 10:32:00,
2013-01-15 05:33:00,40.3,39.8,30.14,North,360,4.0,5.0,98,0.16,,,0.55,VWS V14.01,2013-01-15 10:33:00,
2013-01-15 05:34:00,40.3,39.8,30.14,North,360,4.0,4.0,98,0.16,,,0.55,VWS V14.01,2013-01-15 10:34:00,
2013-01-15 05:35:00,40.3,39.8,30.14,NE,44,5.0,6.0,98,0.16,,,0.55,VWS V14.01,2013-01-15 10:35:00,
2013-01-15 05:36:00,40.3,39.8,30.14,NE,39,5.0,8.0,98,0.17,, +RA,0.56,VWS V14.01,2013-01-15 10:36:00,
2013-01-15 05:37:00,40.2,39.7,30.13,NE,49,8.0,8.0,98,0.17,,,0.56,VWS V14.01,2013-01-15 10:37:00,
2013-01-15 05:38:00,40.2,39.7,30.13,NE,34,8.0,8.0,98,0.17,,,0.56,VWS V14.01,2013-01-15 10:38:00,
2013-01-15 05:39:00,40.2,39.7,30.13,NNE,30,7.0,10.0,98,0.17,,,0.57,VWS V14.01,2013-01-15 10:39:00,
2013-01-15 05:40:00,40.2,39.7,30.13,North,11,6.0,8.0,98,0.17,,,0.57,VWS V14.01,2013-01-15 10:40:00,
2013-01-15 05:41:00,40.2,39.7,30.13,NE,38,5.0,7.0,98,0.17,, +RA,0.57,VWS V14.01,2013-01-15 10:41:00,
2013-01-15 05:42:00,40.2,39.7,30.13,NNW,344,6.0,7.0,98,0.16,,,0.57,VWS V14.01,2013-01-15 10:42:00,
2013-01-15 05:43:00,40.2,39.7,30.13,North,5,5.0,8.0,98,0.16,,,0.57,VWS V14.01,2013-01-15 10:43:00,
2013-01-15 05:44:00,40.2,39.7,30.13,NNE,18,4.0,8.0,98,0.16,,,0.57,VWS V14.01,2013-01-15 10:44:00,
2013-01-15 05:45:00,40.2,39.7,30.13,North,350,6.0,6.0,98,0.16,,,0.57,VWS V14.01,2013-01-15 10:45:00,
2013-01-15 05:46:00,40.1,39.6,30.13,North,11,8.0,10.0,98,0.16,, +RA,0.58,VWS V14.01,2013-01-15 10:46:00,
2013-01-15 05:47:00,40.1,39.6,30.13,NE,54,5.0,9.0,98,0.15,,,0.58,VWS V14.01,2013-01-15 10:47:00,
2013-01-15 05:48:00,40.1,39.6,30.13,NE,51,6.0,6.0,98,0.15,,,0.58,VWS V14.01,2013-01-15 10:48:00,
2013-01-15 05:49:00,40.1,39.6,30.13,NE,47,7.0,7.0,98,0.15,,,0.58,VWS V14.01,2013-01-15 10:49:00,
2013-01-15 05:50:00,40.1,39.6,30.13,NNE,27,6.0,10.0,98,0.14,,,0.58,VWS V14.01,2013-01-15 10:50:00,
2013-01-15 05:51:00,40.1,39.6,30.12,NNE,31,6.0,10.0,98,0.13,, +RA,0.58,VWS V14.01,2013-01-15 10:51:00,
2013-01-15 05:52:00,40.1,39.6,30.12,NE,42,8.0,8.0,98,0.13,,,0.58,VWS V14.01,2013-01-15 10:52:00,
2013-01-15 05:53:00,40.1,39.6,30.13,NE,43,9.0,9.0,98,0.14,,,0.59,VWS V14.01,2013-01-15 10:53:00,
2013-01-15 05:54:00,40.0,39.5,30.13,North,5,7.0,9.0,98,0.14,,,0.59,VWS V14.01,2013-01-15 10:54:00,
2013-01-15 05:55:00,40.0,39.5,30.13,NNE,23,5.0,7.0,98,0.13,,,0.59,VWS V14.01,2013-01-15 10:55:00,
2013-01-15 05:56:00,40.0,39.5,30.13,North,9,5.0,8.0,98,0.13,, +RA,0.59,VWS V14.01,2013-01-15 10:56:00,
2013-01-15 05:57:00,40.0,39.5,30.13,North,5,8.0,8.0,98,0.12,,,0.59,VWS V14.01,2013-01-15 10:57:00,
2013-01-15 05:58:00,40.0,39.5,30.13,NNE,23,7.0,9.0,98,0.12,,,0.59,VWS V14.01,2013-01-15 10:58:00,
2013-01-15 05:59:00,40.0,39.5,30.14,NNW,345,7.0,7.0,98,0.12,,,0.59,VWS V14.01,2013-01-15 10:59:00,
2013-01-15 06:00:00,40.0,39.5,30.14,North,11,6.0,8.0,98,0.12,,,0.59,VWS V14.01,2013-01-15 11:00:00,
2013-01-15 06:01:00,40.0,39.5,30.14,North,355,2.0,7.0,98,0.11,,RA,0.59,VWS V14.01,2013-01-15 11:01:00,
2013-01-15 06:02:00,40.0,39.5,30.14,North,5,4.0,4.0,98,0.11,,,0.59,VWS V14.01,2013-01-15 11:02:00,
2013-01-15 06:03:00,40.0,39.5,30.14,NNE,17,4.0,6.0,98,0.10,,,0.59,VWS V14.01,2013-01-15 11:03:00,
2013-01-15 06:04:00,40.1,39.6,30.15,North,5,4.0,7.0,98,0.10,,,0.59,VWS V14.01,2013-01-15 11:04:00,
2013-01-15 06:05:00,40.1,39.6,30.15,North,5,0.0,4.0,98,0.11,,,0.60,VWS V14.01,2013-01-15 11:05:00,
2013-01-15 06:06:00,40.1,39.6,30.15,NNE,13,2.0,6.0,98,0.11,,RA,0.60,VWS V14.01,2013-01-15 11:06:00,
2013-01-15 06:07:00,40.1,39.6,30.15,North,9,5.0,5.0,98,0.11,,,0.60,VWS V14.01,2013-01-15 11:07:00,
2013-01-15 06:08:00,40.1,39.6,30.15,North,350,1.0,5.0,98,0.11,,,0.61,VWS V14.01,2013-01-15 11:08:00,
2013-01-15 06:09:00,40.1,39.6,30.15,NNE,17,6.0,6.0,98,0.11,,,0.61,VWS V14.01,2013-01-15 11:09:00,
2013-01-15 06:10:00,40.1,39.6,30.16,North,5,1.0,6.0,98,0.11,,,0.61,VWS V14.01,2013-01-15 11:10:00,
2013-01-15 06:11:00,40.1,39.6,30.16,North,5,1.0,4.0,98,0.10,,RA,0.61,VWS V14.01,2013-01-15 11:11:00,
2013-01-15 06:12:00,40.1,39.6,30.16,North,350,3.0,6.0,98,0.10,,,0.61,VWS V14.01,2013-01-15 11:12:00,
2013-01-15 06:13:00,40.1,39.6,30.16,NE,38,3.0,7.0,98,0.11,,,0.62,VWS V14.01,2013-01-15 11:13:00,
2013-01-15 06:14:00,40.1,39.6,30.16,NE,38,2.0,4.0,98,0.12,,,0.63,VWS V14.01,2013-01-15 11:14:00,
2013-01-15 06:15:00,40.1,39.6,30.16,NE,38,2.0,2.0,98,0.12,,,0.63,VWS V14.01,2013-01-15 11:15:00,
2013-01-15 06:16:00,40.2,39.7,30.16,NE,37,5.0,6.0,98,0.13,,RA,0.64,VWS V14.01,2013-01-15 11:16:00,
2013-01-15 06:17:00,40.1,39.6,30.16,NNE,13,4.0,6.0,98,0.13,,,0.65,VWS V14.01,2013-01-15 11:17:00,
2013-01-15 06:18:00,40.1,39.6,30.16,NNE,13,5.0,5.0,98,0.12,,,0.65,VWS V14.01,2013-01-15 11:18:00,
2013-01-15 06:19:00,40.1,39.6,30.16,NNE,13,4.0,6.0,98,0.13,,,0.66,VWS V14.01,2013-01-15 11:19:00,
2013-01-15 06:20:00,40.1,39.6,30.16,NW,311,5.0,7.0,98,0.14,,,0.67,VWS V14.01,2013-01-15 11:20:00,
2013-01-15 06:21:00,40.1,39.6,30.16,North,355,5.0,6.0,98,0.15,,RA,0.68,VWS V14.01,2013-01-15 11:21:00,
2013-01-15 06:22:00,40.1,39.6,30.17,NNE,26,5.0,7.0,98,0.15,,,0.68,VWS V14.01,2013-01-15 11:22:00,
2013-01-15 06:23:00,40.1,39.6,30.17,NNE,15,4.0,8.0,98,0.16,,,0.69,VWS V14.01,2013-01-15 11:23:00,
2013-01-15 06:24:00,40.1,39.6,30.17,North,5,6.0,6.0,98,0.15,,,0.69,VWS V14.01,2013-01-15 11:24:00,
2013-01-15 06:25:00,40.1,39.6,30.17,North,349,5.0,10.0,98,0.16,,,0.70,VWS V14.01,2013-01-15 11:25:00,
2013-01-15 06:26:00,40.1,39.6,30.17,North,351,4.0,7.0,98,0.17,,RA,0.71,VWS V14.01,2013-01-15 11:26:00,
2013-01-15 06:27:00,40.1,39.6,30.17,NNE,20,4.0,6.0,98,0.17,,,0.71,VWS V14.01,2013-01-15 11:27:00,
2013-01-15 06:28:00,40.1,39.6,30.17,North,360,1.0,5.0,98,0.16,,,0.71,VWS V14.01,2013-01-15 11:28:00,
2013-01-15 06:29:00,40.0,39.5,30.17,North,360,2.0,2.0,98,0.16,,,0.71,VWS V14.01,2013-01-15 11:29:00,
2013-01-15 06:30:00,40.1,39.6,30.17,North,360,3.0,5.0,98,0.17,,,0.72,VWS V14.01,2013-01-15 11:30:00,
2013-01-15 06:31:00,40.1,39.6,30.18,North,360,1.0,4.0,98,0.17,,RA,0.72,VWS V14.01,2013-01-15 11:31:00,
2013-01-15 06:32:00,40.0,39.5,30.18,NNW,346,2.0,5.0,98,0.17,,,0.72,VWS V14.01,2013-01-15 11:32:00,
2013-01-15 06:33:00,40.0,39.5,30.18,NNW,346,2.0,2.0,98,0.18,,,0.73,VWS V14.01,2013-01-15 11:33:00,
2013-01-15 06:34:00,40.0,39.5,30.18,NNE,20,2.0,5.0,98,0.18,,,0.73,VWS V14.01,2013-01-15 11:34:00,
2013-01-15 06:35:00,40.0,39.5,30.17,NNE,16,2.0,6.0,98,0.18,,,0.73,VWS V14.01,2013-01-15 11:35:00,
2013-01-15 06:36:00,40.0,39.5,30.17,NNE,19,2.0,2.0,98,0.19,,RA,0.74,VWS V14.01,2013-01-15 11:36:00,
2013-01-15 06:37:00,40.1,39.6,30.17,NNE,15,2.0,5.0,98,0.19,,,0.75,VWS V14.01,2013-01-15 11:37:00,
2013-01-15 06:38:00,40.0,39.5,30.17,NNE,13,3.0,6.0,98,0.19,,,0.75,VWS V14.01,2013-01-15 11:38:00,
2013-01-15 06:39:00,40.0,39.5,30.17,North,5,7.0,10.0,98,0.20,,,0.76,VWS V14.01,2013-01-15 11:39:00,
2013-01-15 06:40:00,40.0,39.5,30.17,NNW,346,7.0,8.0,98,0.19,,,0.76,VWS V14.01,2013-01-15 11:40:00,
2013-01-15 06:41:00,39.9,39.4,30.17,NNE,21,2.0,7.0,98,0.20,,RA,0.77,VWS V14.01,2013-01-15 11:41:00,
2013-01-15 06:42:00,39.9,39.4,30.17,NNE,23,5.0,10.0,98,0.20,,,0.77,VWS V14.01,2013-01-15 11:42:00,
2013-01-15 06:43:00,39.8,39.3,30.18,NNW,348,6.0,8.0,98,0.20,,,0.77,VWS V14.01,2013-01-15 11:43:00,
2013-01-15 06:44:00,39.8,39.3,30.18,North,355,6.0,9.0,98,0.21,,,0.78,VWS V14.01,2013-01-15 11:44:00,
2013-01-15 06:45:00,39.8,39.3,30.18,NNW,347,4.0,6.0,98,0.22,,,0.79,VWS V14.01,2013-01-15 11:45:00,
2013-01-15 06:46:00,39.7,39.2,30.18,North,360,2.0,6.0,98,0.22,,RA,0.79,VWS V14.01,2013-01-15 11:46:00,
2013-01-15 06:47:00,39.7,39.2,30.18,North,5,3.0,7.0,98,0.21,,,0.79,VWS V14.01,2013-01-15 11:47:00,
2013-01-15 06:48:00,39.7,39.2,30.18,North,360,5.0,5.0,98,0.22,,,0.80,VWS V14.01,2013-01-15 11:48:00,
2013-01-15 06:49:00,39.7,39.2,30.18,North,355,2.0,7.0,98,0.23,,,0.81,VWS V14.01,2013-01-15 11:49:00,
2013-01-15 06:50:00,39.6,39.1,30.18,NNE,16,6.0,6.0,98,0.23,,,0.81,VWS V14.01,2013-01-15 11:50:00,
2013-01-15 06:51:00,39.6,39.1,30.18,North,9,1.0,6.0,98,0.23,,RA,0.81,VWS V14.01,2013-01-15 11:51:00,
2013-01-15 06:52:00,39.6,39.1,30.18,North,9,2.0,3.0,98,0.24,,,0.82,VWS V14.01,2013-01-15 11:52:00,
2013-01-15 06:53:00,39.6,39.1,30.18,NNE,15,2.0,2.0,98,0.24,,,0.82,VWS V14.01,2013-01-15 11:53:00,
2013-01-15 06:54:00,39.6,39.1,30.18,North,11,7.0,7.0,98,0.24,,,0.83,VWS V14.01,2013-01-15 11:54:00,
2013-01-15 06:55:00,39.6,39.1,30.18,NE,50,8.0,9.0,98,0.24,,,0.83,VWS V14.01,2013-01-15 11:55:00,
2013-01-15 06:56:00,39.5,39.0,30.18,NE,34,2.0,8.0,98,0.24,,RA,0.83,VWS V14.01,2013-01-15 11:56:00,
2013-01-15 06:57:00,39.5,39.0,30.18,NE,34,0.0,4.0,98,0.25,,,0.84,VWS V14.01,2013-01-15 11:57:00,
2013-01-15 06:58:00,39.5,39.0,30.18,NNE,30,7.0,7.0,98,0.25,,,0.84,VWS V14.01,2013-01-15 11:58:00,
2013-01-15 06:59:00,39.5,39.0,30.18,NNE,23,4.0,7.0,98,0.26,,,0.85,VWS V14.01,2013-01-15 11:59:00,
2013-01-15 07:00:00,39.4,38.9,30.18,NNE,32,7.0,8.0,98,0.26,,,0.85,VWS V14.01,2013-01-15 12:00:00,
2013-01-15 07:01:00,39.4,38.9,30.18,NNE,17,10.0,10.0,98,0.26,, +RA,0.85,VWS V14.01,2013-01-15 12:01:00,
2013-01-15 07:02:00,39.3,38.8,30.17,North,5,6.0,10.0,98,0.26,,,0.85,VWS V14.01,2013-01-15 12:02:00,
2013-01-15 07:03:00,39.2,38.7,30.17,NE,36,4.0,9.0,98,0.27,,,0.86,VWS V14.01,2013-01-15 12:03:00,
2013-01-15 07:04:00,39.2,38.7,30.17,NE,42,2.0,7.0,98,0.27,,,0.86,VWS V14.01,2013-01-15 12:04:00,
2013-01-15 07:05:00,39.1,38.6,30.17,NE,52,5.0,11.0,98,0.27,,,0.86,VWS V14.01,2013-01-15 12:05:00,
2013-01-15 07:06:00,39.0,38.5,30.17,NE,36,6.0,6.0,98,0.26,, +RA,0.86,VWS V14.01,2013-01-15 12:06:00,
2013-01-15 07:07:00,39.0,38.5,30.17,NE,39,7.0,9.0,98,0.27,,,0.87,VWS V14.01,2013-01-15 12:07:00,
2013-01-15 07:08:00,38.9,38.4,30.17,NNE,31,6.0,8.0,98,0.27,,,0.87,VWS V14.01,2013-01-15 12:08:00,
2013-01-15 07:09:00,38.9,38.4,30.17,NE,46,6.0,7.0,98,0.26,,,0.87,VWS V14.01,2013-01-15 12:09:00,
2013-01-15 07:10:00,38.8,38.3,30.17,ENE,61,4.0,6.0,98,0.26,,,0.87,VWS V14.01,2013-01-15 12:10:00,
2013-01-15 07:11:00,38.9,38.4,30.17,NE,44,5.0,5.0,98,0.26,, +RA,0.87,VWS V14.01,2013-01-15 12:11:00,
2013-01-15 07:12:00,38.8,38.3,30.17,ESE,105,5.0,6.0,98,0.26,,,0.87,VWS V14.01,2013-01-15 12:12:00,
2013-01-15 07:13:00,38.8,38.3,30.17,ENE,62,6.0,8.0,98,0.26,,,0.87,VWS V14.01,2013-01-15 12:13:00,
2013-01-15 07:14:00,38.8,38.3,30.17,NE,34,5.0,8.0,98,0.25,,,0.87,VWS V14.01,2013-01-15 12:14:00,
2013-01-15 07:15:00,38.8,38.3,30.17,ENE,70,5.0,9.0,98,0.24,,,0.87,VWS V14.01,2013-01-15 12:15:00,
2013-01-15 07:16:00,38.8,38.3,30.17,SSE,147,5.0,5.0,98,0.24,, +RA,0.88,VWS V14.01,2013-01-15 12:16:00,
2013-01-15 07:17:00,38.9,38.4,30.17,ENE,67,6.0,6.0,98,0.24,,,0.88,VWS V14.01,2013-01-15 12:17:00,
2013-01-15 07:18:00,38.8,38.3,30.17,ENE,61,4.0,8.0,98,0.23,,,0.88,VWS V14.01,2013-01-15 12:18:00,
2013-01-15 07:19:00,38.8,38.3,30.17,East,96,4.0,7.0,98,0.23,,,0.88,VWS V14.01,2013-01-15 12:19:00,
2013-01-15 07:20:00,38.8,38.3,30.17,ENE,60,5.0,7.0,98,0.22,,,0.88,VWS V14.01,2013-01-15 12:20:00,
2013-01-15 07:21:00,38.9,38.4,30.17,ENE,65,5.0,5.0,98,0.21,,,0.88,VWS V14.01,2013-01-15 12:21:00,
2013-01-15 07:22:00,38.9,38.4,30.17,ENE,67,1.0,5.0,98,0.20,, +RA,0.88,VWS V14.01,2013-01-15 12:22:00,
2013-01-15 07:23:00,38.9,38.4,30.18,East,88,4.0,7.0,98,0.20,,,0.88,VWS V14.01,2013-01-15 12:23:00,
2013-01-15 07:24:00,38.9,38.4,30.18,East,101,4.0,5.0,98,0.19,,,0.88,VWS V14.01,2013-01-15 12:24:00,
2013-01-15 07:25:00,38.9,38.4,30.18,ESE,107,2.0,6.0,98,0.19,,,0.88,VWS V14.01,2013-01-15 12:25:00,
2013-01-15 07:26:00,38.9,38.4,30.19,ESE,107,0.0,2.0,98,0.18,,,0.88,VWS V14.01,2013-01-15 12:26:00,
2013-01-15 07:27:00,38.9,38.4,30.19,ESE,107,0.0,0.0,98,0.17,, +RA,0.88,VWS V14.01,2013-01-15 12:27:00,
2013-01-15 07:28:00,38.9,38.4,30.18,East,97,4.0,5.0,98,0.18,,,0.89,VWS V14.01,2013-01-15 12:28:00,
2013-01-15 07:29:00,39.0,38.5,30.18,ENE,59,6.0,7.0,98,0.18,,,0.89,VWS V14.01,2013-01-15 12:29:00,
2013-01-15 07:30:00,39.0,38.5,30.18,ENE,75,6.0,7.0,98,0.18,,,0.89,VWS V14.01,2013-01-15 12:30:00,
2013-01-15 07:31:00,38.9,38.4,30.18,ENE,69,4.0,7.0,98,0.17,,,0.89,VWS V14.01,2013-01-15 12:31:00,
2013-01-15 07:32:00,39.0,38.5,30.18,East,101,2.0,5.0,98,0.17,, +RA,0.89,VWS V14.01,2013-01-15 12:32:00,
2013-01-15 07:33:00,39.0,38.5,30.18,East,91,2.0,4.0,98,0.17,,,0.89,VWS V14.01,2013-01-15 12:33:00,
2013-01-15 07:34:00,39.0,38.5,30.18,NE,49,5.0,6.0,98,0.16,,,0.89,VWS V14.01,2013-01-15 12:34:00,
2013-01-15 07:35:00,39.0,38.5,30.18,ENE,71,4.0,6.0,98,0.16,,,0.89,VWS V14.01,2013-01-15 12:35:00,
2013-01-15 07:36:00,39.0,38.5,30.18,East,97,1.0,7.0,98,0.17,,,0.90,VWS V14.01,2013-01-15 12:36:00,
2013-01-15 07:37:00,39.0,38.5,30.18,NE,35,6.0,6.0,98,0.16,,RA,0.90,VWS V14.01,2013-01-15 12:37:00,
2013-01-15 07:38:00,39.0,38.5,30.18,ENE,74,4.0,7.0,98,0.15,,,0.90,VWS V14.01,2013-01-15 12:38:00,
2013-01-15 07:39:00,39.0,38.5,30.18,ENE,69,3.0,4.0,98,0.15,,,0.90,VWS V14.01,2013-01-15 12:39:00,
2013-01-15 07:40:00,39.0,38.5,30.18,NE,38,4.0,6.0,98,0.15,,,0.91,VWS V14.01,2013-01-15 12:40:00,
2013-01-15 07:41:00,38.9,38.4,30.18,NNE,31,3.0,5.0,98,0.15,,,0.91,VWS V14.01,2013-01-15 12:41:00,
2013-01-15 07:42:00,38.9,38.4,30.18,NNE,31,4.0,5.0,98,0.14,,RA,0.91,VWS V14.01,2013-01-15 12:42:00,
2013-01-15 07:43:00,39.0,38.5,30.18,North,360,5.0,5.0,98,0.14,,,0.91,VWS V14.01,2013-01-15 12:43:00,
2013-01-15 07:44:00,39.0,38.5,30.19,North,351,5.0,6.0,98,0.14,,,0.91,VWS V14.01,2013-01-15 12:44:00,
2013-01-15 07:45:00,39.0,38.5,30.19,NNW,346,2.0,5.0,98,0.13,,,0.91,VWS V14.01,2013-01-15 12:45:00,
2013-01-15 07:46:00,39.0,38.5,30.19,NNW,346,2.0,4.0,98,0.12,,,0.91,VWS V14.01,2013-01-15 12:46:00,
2013-01-15 07:47:00,39.0,38.5,30.19,NNW,346,3.0,4.0,98,0.12,,RA,0.91,VWS V14.01,2013-01-15 12:47:00,
2013-01-15 07:48:00,39.0,38.5,30.19,North,355,8.0,8.0,98,0.12,,,0.91,VWS V14.01,2013-01-15 12:48:00,
2013-01-15 07:49:00,39.0,38.5,30.19,NNE,19,5.0,10.0,98,0.11,,,0.91,VWS V14.01,2013-01-15 12:49:00,
2013-01-15 07:50:00,39.0,38.5,30.18,NNE,25,3.0,6.0,98,0.10,,,0.91,VWS V14.01,2013-01-15 12:50:00,
2013-01-15 07:51:00,39.0,38.5,30.18,North,360,5.0,7.0,98,0.10,,,0.91,VWS V14.01,2013-01-15 12:51:00,
2013-01-15 07:52:00,39.0,38.5,30.19,North,360,2.0,5.0,98,0.10,, +RA,0.91,VWS V14.01,2013-01-15 12:52:00,
2013-01-15 07:53:00,39.0,38.5,30.19,North,5,6.0,7.0,98,0.10,,,0.92,VWS V14.01,2013-01-15 12:53:00,
2013-01-15 07:54:00,38.9,38.4,30.19,NNE,27,2.0,6.0,98,0.10,,,0.92,VWS V14.01,2013-01-15 12:54:00,
2013-01-15 07:55:00,38.9,38.4,30.19,NNE,23,5.0,5.0,98,0.09,,,0.92,VWS V14.01,2013-01-15 12:55:00,
2013-01-15 07:56:00,38.9,38.4,30.19,North,9,4.0,6.0,98,0.09,,,0.92,VWS V14.01,2013-01-15 12:56:00,
2013-01-15 07:57:00,38.9,38.4,30.19,North,355,4.0,5.0,98,0.09,, +RA,0.92,VWS V14.01,2013-01-15 12:57:00,
2013-01-15 07:58:00,38.9,38.4,30.19,North,360,5.0,7.0,98,0.08,,,0.92,VWS V14.01,2013-01-15 12:58:00,
2013-01-15 07:59:00,38.9,38.4,30.19,NE,55,5.0,7.0,98,0.08,,,0.92,VWS V14.01,2013-01-15 12:59:00,
2013-01-15 08:00:00,38.9,38.4,30.19,NE,47,2.0,6.0,98,0.07,,,0.92,VWS V14.01,2013-01-15 13:00:00,
2013-01-15 08:01:00,38.9,38.4,30.19,ENE,67,3.0,4.0,98,0.07,,,0.92,VWS V14.01,2013-01-15 13:01:00,
2013-01-15 08:02:00,38.9,38.4,30.19,ENE,61,2.0,5.0,98,0.07,,-RA,0.92,VWS V14.01,2013-01-15 13:02:00,
2013-01-15 08:03:00,38.8,38.3,30.19,NNE,31,4.0,6.0,98,0.08,,,0.93,VWS V14.01,2013-01-15 13:03:00,
2013-01-15 08:04:00,38.8,38.3,30.19,NNE,30,4.0,4.0,98,0.07,,,0.93,VWS V14.01,2013-01-15 13:04:00,
2013-01-15 08:05:00,38.8,38.3,30.19,NNE,30,2.0,4.0,98,0.07,,,0.93,VWS V14.01,2013-01-15 13:05:00,
2013-01-15 08:06:00,38.8,38.3,30.19,NNE,30,2.0,2.0,98,0.07,,,0.93,VWS V14.01,2013-01-15 13:06:00,
2013-01-15 08:07:00,38.8,38.3,30.19,NNE,30,3.0,4.0,98,0.07,,-RA,0.93,VWS V14.01,2013-01-15 13:07:00,
2013-01-15 08:08:00,38.8,38.3,30.19,NNE,15,5.0,6.0,98,0.06,,,0.93,VWS V14.01,2013-01-15 13:08:00,
2013-01-15 08:09:00,38.8,38.3,30.19,NE,51,6.0,7.0,98,0.06,,,0.93,VWS V14.01,2013-01-15 13:09:00,
2013-01-15 08:10:00,38.8,38.3,30.19,North,5,7.0,7.0,98,0.06,,,0.93,VWS V14.01,2013-01-15 13:10:00,
2013-01-15 08:11:00,38.8,38.3,30.19,North,5,5.0,9.0,98,0.06,,,0.93,VWS V14.01,2013-01-15 13:11:00,
2013-01-15 08:12:00,38.8,38.3,30.20,North,10,6.0,7.0,98,0.06,, +RA,0.93,VWS V14.01,2013-01-15 13:12:00,
2013-01-15 08:13:00,38.8,38.3,30.20,North,10,6.0,6.0,98,0.06,,,0.93,VWS V14.01,2013-01-15 13:13:00,
2013-01-15 08:14:00,38.8,38.3,30.20,North,355,2.0,6.0,98,0.06,,,0.93,VWS V14.01,2013-01-15 13:14:00,
2013-01-15 08:15:00,38.8,38.3,30.20,NE,40,4.0,5.0,98,0.06,,,0.93,VWS V14.01,2013-01-15 13:15:00,
2013-01-15 08:16:00,38.8,38.3,30.20,NNE,24,4.0,9.0,98,0.06,,,0.93,VWS V14.01,2013-01-15 13:16:00,
2013-01-15 08:17:00,38.7,38.2,30.20,NNE,12,4.0,5.0,98,0.05,, +RA,0.93,VWS V14.01,2013-01-15 13:17:00,
2013-01-15 08:18:00,38.7,38.2,30.20,NNW,342,7.0,7.0,98,0.05,,,0.93,VWS V14.01,2013-01-15 13:18:00,
2013-01-15 08:19:00,38.7,38.2,30.20,NNE,13,5.0,7.0,98,0.05,,,0.93,VWS V14.01,2013-01-15 13:19:00,
2013-01-15 08:20:00,38.7,38.2,30.20,NNE,17,4.0,6.0,98,0.05,,,0.93,VWS V14.01,2013-01-15 13:20:00,
2013-01-15 08:21:00,38.7,38.2,30.20,NNE,26,5.0,7.0,98,0.05,,,0.93,VWS V14.01,2013-01-15 13:21:00,
2013-01-15 08:22:00,38.7,38.2,30.20,NE,36,4.0,5.0,98,0.05,,RA,0.93,VWS V14.01,2013-01-15 13:22:00,
2013-01-15 08:23:00,38.7,38.2,30.20,NE,36,2.0,4.0,98,0.05,,,0.93,VWS V14.01,2013-01-15 13:23:00,
2013-01-15 08:24:00,38.7,38.2,30.20,NE,44,5.0,6.0,98,0.05,,,0.93,VWS V14.01,2013-01-15 13:24:00,
2013-01-15 08:25:00,38.7,38.2,30.20,NNE,29,3.0,5.0,98,0.05,,,0.93,VWS V14.01,2013-01-15 13:25:00,
2013-01-15 08:26:00,38.7,38.2,30.20,North,5,4.0,7.0,98,0.05,,,0.93,VWS V14.01,2013-01-15 13:26:00,
2013-01-15 08:27:00,38.7,38.2,30.20,NE,48,4.0,5.0,98,0.05,,-RA,0.93,VWS V14.01,2013-01-15 13:27:00,
2013-01-15 08:28:00,38.7,38.2,30.19,ENE,59,6.0,9.0,98,0.05,,,0.93,VWS V14.01,2013-01-15 13:28:00,
2013-01-15 08:29:00,38.7,38.2,30.19,NNE,32,5.0,7.0,98,0.04,,,0.93,VWS V14.01,2013-01-15 13:29:00,
2013-01-15 08:30:00,38.6,38.1,30.19,NNE,32,1.0,6.0,98,0.04,,,0.93,VWS V14.01,2013-01-15 13:30:00,
2013-01-15 08:31:00,38.6,38.1,30.19,North,360,6.0,8.0,98,0.04,,,0.93,VWS V14.01,2013-01-15 13:31:00,
2013-01-15 08:32:00,38.6,38.1,30.19,NNE,24,2.0,6.0,98,0.04,,-RA,0.93,VWS V14.01,2013-01-15 13:32:00,
2013-01-15 08:33:00,38.6,38.1,30.19,NNE,24,1.0,4.0,98,0.04,,,0.93,VWS V14.01,2013-01-15 13:33:00,
2013-01-15 08:34:00,38.6,38.1,30.20,NNE,25,5.0,6.0,98,0.04,,,0.93,VWS V14.01,2013-01-15 13:34:00,
2013-01-15 08:35:00,38.6,38.1,30.20,North,360,5.0,8.0,98,0.04,,,0.93,VWS V14.01,2013-01-15 13:35:00,
2013-01-15 08:36:00,38.6,38.1,30.20,NNW,337,9.0,9.0,98,0.04,,,0.93,VWS V14.01,2013-01-15 13:36:00,
2013-01-15 08:37:00,38.6,38.1,30.20,NE,35,4.0,9.0,98,0.03,,-RA,0.93,VWS V14.01,2013-01-15 13:37:00,
2013-01-15 08:38:00,38.6,38.1,30.20,NNE,28,7.0,7.0,98,0.03,,,0.93,VWS V14.01,2013-01-15 13:38:00,
2013-01-15 08:39:00,38.6,38.1,30.21,NNW,345,2.0,7.0,98,0.03,,,0.93,VWS V14.01,2013-01-15 13:39:00,
2013-01-15 08:40:00,38.6,38.1,30.21,North,355,9.0,9.0,98,0.03,,,0.93,VWS V14.01,2013-01-15 13:40:00,
2013-01-15 08:41:00,38.6,38.1,30.21,North,5,5.0,9.0,98,0.02,,,0.93,VWS V14.01,2013-01-15 13:41:00,
2013-01-15 08:42:00,38.6,38.1,30.21,North,351,6.0,12.0,98,0.02,,-RA,0.93,VWS V14.01,2013-01-15 13:42:00,
2013-01-15 08:43:00,38.6,38.1,30.21,NNE,29,5.0,10.0,98,0.02,,,0.93,VWS V14.01,2013-01-15 13:43:00,
2013-01-15 08:44:00,38.6,38.1,30.21,NNE,15,6.0,9.0,98,0.02,,,0.93,VWS V14.01,2013-01-15 13:44:00,
2013-01-15 08:45:00,38.5,38.0,30.20,NNE,24,9.0,9.0,98,0.02,,,0.93,VWS V14.01,2013-01-15 13:45:00,
2013-01-15 08:46:00,38.5,38.0,30.20,NNE,19,6.0,9.0,98,0.02,,,0.93,VWS V14.01,2013-01-15 13:46:00,
2013-01-15 08:47:00,38.4,37.9,30.20,North,11,5.0,7.0,98,0.02,,-RA,0.93,VWS V14.01,2013-01-15 13:47:00,
2013-01-15 08:48:00,38.4,37.9,30.20,NE,56,5.0,7.0,98,0.02,,,0.93,VWS V14.01,2013-01-15 13:48:00,
2013-01-15 08:49:00,38.4,37.9,30.20,North,355,7.0,7.0,98,0.02,,,0.93,VWS V14.01,2013-01-15 13:49:00,
2013-01-15 08:50:00,38.4,37.9,30.20,NE,49,7.0,12.0,98,0.02,,,0.93,VWS V14.01,2013-01-15 13:50:00,
2013-01-15 08:51:00,38.4,37.9,30.20,NE,51,6.0,7.0,98,0.02,,,0.93,VWS V14.01,2013-01-15 13:51:00,
2013-01-15 08:52:00,38.4,37.9,30.20,North,355,7.0,11.0,98,0.02,,-RA,0.93,VWS V14.01,2013-01-15 13:52:00,
2013-01-15 08:53:00,38.4,37.9,30.20,North,355,6.0,7.0,98,0.02,,,0.93,VWS V14.01,2013-01-15 13:53:00,
2013-01-15 08:54:00,38.4,37.9,30.21,NE,36,5.0,9.0,98,0.01,,,0.93,VWS V14.01,2013-01-15 13:54:00,
2013-01-15 08:55:00,38.4,37.9,30.21,North,355,7.0,8.0,98,0.01,,,0.93,VWS V14.01,2013-01-15 13:55:00,
2013-01-15 08:56:00,38.4,37.9,30.21,North,11,4.0,8.0,98,0.01,,,0.93,VWS V14.01,2013-01-15 13:56:00,
2013-01-15 08:57:00,38.4,37.9,30.21,North,355,8.0,10.0,98,0.01,,-RA,0.93,VWS V14.01,2013-01-15 13:57:00,
2013-01-15 08:58:00,38.4,37.9,30.21,NNE,19,6.0,9.0,98,0.01,,,0.93,VWS V14.01,2013-01-15 13:58:00,
2013-01-15 08:59:00,38.4,37.9,30.21,NNW,348,7.0,7.0,98,0.01,,,0.93,VWS V14.01,2013-01-15 13:59:00,
2013-01-15 09:00:00,38.4,37.9,30.21,North,355,4.0,7.0,98,0.01,,,0.93,VWS V14.01,2013-01-15 14:00:00,
2013-01-15 09:01:00,38.4,37.9,30.21,NE,34,2.0,6.0,98,0.01,,,0.93,VWS V14.01,2013-01-15 14:01:00,
2013-01-15 09:02:00,38.4,37.9,30.21,NNE,19,5.0,5.0,98,0.01,,-RA,0.93,VWS V14.01,2013-01-15 14:02:00,
2013-01-15 09:03:00,38.4,37.9,30.21,NNE,13,2.0,6.0,98,0.01,,,0.93,VWS V14.01,2013-01-15 14:03:00,
2013-01-15 09:04:00,38.4,37.9,30.21,North,5,3.0,6.0,98,0.00,,,0.93,VWS V14.01,2013-01-15 14:04:00,
2013-01-15 09:05:00,38.4,37.9,30.21,North,5,2.0,4.0,98,0.00,,,0.93,VWS V14.01,2013-01-15 14:05:00,
2013-01-15 09:06:00,38.4,37.9,30.21,North,5,5.0,7.0,98,0.00,,,0.93,VWS V14.01,2013-01-15 14:06:00,
2013-01-15 09:07:00,38.4,37.9,30.21,NNE,14,4.0,5.0,98,0.00,,-RA,0.93,VWS V14.01,2013-01-15 14:07:00,
2013-01-15 09:08:00,38.4,37.9,30.21,North,360,2.0,6.0,98,0.00,,,0.93,VWS V14.01,2013-01-15 14:08:00,
2013-01-15 09:09:00,38.4,37.9,30.20,North,9,5.0,6.0,98,0.00,,,0.93,VWS V14.01,2013-01-15 14:09:00,
2013-01-15 09:10:00,38.4,37.9,30.20,NNE,22,4.0,5.0,98,0.00,,,0.93,VWS V14.01,2013-01-15 14:10:00,
2013-01-15 09:11:00,38.4,37.9,30.20,NNE,18,5.0,5.0,98,0.00,,,0.93,VWS V14.01,2013-01-15 14:11:00,
2013-01-15 09:12:00,38.4,37.9,30.20,NNE,26,4.0,7.0,98,0.00,,-RA,0.93,VWS V14.01,2013-01-15 14:12:00,
2013-01-15 09:13:00,38.4,37.9,30.20,ENE,57,2.0,8.0,98,0.00,,,0.93,VWS V14.01,2013-01-15 14:13:00,
2013-01-15 09:14:00,38.4,37.9,30.20,NE,47,5.0,6.0,98,0.00,,,0.93,VWS V14.01,2013-01-15 14:14:00,
2013-01-15 09:15:00,38.4,37.9,30.20,NNE,21,7.0,7.0,98,0.00,,,0.93,VWS V14.01,2013-01-15 14:15:00,
2013-01-15 09:16:00,38.4,37.9,30.20,North,360,5.0,7.0,98,0.00,,,0.93,VWS V14.01,2013-01-15 14:16:00,
2013-01-15 09:17:00,38.4,37.9,30.20,NNE,15,3.0,7.0,98,0.00,,-RA,0.93,VWS V14.01,2013-01-15 14:17:00,
2013-01-15 09:18:00,38.4,37.9,30.20,ENE,59,2.0,5.0,98,0.00,,,0.93,VWS V14.01,2013-01-15 14:18:00,
2013-01-15 09:19:00,38.4,37.9,30.20,NNE,13,5.0,7.0,98,0.00,,,0.93,VWS V14.01,2013-01-15 14:19:00,
2013-01-15 09:20:00,38.4,37.9,30.20,NE,38,5.0,5.0,98,0.00,,,0.93,VWS V14.01,2013-01-15 14:20:00,
2013-01-15 09:21:00,38.4,37.9,30.20,NE,35,2.0,6.0,98,0.00,,,0.93,VWS V14.01,2013-01-15 14:21:00,
2013-01-15 09:22:00,38.4,37.9,30.20,ENE,61,4.0,7.0,98,0.00,,-RA,0.93,VWS V14.01,2013-01-15 14:22:00,
2013-01-15 09:23:00,38.4,37.9,30.20,NNE,27,5.0,6.0,98,0.00,,,0.93,VWS V14.01,2013-01-15 14:23:00,
2013-01-15 09:24:00,38.4,37.9,30.20,ENE,76,5.0,6.0,98,0.00,,,0.93,VWS V14.01,2013-01-15 14:24:00,
2013-01-15 09:25:00,38.4,37.9,30.20,NNE,28,3.0,5.0,98,0.01,,,0.94,VWS V14.01,2013-01-15 14:25:00,
2013-01-15 09:26:00,38.4,37.9,30.20,North,5,5.0,6.0,98,0.01,,,0.94,VWS V14.01,2013-01-15 14:26:00,
2013-01-15 09:27:00,38.4,37.9,30.20,NNE,20,6.0,8.0,98,0.01,,-RA,0.94,VWS V14.01,2013-01-15 14:27:00,
2013-01-15 09:28:00,38.4,37.9,30.20,North,5,6.0,7.0,98,0.01,,,0.94,VWS V14.01,2013-01-15 14:28:00,
2013-01-15 09:29:00,38.4,37.9,30.20,NNW,345,5.0,7.0,98,0.01,,,0.94,VWS V14.01,2013-01-15 14:29:00,
2013-01-15 09:30:00,38.4,37.9,30.20,NE,51,6.0,7.0,98,0.01,,,0.94,VWS V14.01,2013-01-15 14:30:00,
2013-01-15 09:31:00,38.4,37.9,30.20,ENE,66,3.0,7.0,98,0.01,,,0.94,VWS V14.01,2013-01-15 14:31:00,
2013-01-15 09:32:00,38.4,37.9,30.20,North,5,7.0,8.0,98,0.01,,-RA,0.94,VWS V14.01,2013-01-15 14:32:00,
2013-01-15 09:33:00,38.4,37.9,30.19,NE,43,4.0,10.0,98,0.01,,,0.94,VWS V14.01,2013-01-15 14:33:00,
2013-01-15 09:34:00,38.4,37.9,30.19,NNE,31,7.0,9.0,98,0.01,,,0.94,VWS V14.01,2013-01-15 14:34:00,
2013-01-15 09:35:00,38.4,37.9,30.20,NE,53,3.0,8.0,98,0.01,,,0.94,VWS V14.01,2013-01-15 14:35:00,
2013-01-15 09:36:00,38.4,37.9,30.20,NE,53,5.0,6.0,98,0.01,,,0.94,VWS V14.01,2013-01-15 14:36:00,
2013-01-15 09:37:00,38.4,37.9,30.20,NE,38,6.0,9.0,98,0.01,,-RA,0.94,VWS V14.01,2013-01-15 14:37:00,
2013-01-15 09:38:00,38.4,37.9,30.20,ENE,69,5.0,6.0,98,0.01,,,0.94,VWS V14.01,2013-01-15 14:38:00,
2013-01-15 09:39:00,38.4,37.9,30.20,NE,42,4.0,6.0,98,0.01,,,0.94,VWS V14.01,2013-01-15 14:39:00,
2013-01-15 09:40:00,38.4,37.9,30.20,NNE,31,4.0,8.0,98,0.01,,,0.94,VWS V14.01,2013-01-15 14:40:00,
2013-01-15 09:41:00,38.4,37.9,30.20,NE,40,8.0,9.0,98,0.01,,,0.94,VWS V14.01,2013-01-15 14:41:00,
2013-01-15 09:42:00,38.4,37.9,30.20,NE,38,6.0,10.0,98,0.01,,-RA,0.94,VWS V14.01,2013-01-15 14:42:00,
2013-01-15 09:43:00,38.4,37.9,30.20,NE,40,5.0,6.0,98,0.01,,,0.94,VWS V14.01,2013-01-15 14:43:00,
2013-01-15 09:44:00,38.4,37.9,30.20,NE,43,4.0,5.0,98,0.01,,,0.94,VWS V14.01,2013-01-15 14:44:00,
2013-01-15 09:45:00,38.4,37.9,30.20,NNE,19,7.0,7.0,98,0.01,,,0.94,VWS V14.01,2013-01-15 14:45:00,
2013-01-15 09:46:00,38.4,37.9,30.20,NNE,27,4.0,9.0,98,0.01,,,0.94,VWS V14.01,2013-01-15 14:46:00,
2013-01-15 09:47:00,38.4,37.9,30.20,NE,49,4.0,7.0,98,0.01,,-RA,0.94,VWS V14.01,2013-01-15 14:47:00,
2013-01-15 09:48:00,38.5,38.0,30.20,NNE,28,6.0,7.0,98,0.01,,,0.94,VWS V14.01,2013-01-15 14:48:00,
2013-01-15 09:50:00,38.5,38.0,30.20,NNE,23,6.0,10.0,98,0.01,,,0.94,VWS V14.01,2013-01-15 14:50:00,
2013-01-15 09:51:00,38.5,38.0,30.20,NNE,27,4.0,7.0,98,0.01,,,0.94,VWS V14.01,2013-01-15 14:51:00,
2013-01-15 09:52:00,38.5,38.0,30.20,North,360,5.0,5.0,98,0.01,,-RA,0.94,VWS V14.01,2013-01-15 14:52:00,
2013-01-15 09:53:00,38.5,38.0,30.20,ENE,58,6.0,6.0,98,0.01,,,0.94,VWS V14.01,2013-01-15 14:53:00,
2013-01-15 09:54:00,38.6,38.1,30.20,NNE,29,6.0,6.0,98,0.01,,,0.94,VWS V14.01,2013-01-15 14:54:00,
2013-01-15 09:55:00,38.6,38.1,30.20,NNE,31,4.0,7.0,98,0.01,,,0.94,VWS V14.01,2013-01-15 14:55:00,
2013-01-15 09:56:00,38.6,38.1,30.20,North,11,2.0,6.0,98,0.01,,,0.94,VWS V14.01,2013-01-15 14:56:00,
2013-01-15 09:57:00,38.6,38.1,30.20,NNE,17,2.0,4.0,98,0.01,,-RA,0.94,VWS V14.01,2013-01-15 14:57:00,
2013-01-15 09:58:00,38.6,38.1,30.20,ENE,57,4.0,6.0,98,0.01,,,0.94,VWS V14.01,2013-01-15 14:58:00,
2013-01-15 09:59:00,38.6,38.1,30.20,NE,53,2.0,5.0,98,0.01,,,0.94,VWS V14.01,2013-01-15 14:59:00,
2013-01-15 10:00:00,38.6,38.1,30.20,ENE,60,2.0,4.0,98,0.01,,,0.94,VWS V14.01,2013-01-15 15:00:00,
2013-01-15 10:01:00,38.6,38.1,30.20,NE,40,2.0,5.0,98,0.01,,,0.94,VWS V14.01,2013-01-15 15:01:00,
2013-01-15 10:02:00,38.7,38.2,30.20,NE,36,2.0,5.0,98,0.01,,-RA,0.94,VWS V14.01,2013-01-15 15:02:00,
2013-01-15 10:03:00,38.7,38.2,30.20,NNE,26,1.0,5.0,98,0.01,,,0.94,VWS V14.01,2013-01-15 15:03:00,
2013-01-15 10:04:00,38.7,38.2,30.20,ENE,67,5.0,6.0,98,0.01,,,0.94,VWS V14.01,2013-01-15 15:04:00,
2013-01-15 10:05:00,38.7,38.2,30.20,North,360,5.0,7.0,98,0.01,,,0.94,VWS V14.01,2013-01-15 15:05:00,
2013-01-15 10:06:00,38.7,38.2,30.20,North,5,4.0,5.0,98,0.01,,,0.94,VWS V14.01,2013-01-15 15:06:00,
2013-01-15 10:07:00,38.7,38.2,30.20,NNE,19,4.0,5.0,98,0.01,,-RA,0.94,VWS V14.01,2013-01-15 15:07:00,
2013-01-15 10:08:00,38.7,38.2,30.20,NNE,28,5.0,5.0,98,0.01,,,0.94,VWS V14.01,2013-01-15 15:08:00,
2013-01-15 10:09:00,38.7,38.2,30.20,NNE,17,3.0,5.0,98,0.01,,,0.94,VWS V14.01,2013-01-15 15:09:00,
2013-01-15 10:10:00,38.8,38.3,30.20,NNE,28,5.0,7.0,98,0.01,,,0.94,VWS V14.01,2013-01-15 15:10:00,
2013-01-15 10:11:00,38.8,38.3,30.20,NNE,32,3.0,7.0,98,0.01,,,0.94,VWS V14.01,2013-01-15 15:11:00,
2013-01-15 10:12:00,38.7,38.2,30.19,NE,36,2.0,7.0,98,0.01,,-RA,0.94,VWS V14.01,2013-01-15 15:12:00,
2013-01-15 10:13:00,38.7,38.2,30.20,NNE,13,7.0,8.0,98,0.01,,,0.94,VWS V14.01,2013-01-15 15:13:00,
2013-01-15 10:14:00,38.8,38.3,30.20,East,84,5.0,7.0,98,0.01,,,0.94,VWS V14.01,2013-01-15 15:14:00,
2013-01-15 10:15:00,38.8,38.3,30.20,NNE,19,4.0,5.0,98,0.01,,,0.94,VWS V14.01,2013-01-15 15:15:00,
2013-01-15 10:16:00,38.7,38.2,30.20,ENE,59,8.0,8.0,98,0.01,,,0.94,VWS V14.01,2013-01-15 15:16:00,
2013-01-15 10:17:00,38.7,38.2,30.20,NNE,27,7.0,8.0,98,0.01,,-RA,0.94,VWS V14.01,2013-01-15 15:17:00,
2013-01-15 10:18:00,38.7,38.2,30.20,NNE,30,4.0,7.0,98,0.01,,,0.94,VWS V14.01,2013-01-15 15:18:00,
2013-01-15 10:19:00,38.7,38.2,30.20,NE,54,9.0,9.0,98,0.01,,,0.94,VWS V14.01,2013-01-15 15:19:00,
2013-01-15 10:20:00,38.7,38.2,30.20,NNE,28,4.0,9.0,98,0.01,,,0.94,VWS V14.01,2013-01-15 15:20:00,
2013-01-15 10:21:00,38.7,38.2,30.20,NNE,27,2.0,5.0,98,0.01,,,0.94,VWS V14.01,2013-01-15 15:21:00,
2013-01-15 10:22:00,38.7,38.2,30.20,NNE,28,6.0,8.0,98,0.01,,-RA,0.94,VWS V14.01,2013-01-15 15:22:00,
2013-01-15 10:23:00,38.7,38.2,30.20,NNE,14,2.0,6.0,98,0.01,,,0.94,VWS V14.01,2013-01-15 15:23:00,
2013-01-15 10:24:00,38.7,38.2,30.20,NNE,19,5.0,6.0,98,0.01,,,0.94,VWS V14.01,2013-01-15 15:24:00,
2013-01-15 10:25:00,38.8,38.3,30.20,NNE,27,2.0,7.0,98,0.01,,,0.94,VWS V14.01,2013-01-15 15:25:00,
2013-01-15 10:26:00,38.7,38.2,30.20,North,355,5.0,7.0,98,0.00,,,0.94,VWS V14.01,2013-01-15 15:26:00,
2013-01-15 10:27:00,38.7,38.2,30.20,ENE,71,4.0,7.0,98,0.00,,-RA,0.94,VWS V14.01,2013-01-15 15:27:00,
2013-01-15 10:28:00,38.7,38.2,30.20,ENE,59,2.0,4.0,98,0.00,,,0.94,VWS V14.01,2013-01-15 15:28:00,
2013-01-15 10:29:00,38.7,38.2,30.20,NE,40,4.0,6.0,98,0.00,,,0.94,VWS V14.01,2013-01-15 15:29:00,
2013-01-15 10:30:00,38.8,38.3,30.20,NE,42,4.0,5.0,98,0.00,,,0.94,VWS V14.01,2013-01-15 15:30:00,
2013-01-15 10:31:00,38.7,38.2,30.20,ESE,115,5.0,5.0,98,0.00,,,0.94,VWS V14.01,2013-01-15 15:31:00,
2013-01-15 10:32:00,38.7,38.2,30.19,East,88,1.0,5.0,98,0.00,,-RA,0.94,VWS V14.01,2013-01-15 15:32:00,
2013-01-15 10:33:00,38.7,38.2,30.19,ENE,61,5.0,7.0,98,0.00,,,0.94,VWS V14.01,2013-01-15 15:33:00,
2013-01-15 10:34:00,38.8,38.3,30.19,NE,47,5.0,5.0,98,0.00,,,0.94,VWS V14.01,2013-01-15 15:34:00,
2013-01-15 10:35:00,38.8,38.3,30.19,ENE,67,5.0,5.0,98,0.00,,,0.94,VWS V14.01,2013-01-15 15:35:00,
2013-01-15 10:36:00,38.8,38.3,30.19,ENE,60,6.0,6.0,98,0.00,,,0.94,VWS V14.01,2013-01-15 15:36:00,
2013-01-15 10:37:00,38.8,38.3,30.18,ESE,112,6.0,7.0,98,0.00,,-RA,0.94,VWS V14.01,2013-01-15 15:37:00,
2013-01-15 10:38:00,38.8,38.3,30.18,ENE,67,3.0,10.0,98,0.00,,,0.94,VWS V14.01,2013-01-15 15:38:00,
2013-01-15 10:39:00,38.9,38.4,30.18,NE,56,5.0,5.0,98,0.00,,,0.94,VWS V14.01,2013-01-15 15:39:00,
2013-01-15 10:40:00,38.9,38.4,30.17,NE,56,5.0,5.0,98,0.01,,,0.95,VWS V14.01,2013-01-15 15:40:00,
2013-01-15 10:41:00,38.9,38.4,30.17,ENE,61,4.0,7.0,98,0.01,,,0.95,VWS V14.01,2013-01-15 15:41:00,
2013-01-15 10:42:00,38.9,38.4,30.18,ENE,65,4.0,7.0,98,0.01,,-RA,0.95,VWS V14.01,2013-01-15 15:42:00,
2013-01-15 10:43:00,38.9,38.4,30.18,ENE,66,7.0,7.0,98,0.01,,,0.95,VWS V14.01,2013-01-15 15:43:00,
2013-01-15 10:44:00,38.9,38.4,30.17,NE,53,3.0,8.0,98,0.01,,,0.95,VWS V14.01,2013-01-15 15:44:00,
2013-01-15 10:45:00,38.9,38.4,30.17,ENE,58,6.0,8.0,98,0.01,,,0.95,VWS V14.01,2013-01-15 15:45:00,
2013-01-15 10:46:00,38.9,38.4,30.17,ENE,64,3.0,7.0,98,0.01,,,0.95,VWS V14.01,2013-01-15 15:46:00,
2013-01-15 10:47:00,38.9,38.4,30.17,NNE,13,5.0,6.0,98,0.01,,-RA,0.95,VWS V14.01,2013-01-15 15:47:00,
2013-01-15 10:48:00,38.9,38.4,30.17,East,95,4.0,8.0,98,0.01,,,0.95,VWS V14.01,2013-01-15 15:48:00,
2013-01-15 10:49:00,39.0,38.5,30.17,ENE,74,4.0,7.0,98,0.01,,,0.95,VWS V14.01,2013-01-15 15:49:00,
2013-01-15 10:50:00,39.0,38.5,30.17,East,92,2.0,4.0,98,0.01,,,0.95,VWS V14.01,2013-01-15 15:50:00,
2013-01-15 10:51:00,39.0,38.5,30.17,SE,128,5.0,5.0,98,0.01,,,0.95,VWS V14.01,2013-01-15 15:51:00,
2013-01-15 10:52:00,39.0,38.5,30.17,ENE,69,4.0,5.0,98,0.01,,-RA,0.95,VWS V14.01,2013-01-15 15:52:00,
2013-01-15 10:53:00,39.0,38.5,30.16,East,94,5.0,6.0,98,0.01,,,0.95,VWS V14.01,2013-01-15 15:53:00,
2013-01-15 10:54:00,39.0,38.5,30.17,NE,44,2.0,6.0,98,0.01,,,0.95,VWS V14.01,2013-01-15 15:54:00,
2013-01-15 10:55:00,39.1,38.6,30.16,NE,53,5.0,6.0,98,0.01,,,0.95,VWS V14.01,2013-01-15 15:55:00,
2013-01-15 10:56:00,39.1,38.6,30.16,ENE,59,2.0,5.0,98,0.01,,,0.95,VWS V14.01,2013-01-15 15:56:00,
2013-01-15 10:57:00,39.1,38.6,30.16,NE,56,6.0,9.0,98,0.01,,-RA,0.95,VWS V14.01,2013-01-15 15:57:00,
2013-01-15 10:58:00,39.1,38.6,30.16,NE,56,1.0,7.0,98,0.01,,,0.95,VWS V14.01,2013-01-15 15:58:00,
2013-01-15 10:59:00,39.1,38.6,30.17,ENE,63,6.0,6.0,98,0.01,,,0.95,VWS V14.01,2013-01-15 15:59:00,
2013-01-15 11:00:00,39.1,38.6,30.17,ENE,76,4.0,6.0,98,0.01,,,0.95,VWS V14.01,2013-01-15 16:00:00,
2013-01-15 11:01:00,39.2,38.7,30.17,ENE,75,1.0,4.0,98,0.02,,,0.96,VWS V14.01,2013-01-15 16:01:00,
2013-01-15 11:02:00,39.2,38.7,30.17,ENE,75,2.0,4.0,98,0.02,,-RA,0.96,VWS V14.01,2013-01-15 16:02:00,
2013-01-15 11:03:00,39.2,38.7,30.17,ENE,77,4.0,5.0,98,0.02,,,0.96,VWS V14.01,2013-01-15 16:03:00,
2013-01-15 11:04:00,39.3,38.8,30.16,NNE,32,4.0,6.0,98,0.02,,,0.96,VWS V14.01,2013-01-15 16:04:00,
2013-01-15 11:05:00,39.3,38.8,30.16,NNE,26,7.0,8.0,98,0.02,,,0.96,VWS V14.01,2013-01-15 16:05:00,
2013-01-15 11:06:00,39.4,38.9,30.16,NE,52,3.0,8.0,98,0.02,,,0.96,VWS V14.01,2013-01-15 16:06:00,
2013-01-15 11:07:00,39.4,38.9,30.16,NNE,25,7.0,7.0,98,0.02,,-RA,0.96,VWS V14.01,2013-01-15 16:07:00,
2013-01-15 11:08:00,39.5,39.0,30.16,ENE,73,5.0,8.0,98,0.02,,,0.96,VWS V14.01,2013-01-15 16:08:00,
2013-01-15 11:09:00,39.5,39.0,30.16,NE,37,2.0,7.0,98,0.02,,,0.96,VWS V14.01,2013-01-15 16:09:00,
2013-01-15 11:10:00,39.5,39.0,30.16,NE,38,5.0,6.0,98,0.02,,,0.96,VWS V14.01,2013-01-15 16:10:00,
2013-01-15 11:11:00,39.5,39.0,30.17,NNE,12,4.0,7.0,98,0.03,,,0.97,VWS V14.01,2013-01-15 16:11:00,
2013-01-15 11:12:00,39.5,39.0,30.17,NNE,26,2.0,6.0,98,0.03,,RA,0.97,VWS V14.01,2013-01-15 16:12:00,
2013-01-15 11:13:00,39.5,39.0,30.17,NE,46,5.0,5.0,98,0.03,,,0.97,VWS V14.01,2013-01-15 16:13:00,
2013-01-15 11:14:00,39.5,39.0,30.17,NNE,12,6.0,9.0,98,0.03,,,0.97,VWS V14.01,2013-01-15 16:14:00,
2013-01-15 11:15:00,39.5,39.0,30.17,North,360,5.0,6.0,98,0.03,,,0.97,VWS V14.01,2013-01-15 16:15:00,
2013-01-15 11:16:00,39.5,39.0,30.17,ENE,65,6.0,6.0,98,0.03,,,0.97,VWS V14.01,2013-01-15 16:16:00,
2013-01-15 11:17:00,39.6,39.1,30.16,NE,49,4.0,6.0,98,0.03,,RA,0.97,VWS V14.01,2013-01-15 16:17:00,
2013-01-15 11:18:00,39.6,39.1,30.16,NE,48,5.0,5.0,98,0.03,,,0.97,VWS V14.01,2013-01-15 16:18:00,
2013-01-15 11:19:00,39.6,39.1,30.16,North,5,4.0,6.0,98,0.03,,,0.97,VWS V14.01,2013-01-15 16:19:00,
2013-01-15 11:20:00,39.6,39.1,30.16,NNE,33,4.0,5.0,98,0.03,,,0.97,VWS V14.01,2013-01-15 16:20:00,
2013-01-15 11:21:00,39.6,39.1,30.16,NNE,15,4.0,7.0,98,0.03,,,0.97,VWS V14.01,2013-01-15 16:21:00,
2013-01-15 11:22:00,39.6,39.1,30.16,ENE,63,7.0,7.0,98,0.03,,RA,0.97,VWS V14.01,2013-01-15 16:22:00,
2013-01-15 11:23:00,39.7,39.2,30.16,ENE,60,6.0,7.0,98,0.03,,,0.97,VWS V14.01,2013-01-15 16:23:00,
2013-01-15 11:24:00,39.7,39.2,30.16,NNE,32,5.0,7.0,98,0.03,,,0.97,VWS V14.01,2013-01-15 16:24:00,
2013-01-15 11:25:00,39.7,39.2,30.16,NNE,13,5.0,5.0,98,0.03,,,0.97,VWS V14.01,2013-01-15 16:25:00,
2013-01-15 11:26:00,39.7,39.2,30.16,NE,49,5.0,6.0,98,0.03,,,0.97,VWS V14.01,2013-01-15 16:26:00,
2013-01-15 11:27:00,39.7,39.2,30.16,North,360,5.0,6.0,98,0.03,,RA,0.97,VWS V14.01,2013-01-15 16:27:00,
2013-01-15 11:28:00,39.7,39.2,30.16,North,360,4.0,6.0,98,0.03,,,0.97,VWS V14.01,2013-01-15 16:28:00,
2013-01-15 11:29:00,39.7,39.2,30.16,NNE,13,3.0,5.0,98,0.03,,,0.97,VWS V14.01,2013-01-15 16:29:00,
2013-01-15 11:30:00,39.7,39.2,30.16,NE,36,5.0,6.0,98,0.03,,,0.97,VWS V14.01,2013-01-15 16:30:00,
2013-01-15 11:31:00,39.8,39.3,30.16,NE,44,3.0,6.0,98,0.03,,,0.97,VWS V14.01,2013-01-15 16:31:00,
2013-01-15 11:32:00,39.8,39.3,30.16,NNE,30,5.0,5.0,98,0.03,,-RA,0.97,VWS V14.01,2013-01-15 16:32:00,
2013-01-15 11:33:00,39.8,39.3,30.16,NE,40,2.0,5.0,98,0.03,,,0.97,VWS V14.01,2013-01-15 16:33:00,
2013-01-15 11:34:00,39.8,39.3,30.16,NNE,22,3.0,5.0,98,0.03,,,0.97,VWS V14.01,2013-01-15 16:34:00,
2013-01-15 11:35:00,39.8,39.3,30.16,NNE,17,2.0,4.0,98,0.03,,,0.97,VWS V14.01,2013-01-15 16:35:00,
2013-01-15 11:36:00,39.8,39.3,30.16,NNE,27,5.0,7.0,98,0.03,,,0.97,VWS V14.01,2013-01-15 16:36:00,
2013-01-15 11:37:00,39.8,39.3,30.16,North,10,7.0,7.0,98,0.04,,-RA,0.98,VWS V14.01,2013-01-15 16:37:00,
2013-01-15 11:38:00,39.8,39.3,30.16,North,355,4.0,7.0,98,0.04,,,0.98,VWS V14.01,2013-01-15 16:38:00,
2013-01-15 11:39:00,39.9,39.4,30.16,NE,38,5.0,6.0,98,0.04,,,0.98,VWS V14.01,2013-01-15 16:39:00,
2013-01-15 11:40:00,39.9,39.4,30.16,NNE,18,1.0,5.0,98,0.04,,,0.98,VWS V14.01,2013-01-15 16:40:00,
2013-01-15 11:41:00,39.9,39.4,30.16,North,5,2.0,6.0,98,0.03,,,0.98,VWS V14.01,2013-01-15 16:41:00,
2013-01-15 11:42:00,39.9,39.4,30.16,North,360,4.0,5.0,98,0.03,,-RA,0.98,VWS V14.01,2013-01-15 16:42:00,
2013-01-15 11:43:00,39.9,39.4,30.15,North,10,4.0,6.0,98,0.03,,,0.98,VWS V14.01,2013-01-15 16:43:00,
2013-01-15 11:44:00,39.9,39.4,30.15,NNE,13,4.0,5.0,98,0.03,,,0.98,VWS V14.01,2013-01-15 16:44:00,
2013-01-15 11:45:00,39.9,39.4,30.15,North,10,3.0,6.0,98,0.04,,,0.99,VWS V14.01,2013-01-15 16:45:00,
2013-01-15 11:46:00,39.9,39.4,30.15,NNE,19,1.0,5.0,98,0.04,,,0.99,VWS V14.01,2013-01-15 16:46:00,
2013-01-15 11:47:00,39.9,39.4,30.15,NE,46,4.0,5.0,98,0.04,,-RA,0.99,VWS V14.01,2013-01-15 16:47:00,
2013-01-15 11:48:00,39.9,39.4,30.15,ENE,57,5.0,7.0,98,0.04,,,0.99,VWS V14.01,2013-01-15 16:48:00,
2013-01-15 11:49:00,39.9,39.4,30.15,NNE,28,6.0,8.0,98,0.04,,,0.99,VWS V14.01,2013-01-15 16:49:00,
2013-01-15 11:50:00,39.9,39.4,30.15,North,11,2.0,6.0,98,0.04,,,0.99,VWS V14.01,2013-01-15 16:50:00,
2013-01-15 11:51:00,39.9,39.4,30.14,NE,46,5.0,5.0,98,0.04,,,0.99,VWS V14.01,2013-01-15 16:51:00,
2013-01-15 11:52:00,39.9,39.4,30.15,NNW,338,3.0,5.0,98,0.04,,-RA,0.99,VWS V14.01,2013-01-15 16:52:00,
2013-01-15 11:53:00,39.9,39.4,30.15,NNE,19,4.0,6.0,98,0.04,,,0.99,VWS V14.01,2013-01-15 16:53:00,
2013-01-15 11:54:00,39.9,39.4,30.15,NNE,25,5.0,7.0,98,0.05,,,1.00,VWS V14.01,2013-01-15 16:54:00,
2013-01-15 11:56:00,39.9,39.4,30.15,NE,38,7.0,7.0,98,0.05,,,1.00,VWS V14.01,2013-01-15 16:56:00,
2013-01-15 11:57:00,39.9,39.4,30.15,North,11,5.0,7.0,98,0.05,,RA,1.00,VWS V14.01,2013-01-15 16:57:00,
2013-01-15 11:58:00,39.9,39.4,30.15,North,11,6.0,7.0,98,0.06,,,1.01,VWS V14.01,2013-01-15 16:58:00,
2013-01-15 11:59:00,39.9,39.4,30.15,NNE,24,4.0,8.0,98,0.06,,,1.01,VWS V14.01,2013-01-15 16:59:00,
2013-01-15 12:00:00,39.9,39.4,30.15,North,355,5.0,8.0,98,0.06,,,1.01,VWS V14.01,2013-01-15 17:00:00,
2013-01-15 12:01:00,39.9,39.4,30.14,North,360,5.0,8.0,98,0.06,,,1.01,VWS V14.01,2013-01-15 17:01:00,
2013-01-15 12:02:00,39.9,39.4,30.14,North,5,2.0,5.0,98,0.05,,RA,1.01,VWS V14.01,2013-01-15 17:02:00,
2013-01-15 12:03:00,40.0,39.5,30.14,NNE,30,4.0,5.0,98,0.06,,,1.02,VWS V14.01,2013-01-15 17:03:00,
2013-01-15 12:04:00,40.0,39.5,30.14,ENE,64,3.0,5.0,98,0.06,,,1.02,VWS V14.01,2013-01-15 17:04:00,
2013-01-15 12:05:00,40.0,39.5,30.13,ENE,60,7.0,8.0,98,0.07,,,1.03,VWS V14.01,2013-01-15 17:05:00,
2013-01-15 12:06:00,40.0,39.5,30.13,NE,38,6.0,9.0,98,0.07,,,1.03,VWS V14.01,2013-01-15 17:06:00,
2013-01-15 12:07:00,40.0,39.5,30.12,ENE,76,3.0,6.0,98,0.07,,RA,1.03,VWS V14.01,2013-01-15 17:07:00,
2013-01-15 12:08:00,40.0,39.5,30.12,NE,34,4.0,5.0,98,0.07,,,1.03,VWS V14.01,2013-01-15 17:08:00,
2013-01-15 12:09:00,40.1,39.6,30.12,NE,34,4.0,4.0,98,0.07,,,1.03,VWS V14.01,2013-01-15 17:09:00,
2013-01-15 12:10:00,40.1,39.6,30.12,ENE,65,3.0,4.0,98,0.07,,,1.03,VWS V14.01,2013-01-15 17:10:00,
2013-01-15 12:11:00,40.1,39.6,30.12,NNE,28,4.0,7.0,98,0.08,,,1.04,VWS V14.01,2013-01-15 17:11:00,
2013-01-15 12:12:00,40.1,39.6,30.12,NE,46,4.0,6.0,98,0.07,, +RA,1.04,VWS V14.01,2013-01-15 17:12:00,
2013-01-15 12:13:00,40.2,39.7,30.12,ENE,65,2.0,5.0,98,0.07,,,1.04,VWS V14.01,2013-01-15 17:13:00,
2013-01-15 12:14:00,40.2,39.7,30.12,NE,52,8.0,8.0,98,0.07,,,1.04,VWS V14.01,2013-01-15 17:14:00,
2013-01-15 12:15:00,40.2,39.7,30.11,NE,51,5.0,8.0,98,0.07,,,1.04,VWS V14.01,2013-01-15 17:15:00,
2013-01-15 12:16:00,40.2,39.7,30.11,NNE,19,5.0,7.0,98,0.08,,,1.05,VWS V14.01,2013-01-15 17:16:00,
2013-01-15 12:17:00,40.2,39.7,30.11,ENE,57,9.0,9.0,98,0.08,, +RA,1.05,VWS V14.01,2013-01-15 17:17:00,
2013-01-15 12:18:00,40.2,39.7,30.11,ENE,69,4.0,9.0,98,0.08,,,1.05,VWS V14.01,2013-01-15 17:18:00,
2013-01-15 12:19:00,40.2,39.7,30.11,NNE,17,6.0,6.0,98,0.08,,,1.05,VWS V14.01,2013-01-15 17:19:00,
2013-01-15 12:20:00,40.2,39.7,30.11,NE,43,7.0,8.0,98,0.08,,,1.05,VWS V14.01,2013-01-15 17:20:00,
2013-01-15 12:21:00,40.2,39.7,30.11,ENE,74,7.0,8.0,98,0.08,,,1.05,VWS V14.01,2013-01-15 17:21:00,
2013-01-15 12:22:00,40.3,39.8,30.11,NE,53,8.0,8.0,98,0.08,, +RA,1.05,VWS V14.01,2013-01-15 17:22:00,
2013-01-15 12:23:00,40.3,39.8,30.11,NE,40,9.0,9.0,98,0.08,,,1.05,VWS V14.01,2013-01-15 17:23:00,
2013-01-15 12:24:00,40.3,39.8,30.10,NE,42,7.0,9.0,98,0.08,,,1.05,VWS V14.01,2013-01-15 17:24:00,
2013-01-15 12:25:00,40.3,39.8,30.10,ENE,66,3.0,7.0,98,0.08,,,1.05,VWS V14.01,2013-01-15 17:25:00,
2013-01-15 12:26:00,40.4,39.9,30.10,North,5,8.0,8.0,98,0.08,,,1.05,VWS V14.01,2013-01-15 17:26:00,
2013-01-15 12:27:00,40.4,39.9,30.10,ENE,59,1.0,8.0,98,0.08,,RA,1.05,VWS V14.01,2013-01-15 17:27:00,
2013-01-15 12:28:00,40.4,39.9,30.10,ENE,59,2.0,4.0,98,0.08,,,1.05,VWS V14.01,2013-01-15 17:28:00,
2013-01-15 12:29:00,40.4,39.9,30.10,North,5,6.0,6.0,98,0.08,,,1.05,VWS V14.01,2013-01-15 17:29:00,
2013-01-15 12:30:00,40.5,40.0,30.10,NE,44,8.0,8.0,98,0.08,,,1.05,VWS V14.01,2013-01-15 17:30:00,
2013-01-15 12:31:00,40.5,40.0,30.10,NNE,13,6.0,8.0,98,0.08,,,1.05,VWS V14.01,2013-01-15 17:31:00,
2013-01-15 12:32:00,40.5,40.0,30.09,NE,39,5.0,8.0,98,0.08,,RA,1.05,VWS V14.01,2013-01-15 17:32:00,
2013-01-15 12:33:00,40.5,40.0,30.09,NE,48,4.0,7.0,98,0.08,,,1.05,VWS V14.01,2013-01-15 17:33:00,
2013-01-15 12:34:00,40.5,40.0,30.09,NE,37,5.0,10.0,98,0.08,,,1.05,VWS V14.01,2013-01-15 17:34:00,
2013-01-15 12:35:00,40.5,40.0,30.09,NE,40,4.0,9.0,98,0.08,,,1.05,VWS V14.01,2013-01-15 17:35:00,
2013-01-15 12:36:00,40.5,40.0,30.09,NE,38,7.0,7.0,98,0.08,,,1.05,VWS V14.01,2013-01-15 17:36:00,
2013-01-15 12:37:00,40.5,40.0,30.09,ENE,70,2.0,6.0,98,0.08,,RA,1.05,VWS V14.01,2013-01-15 17:37:00,
2013-01-15 12:38:00,40.5,40.0,30.09,NE,51,5.0,9.0,98,0.07,,,1.05,VWS V14.01,2013-01-15 17:38:00,
2013-01-15 12:39:00,40.5,40.0,30.09,NE,51,5.0,9.0,98,0.07,,,1.05,VWS V14.01,2013-01-15 17:39:00,
2013-01-15 12:40:00,40.5,40.0,30.09,NE,40,3.0,6.0,98,0.07,,,1.05,VWS V14.01,2013-01-15 17:40:00,
2013-01-15 12:41:00,40.6,40.1,30.09,NNE,13,9.0,11.0,98,0.07,,,1.05,VWS V14.01,2013-01-15 17:41:00,
2013-01-15 12:42:00,40.6,40.1,30.09,ENE,57,3.0,10.0,98,0.07,,-RA,1.05,VWS V14.01,2013-01-15 17:42:00,
2013-01-15 12:43:00,40.6,40.1,30.09,NE,51,6.0,7.0,98,0.07,,,1.05,VWS V14.01,2013-01-15 17:43:00,
2013-01-15 12:44:00,40.6,40.1,30.08,ENE,63,7.0,8.0,98,0.07,,,1.05,VWS V14.01,2013-01-15 17:44:00,
2013-01-15 12:45:00,40.6,40.1,30.08,NE,56,5.0,8.0,98,0.07,,,1.05,VWS V14.01,2013-01-15 17:45:00,
2013-01-15 12:46:00,40.6,40.1,30.08,NNE,32,6.0,7.0,98,0.06,,,1.05,VWS V14.01,2013-01-15 17:46:00,
2013-01-15 12:47:00,40.6,40.1,30.08,NE,48,4.0,8.0,98,0.06,,-RA,1.05,VWS V14.01,2013-01-15 17:47:00,
2013-01-15 12:48:00,40.6,40.1,30.08,ENE,67,4.0,5.0,98,0.06,,,1.05,VWS V14.01,2013-01-15 17:48:00,
2013-01-15 12:49:00,40.7,40.2,30.08,NE,45,2.0,5.0,98,0.06,,,1.05,VWS V14.01,2013-01-15 17:49:00,
2013-01-15 12:50:00,40.7,40.2,30.08,NE,51,3.0,4.0,98,0.06,,,1.05,VWS V14.01,2013-01-15 17:50:00,
2013-01-15 12:51:00,40.7,40.2,30.08,NNE,22,2.0,5.0,98,0.06,,,1.05,VWS V14.01,2013-01-15 17:51:00,
2013-01-15 12:52:00,40.7,40.2,30.08,ENE,60,2.0,5.0,98,0.06,,-RA,1.05,VWS V14.01,2013-01-15 17:52:00,
2013-01-15 12:53:00,40.7,40.2,30.08,NNE,12,5.0,5.0,98,0.06,,,1.05,VWS V14.01,2013-01-15 17:53:00,
2013-01-15 12:54:00,40.8,40.3,30.08,North,11,2.0,5.0,98,0.06,,,1.05,VWS V14.01,2013-01-15 17:54:00,
2013-01-15 12:55:00,40.8,40.3,30.08,NE,36,5.0,9.0,98,0.05,,,1.05,VWS V14.01,2013-01-15 17:55:00,
2013-01-15 12:56:00,40.8,40.3,30.08,NE,42,3.0,7.0,98,0.05,,,1.05,VWS V14.01,2013-01-15 17:56:00,
2013-01-15 12:57:00,40.9,40.4,30.08,NE,51,4.0,5.0,98,0.06,,-RA,1.06,VWS V14.01,2013-01-15 17:57:00,
2013-01-15 12:58:00,40.8,40.5,30.07,ENE,59,4.0,4.0,99,0.06,,,1.06,VWS V14.01,2013-01-15 17:58:00,
2013-01-15 12:59:00,40.9,40.6,30.07,NE,36,5.0,8.0,99,0.05,,,1.06,VWS V14.01,2013-01-15 17:59:00,
2013-01-15 13:00:00,40.9,40.6,30.07,NE,49,6.0,8.0,99,0.05,,,1.06,VWS V14.01,2013-01-15 18:00:00,
2013-01-15 13:01:00,40.9,40.6,30.08,ESE,110,5.0,7.0,99,0.05,,,1.06,VWS V14.01,2013-01-15 18:01:00,
2013-01-15 13:02:00,40.9,40.6,30.08,ENE,74,5.0,6.0,99,0.05,,-RA,1.06,VWS V14.01,2013-01-15 18:02:00,
2013-01-15 13:03:00,40.9,40.6,30.07,NE,51,6.0,8.0,99,0.05,,,1.06,VWS V14.01,2013-01-15 18:03:00,
2013-01-15 13:04:00,40.9,40.6,30.07,East,88,4.0,7.0,99,0.04,,,1.06,VWS V14.01,2013-01-15 18:04:00,
2013-01-15 13:05:00,41.0,40.7,30.07,NNE,26,6.0,6.0,99,0.04,,,1.06,VWS V14.01,2013-01-15 18:05:00,
2013-01-15 13:06:00,41.0,40.7,30.07,ENE,57,2.0,7.0,99,0.03,,,1.06,VWS V14.01,2013-01-15 18:06:00,
2013-01-15 13:07:00,41.0,40.7,30.07,East,81,5.0,6.0,99,0.03,,-RA,1.06,VWS V14.01,2013-01-15 18:07:00,
2013-01-15 13:08:00,41.0,40.5,30.07,East,89,3.0,5.0,98,0.03,,,1.06,VWS V14.01,2013-01-15 18:08:00,
2013-01-15 13:09:00,41.1,40.6,30.07,NE,51,4.0,5.0,98,0.03,,,1.06,VWS V14.01,2013-01-15 18:09:00,
2013-01-15 13:10:00,41.1,40.6,30.07,NNE,28,5.0,6.0,98,0.03,,,1.06,VWS V14.01,2013-01-15 18:10:00,
2013-01-15 13:11:00,41.1,40.6,30.07,NNE,33,5.0,9.0,98,0.04,,,1.07,VWS V14.01,2013-01-15 18:11:00,
2013-01-15 13:12:00,41.1,40.6,30.07,ENE,76,6.0,7.0,98,0.03,,-RA,1.07,VWS V14.01,2013-01-15 18:12:00,
2013-01-15 13:13:00,41.1,40.6,30.07,North,11,5.0,7.0,98,0.03,,,1.07,VWS V14.01,2013-01-15 18:13:00,
2013-01-15 13:14:00,41.1,40.6,30.07,NE,35,5.0,7.0,98,0.03,,,1.07,VWS V14.01,2013-01-15 18:14:00,
2013-01-15 13:15:00,41.2,40.7,30.06,North,9,5.0,6.0,98,0.03,,,1.07,VWS V14.01,2013-01-15 18:15:00,
2013-01-15 13:16:00,41.2,40.7,30.06,North,5,7.0,8.0,98,0.03,,,1.07,VWS V14.01,2013-01-15 18:16:00,
2013-01-15 13:17:00,41.2,40.7,30.07,North,11,4.0,7.0,98,0.03,,-RA,1.08,VWS V14.01,2013-01-15 18:17:00,
2013-01-15 13:18:00,41.2,40.7,30.07,North,5,5.0,5.0,98,0.03,,,1.08,VWS V14.01,2013-01-15 18:18:00,
2013-01-15 13:19:00,41.3,40.8,30.07,North,5,5.0,7.0,98,0.03,,,1.08,VWS V14.01,2013-01-15 18:19:00,
2013-01-15 13:20:00,41.3,40.8,30.07,North,349,2.0,5.0,98,0.03,,,1.08,VWS V14.01,2013-01-15 18:20:00,
2013-01-15 13:21:00,41.3,40.8,30.08,NW,306,2.0,6.0,98,0.03,,,1.08,VWS V14.01,2013-01-15 18:21:00,
2013-01-15 13:22:00,41.3,40.8,30.08,NNW,346,4.0,7.0,98,0.03,,RA,1.08,VWS V14.01,2013-01-15 18:22:00,
2013-01-15 13:23:00,41.3,40.8,30.08,NNW,347,4.0,5.0,98,0.04,,,1.09,VWS V14.01,2013-01-15 18:23:00,
2013-01-15 13:24:00,41.3,40.8,30.07,North,360,3.0,4.0,98,0.04,,,1.09,VWS V14.01,2013-01-15 18:24:00,
2013-01-15 13:25:00,41.3,40.8,30.07,NNE,15,5.0,6.0,98,0.04,,,1.09,VWS V14.01,2013-01-15 18:25:00,
2013-01-15 13:26:00,41.3,40.8,30.07,NNW,347,4.0,5.0,98,0.05,,,1.10,VWS V14.01,2013-01-15 18:26:00,
2013-01-15 13:27:00,41.3,40.8,30.07,NNW,348,2.0,4.0,98,0.05,,RA,1.10,VWS V14.01,2013-01-15 18:27:00,
2013-01-15 13:28:00,41.3,40.8,30.07,NNW,348,2.0,2.0,98,0.05,,,1.10,VWS V14.01,2013-01-15 18:28:00,
2013-01-15 13:29:00,41.3,40.8,30.07,NNW,348,2.0,2.0,98,0.05,,,1.10,VWS V14.01,2013-01-15 18:29:00,
2013-01-15 13:30:00,41.3,41.0,30.07,NNE,13,2.0,3.0,99,0.06,,,1.11,VWS V14.01,2013-01-15 18:30:00,
2013-01-15 13:31:00,41.3,41.0,30.07,NNE,13,1.0,2.0,99,0.06,,,1.11,VWS V14.01,2013-01-15 18:31:00,
2013-01-15 13:32:00,41.3,41.0,30.07,NNE,13,6.0,6.0,99,0.06,,RA,1.11,VWS V14.01,2013-01-15 18:32:00,
2013-01-15 13:33:00,41.3,41.0,30.07,NNE,19,5.0,6.0,99,0.07,,,1.12,VWS V14.01,2013-01-15 18:33:00,
2013-01-15 13:34:00,41.3,41.0,30.07,North,9,5.0,7.0,99,0.07,,,1.12,VWS V14.01,2013-01-15 18:34:00,
2013-01-15 13:35:00,41.3,40.8,30.06,NE,50,4.0,5.0,98,0.08,,,1.13,VWS V14.01,2013-01-15 18:35:00,
2013-01-15 13:36:00,41.3,40.8,30.06,NE,54,2.0,6.0,98,0.08,,,1.13,VWS V14.01,2013-01-15 18:36:00,
2013-01-15 13:37:00,41.3,41.0,30.06,NE,54,1.0,3.0,99,0.08,,RA,1.13,VWS V14.01,2013-01-15 18:37:00,
2013-01-15 13:38:00,41.3,40.8,30.06,North,11,3.0,5.0,98,0.08,,,1.13,VWS V14.01,2013-01-15 18:38:00,
2013-01-15 13:39:00,41.3,40.8,30.07,NNE,22,4.0,4.0,98,0.08,,,1.13,VWS V14.01,2013-01-15 18:39:00,
2013-01-15 13:40:00,41.3,40.8,30.07,NNE,27,4.0,5.0,98,0.09,,,1.14,VWS V14.01,2013-01-15 18:40:00,
2013-01-15 13:41:00,41.3,40.8,30.07,NE,39,1.0,5.0,98,0.09,,,1.14,VWS V14.01,2013-01-15 18:41:00,
2013-01-15 13:42:00,41.3,40.8,30.07,NE,39,2.0,4.0,98,0.09,,RA,1.14,VWS V14.01,2013-01-15 18:42:00,
2013-01-15 13:43:00,41.3,40.8,30.07,NE,39,1.0,3.0,98,0.09,,,1.14,VWS V14.01,2013-01-15 18:43:00,
2013-01-15 13:44:00,41.3,40.8,30.07,NE,39,1.0,3.0,98,0.10,,,1.15,VWS V14.01,2013-01-15 18:44:00,
2013-01-15 13:45:00,41.3,40.8,30.07,ENE,60,4.0,4.0,98,0.10,,,1.15,VWS V14.01,2013-01-15 18:45:00,
2013-01-15 13:46:00,41.3,40.8,30.07,ENE,60,1.0,4.0,98,0.10,,,1.15,VWS V14.01,2013-01-15 18:46:00,
2013-01-15 13:47:00,41.3,41.0,30.07,ENE,60,2.0,2.0,99,0.11,,RA,1.16,VWS V14.01,2013-01-15 18:47:00,
2013-01-15 13:48:00,41.3,41.0,30.07,ENE,60,2.0,4.0,99,0.12,,,1.17,VWS V14.01,2013-01-15 18:48:00,
2013-01-15 13:49:00,41.4,41.1,30.07,North,9,5.0,5.0,99,0.12,,,1.17,VWS V14.01,2013-01-15 18:49:00,
2013-01-15 13:50:00,41.4,41.1,30.06,North,9,4.0,5.0,99,0.13,,,1.18,VWS V14.01,2013-01-15 18:50:00,
2013-01-15 13:51:00,41.3,41.0,30.06,NNE,31,4.0,6.0,99,0.14,,,1.19,VWS V14.01,2013-01-15 18:51:00,
2013-01-15 13:52:00,41.3,41.0,30.06,NE,46,4.0,8.0,99,0.15,,RA,1.20,VWS V14.01,2013-01-15 18:52:00,
2013-01-15 13:53:00,41.4,41.1,30.05,NE,55,1.0,6.0,99,0.16,,,1.21,VWS V14.01,2013-01-15 18:53:00,
2013-01-15 13:54:00,41.4,41.1,30.06,North,355,6.0,7.0,99,0.16,,,1.21,VWS V14.01,2013-01-15 18:54:00,
2013-01-15 13:55:00,41.4,41.1,30.06,North,11,4.0,7.0,99,0.17,,,1.22,VWS V14.01,2013-01-15 18:55:00,
2013-01-15 13:56:00,41.4,41.1,30.06,NE,37,3.0,6.0,99,0.18,,,1.23,VWS V14.01,2013-01-15 18:56:00,
2013-01-15 13:57:00,41.4,41.1,30.06,NE,36,4.0,4.0,99,0.18,,RA,1.23,VWS V14.01,2013-01-15 18:57:00,
2013-01-15 13:58:00,41.4,41.1,30.06,NE,36,2.0,4.0,99,0.17,,,1.23,VWS V14.01,2013-01-15 18:58:00,
2013-01-15 13:59:00,41.4,41.1,30.06,NE,36,3.0,3.0,99,0.17,,,1.23,VWS V14.01,2013-01-15 18:59:00,
2013-01-15 14:00:00,41.4,41.1,30.06,NNE,24,4.0,5.0,99,0.18,,,1.24,VWS V14.01,2013-01-15 19:00:00,
2013-01-15 14:01:00,41.4,41.1,30.05,NNE,29,4.0,5.0,99,0.18,,,1.24,VWS V14.01,2013-01-15 19:01:00,
2013-01-15 14:02:00,41.5,41.2,30.05,North,5,5.0,6.0,99,0.19,, +RA,1.25,VWS V14.01,2013-01-15 19:02:00,
2013-01-15 14:03:00,41.5,41.2,30.05,NNE,19,2.0,6.0,99,0.19,,,1.25,VWS V14.01,2013-01-15 19:03:00,
2013-01-15 14:04:00,41.5,41.2,30.05,NNE,30,4.0,4.0,99,0.19,,,1.25,VWS V14.01,2013-01-15 19:04:00,
2013-01-15 14:05:00,41.5,41.2,30.05,NNE,23,2.0,8.0,99,0.19,,,1.25,VWS V14.01,2013-01-15 19:05:00,
2013-01-15 14:06:00,41.5,41.2,30.05,NNE,23,2.0,4.0,99,0.20,,,1.26,VWS V14.01,2013-01-15 19:06:00,
2013-01-15 14:07:00,41.5,41.2,30.05,NE,50,4.0,6.0,99,0.20,, +RA,1.26,VWS V14.01,2013-01-15 19:07:00,
2013-01-15 14:08:00,41.5,41.2,30.05,NE,49,2.0,5.0,99,0.20,,,1.26,VWS V14.01,2013-01-15 19:08:00,
2013-01-15 14:09:00,41.5,41.2,30.05,NNE,26,6.0,7.0,99,0.21,,,1.27,VWS V14.01,2013-01-15 19:09:00,
2013-01-15 14:10:00,41.5,41.2,30.05,NE,35,5.0,7.0,99,0.21,,,1.27,VWS V14.01,2013-01-15 19:10:00,
2013-01-15 14:11:00,41.5,41.2,30.05,ENE,67,5.0,5.0,99,0.21,,,1.27,VWS V14.01,2013-01-15 19:11:00,
2013-01-15 14:12:00,41.5,41.2,30.05,NE,35,4.0,6.0,99,0.20,, +RA,1.27,VWS V14.01,2013-01-15 19:12:00,
2013-01-15 14:13:00,41.5,41.2,30.05,ENE,59,3.0,8.0,99,0.21,,,1.28,VWS V14.01,2013-01-15 19:13:00,
2013-01-15 14:14:00,41.5,41.2,30.05,ENE,66,2.0,5.0,99,0.21,,,1.28,VWS V14.01,2013-01-15 19:14:00,
2013-01-15 14:15:00,41.5,41.2,30.05,North,360,9.0,9.0,99,0.21,,,1.28,VWS V14.01,2013-01-15 19:15:00,
2013-01-15 14:16:00,41.5,41.2,30.05,ENE,71,5.0,9.0,99,0.22,,,1.29,VWS V14.01,2013-01-15 19:16:00,
2013-01-15 14:17:00,41.6,41.3,30.05,ENE,63,5.0,7.0,99,0.22,, +RA,1.29,VWS V14.01,2013-01-15 19:17:00,
2013-01-15 14:18:00,41.6,41.3,30.05,ENE,61,3.0,6.0,99,0.21,,,1.29,VWS V14.01,2013-01-15 19:18:00,
2013-01-15 14:19:00,41.5,41.2,30.05,NNE,32,5.0,6.0,99,0.21,,,1.29,VWS V14.01,2013-01-15 19:19:00,
2013-01-15 14:20:00,41.6,41.3,30.05,NE,55,5.0,5.0,99,0.21,,,1.29,VWS V14.01,2013-01-15 19:20:00,
2013-01-15 14:21:00,41.6,41.3,30.05,ENE,72,6.0,6.0,99,0.21,,,1.29,VWS V14.01,2013-01-15 19:21:00,
2013-01-15 14:22:00,41.6,41.3,30.05,ENE,61,5.0,6.0,99,0.22,, +RA,1.30,VWS V14.01,2013-01-15 19:22:00,
2013-01-15 14:23:00,41.6,41.3,30.05,NNE,23,5.0,5.0,99,0.22,,,1.30,VWS V14.01,2013-01-15 19:23:00,
2013-01-15 14:24:00,41.6,41.3,30.05,NE,56,4.0,5.0,99,0.22,,,1.31,VWS V14.01,2013-01-15 19:24:00,
2013-01-15 14:25:00,41.6,41.1,30.05,NE,36,6.0,7.0,98,0.22,,,1.31,VWS V14.01,2013-01-15 19:25:00,
2013-01-15 14:26:00,41.6,41.1,30.05,NE,40,6.0,7.0,98,0.22,,,1.31,VWS V14.01,2013-01-15 19:26:00,
2013-01-15 14:27:00,41.7,41.2,30.04,NNE,22,5.0,6.0,98,0.21,, +RA,1.31,VWS V14.01,2013-01-15 19:27:00,
2013-01-15 14:28:00,41.7,41.2,30.04,NNE,30,4.0,8.0,98,0.21,,,1.31,VWS V14.01,2013-01-15 19:28:00,
2013-01-15 14:29:00,41.7,41.2,30.05,NNE,27,2.0,5.0,98,0.22,,,1.32,VWS V14.01,2013-01-15 19:29:00,
2013-01-15 14:30:00,41.7,41.2,30.05,ENE,76,4.0,5.0,98,0.22,,,1.32,VWS V14.01,2013-01-15 19:30:00,
2013-01-15 14:31:00,41.7,41.2,30.04,East,80,4.0,5.0,98,0.21,,,1.32,VWS V14.01,2013-01-15 19:31:00,
2013-01-15 14:32:00,41.7,41.2,30.04,ENE,69,2.0,4.0,98,0.22,, +RA,1.33,VWS V14.01,2013-01-15 19:32:00,
2013-01-15 14:33:00,41.8,41.3,30.04,ENE,63,3.0,5.0,98,0.22,,,1.33,VWS V14.01,2013-01-15 19:33:00,
2013-01-15 14:34:00,41.8,41.3,30.04,NE,55,6.0,7.0,98,0.21,,,1.33,VWS V14.01,2013-01-15 19:34:00,
2013-01-15 14:35:00,41.8,41.3,30.04,ENE,69,2.0,6.0,98,0.21,,,1.33,VWS V14.01,2013-01-15 19:35:00,
2013-01-15 14:36:00,41.8,41.3,30.04,NE,51,2.0,8.0,98,0.20,,,1.33,VWS V14.01,2013-01-15 19:36:00,
2013-01-15 14:37:00,41.8,41.3,30.04,ENE,60,5.0,6.0,98,0.20,, +RA,1.33,VWS V14.01,2013-01-15 19:37:00,
2013-01-15 14:38:00,41.8,41.3,30.04,ENE,65,4.0,5.0,98,0.21,,,1.34,VWS V14.01,2013-01-15 19:38:00,
2013-01-15 14:39:00,41.9,41.4,30.04,NE,42,6.0,8.0,98,0.21,,,1.34,VWS V14.01,2013-01-15 19:39:00,
2013-01-15 14:40:00,41.9,41.4,30.03,NNE,18,5.0,6.0,98,0.21,,,1.34,VWS V14.01,2013-01-15 19:40:00,
2013-01-15 14:41:00,41.9,41.4,30.03,NNE,31,6.0,6.0,98,0.20,,,1.34,VWS V14.01,2013-01-15 19:41:00,
2013-01-15 14:42:00,41.9,41.6,30.03,North,5,4.0,7.0,99,0.20,, +RA,1.34,VWS V14.01,2013-01-15 19:42:00,
2013-01-15 14:43:00,41.9,41.4,30.04,North,5,1.0,4.0,98,0.21,,,1.35,VWS V14.01,2013-01-15 19:43:00,
2013-01-15 14:44:00,41.9,41.6,30.04,NNE,16,4.0,7.0,99,0.21,,,1.35,VWS V14.01,2013-01-15 19:44:00,
2013-01-15 14:45:00,41.9,41.6,30.04,NNE,16,1.0,4.0,99,0.20,,,1.35,VWS V14.01,2013-01-15 19:45:00,
2013-01-15 14:47:00,42.0,41.7,30.04,ENE,69,4.0,4.0,99,0.20,, +RA,1.35,VWS V14.01,2013-01-15 19:47:00,
2013-01-15 14:48:00,42.0,41.7,30.04,NNE,32,4.0,6.0,99,0.19,,,1.35,VWS V14.01,2013-01-15 19:48:00,
2013-01-15 14:49:00,42.0,41.7,30.04,ENE,62,2.0,4.0,99,0.18,,,1.35,VWS V14.01,2013-01-15 19:49:00,
2013-01-15 14:50:00,42.0,41.7,30.04,ENE,71,4.0,4.0,99,0.18,,,1.35,VWS V14.01,2013-01-15 19:50:00,
2013-01-15 14:51:00,42.0,41.7,30.04,East,80,5.0,6.0,99,0.17,,,1.35,VWS V14.01,2013-01-15 19:51:00,
2013-01-15 14:52:00,42.1,41.8,30.04,ENE,78,5.0,7.0,99,0.16,, +RA,1.35,VWS V14.01,2013-01-15 19:52:00,
2013-01-15 14:53:00,42.0,41.7,30.04,ENE,71,2.0,5.0,99,0.15,,,1.35,VWS V14.01,2013-01-15 19:53:00,
2013-01-15 14:54:00,42.0,41.7,30.04,ENE,71,0.0,2.0,99,0.15,,,1.36,VWS V14.01,2013-01-15 19:54:00,
2013-01-15 14:55:00,42.0,41.7,30.04,East,90,0.0,4.0,99,0.15,,,1.36,VWS V14.01,2013-01-15 19:55:00,
2013-01-15 14:56:00,42.0,41.7,30.04,East,90,1.0,3.0,99,0.15,,,1.37,VWS V14.01,2013-01-15 19:56:00,
2013-01-15 14:57:00,42.1,41.8,30.04,NE,54,4.0,5.0,99,0.14,,-RA,1.37,VWS V14.01,2013-01-15 19:57:00,
2013-01-15 14:58:00,42.1,41.8,30.03,ENE,65,5.0,5.0,99,0.14,,,1.37,VWS V14.01,2013-01-15 19:58:00,
2013-01-15 14:59:00,42.1,41.8,30.03,ENE,58,2.0,5.0,99,0.15,,,1.38,VWS V14.01,2013-01-15 19:59:00,
2013-01-15 15:00:00,42.1,41.8,30.03,East,88,6.0,6.0,99,0.15,,,1.38,VWS V14.01,2013-01-15 20:00:00,
2013-01-15 15:01:00,42.1,41.8,30.02,ENE,68,5.0,7.0,99,0.15,,,1.39,VWS V14.01,2013-01-15 20:01:00,
2013-01-15 15:02:00,42.1,41.8,30.02,East,84,5.0,6.0,99,0.15,,-RA,1.39,VWS V14.01,2013-01-15 20:02:00,
2013-01-15 15:03:00,42.1,41.8,30.02,ENE,78,2.0,4.0,99,0.15,,,1.40,VWS V14.01,2013-01-15 20:03:00,
2013-01-15 15:04:00,42.1,41.8,30.02,NE,55,3.0,4.0,99,0.15,,,1.40,VWS V14.01,2013-01-15 20:04:00,
2013-01-15 15:05:00,42.2,41.9,30.02,North,355,4.0,4.0,99,0.16,,,1.41,VWS V14.01,2013-01-15 20:05:00,
2013-01-15 15:06:00,42.2,41.9,30.02,North,360,5.0,7.0,99,0.16,,,1.41,VWS V14.01,2013-01-15 20:06:00,
2013-01-15 15:07:00,42.2,41.9,30.02,NE,44,2.0,6.0,99,0.15,,-RA,1.41,VWS V14.01,2013-01-15 20:07:00,
2013-01-15 15:08:00,42.2,41.9,30.02,NE,43,2.0,5.0,99,0.15,,,1.41,VWS V14.01,2013-01-15 20:08:00,
2013-01-15 15:09:00,42.2,41.9,30.02,NE,54,2.0,4.0,99,0.15,,,1.41,VWS V14.01,2013-01-15 20:09:00,
2013-01-15 15:10:00,42.2,41.9,30.02,NE,46,5.0,6.0,99,0.15,,,1.42,VWS V14.01,2013-01-15 20:10:00,
2013-01-15 15:11:00,42.2,41.9,30.02,NE,54,5.0,6.0,99,0.15,,,1.42,VWS V14.01,2013-01-15 20:11:00,
2013-01-15 15:12:00,42.2,41.9,30.02,East,95,4.0,5.0,99,0.15,,RA,1.42,VWS V14.01,2013-01-15 20:12:00,
2013-01-15 15:14:00,42.2,41.7,30.02,East,98,2.0,6.0,98,0.15,,,1.43,VWS V14.01,2013-01-15 20:14:00,
2013-01-15 15:15:00,42.3,41.8,30.02,SE,132,4.0,4.0,98,0.15,,,1.43,VWS V14.01,2013-01-15 20:15:00,
2013-01-15 15:16:00,42.3,41.8,30.02,ENE,71,1.0,6.0,98,0.15,,,1.43,VWS V14.01,2013-01-15 20:16:00,
2013-01-15 15:17:00,42.3,41.8,30.02,ENE,72,0.0,2.0,98,0.14,,RA,1.43,VWS V14.01,2013-01-15 20:17:00,
2013-01-15 15:18:00,42.3,41.8,30.02,ENE,71,4.0,4.0,98,0.14,,,1.43,VWS V14.01,2013-01-15 20:18:00,
2013-01-15 15:19:00,42.3,41.8,30.02,NE,55,2.0,7.0,98,0.14,,,1.43,VWS V14.01,2013-01-15 20:19:00,
2013-01-15 15:20:00,42.4,41.9,30.02,NE,38,1.0,6.0,98,0.14,,,1.43,VWS V14.01,2013-01-15 20:20:00,
2013-01-15 15:21:00,42.4,41.9,30.02,NE,44,0.0,2.0,98,0.14,,,1.43,VWS V14.01,2013-01-15 20:21:00,
2013-01-15 15:22:00,42.4,41.9,30.02,ENE,57,0.0,2.0,98,0.14,, +RA,1.43,VWS V14.01,2013-01-15 20:22:00,
2013-01-15 15:23:00,42.4,41.9,30.02,ENE,61,4.0,6.0,98,0.13,,,1.43,VWS V14.01,2013-01-15 20:23:00,
2013-01-15 15:24:00,42.4,41.9,30.02,North,350,0.0,6.0,98,0.13,,,1.43,VWS V14.01,2013-01-15 20:24:00,
2013-01-15 15:25:00,42.4,41.9,30.02,NE,41,5.0,5.0,98,0.12,,,1.43,VWS V14.01,2013-01-15 20:25:00,
2013-01-15 15:26:00,42.5,42.0,30.02,NE,43,6.0,7.0,98,0.12,,,1.43,VWS V14.01,2013-01-15 20:26:00,
2013-01-15 15:27:00,42.5,42.0,30.02,NNW,330,4.0,7.0,98,0.12,, +RA,1.43,VWS V14.01,2013-01-15 20:27:00,
2013-01-15 15:28:00,42.5,42.0,30.02,NNE,31,7.0,7.0,98,0.12,,,1.43,VWS V14.01,2013-01-15 20:28:00,
2013-01-15 15:29:00,42.5,42.2,30.02,NE,36,2.0,7.0,99,0.12,,,1.43,VWS V14.01,2013-01-15 20:29:00,
2013-01-15 15:30:00,42.5,42.2,30.02,NNE,13,4.0,7.0,99,0.11,,,1.43,VWS V14.01,2013-01-15 20:30:00,
2013-01-15 15:31:00,42.6,42.3,30.02,NNE,21,5.0,7.0,99,0.12,,,1.44,VWS V14.01,2013-01-15 20:31:00,
2013-01-15 15:32:00,42.5,42.2,30.02,NE,34,5.0,7.0,99,0.12,, +RA,1.44,VWS V14.01,2013-01-15 20:32:00,
2013-01-15 15:33:00,42.6,42.3,30.02,NE,34,2.0,4.0,99,0.11,,,1.44,VWS V14.01,2013-01-15 20:33:00,
2013-01-15 15:34:00,42.6,42.3,30.02,NNE,25,4.0,5.0,99,0.11,,,1.44,VWS V14.01,2013-01-15 20:34:00,
2013-01-15 15:35:00,42.6,42.3,30.02,NNE,22,2.0,4.0,99,0.11,,,1.44,VWS V14.01,2013-01-15 20:35:00,
2013-01-15 15:36:00,42.6,42.3,30.02,NNE,22,4.0,5.0,99,0.11,,,1.44,VWS V14.01,2013-01-15 20:36:00,
2013-01-15 15:37:00,42.7,42.4,30.02,North,355,4.0,5.0,99,0.11,, +RA,1.44,VWS V14.01,2013-01-15 20:37:00,
2013-01-15 15:38:00,42.7,42.4,30.02,North,9,6.0,8.0,99,0.11,,,1.44,VWS V14.01,2013-01-15 20:38:00,
2013-01-15 15:39:00,42.7,42.4,30.02,North,355,8.0,8.0,99,0.11,,,1.45,VWS V14.01,2013-01-15 20:39:00,
2013-01-15 15:40:00,42.6,42.3,30.02,North,351,4.0,8.0,99,0.11,,,1.45,VWS V14.01,2013-01-15 20:40:00,
2013-01-15 15:41:00,42.6,42.3,30.02,North,355,5.0,6.0,99,0.11,,,1.45,VWS V14.01,2013-01-15 20:41:00,
2013-01-15 15:42:00,42.7,42.4,30.02,NNW,342,2.0,5.0,99,0.11,, +RA,1.45,VWS V14.01,2013-01-15 20:42:00,
2013-01-15 15:43:00,42.7,42.4,30.02,North,355,8.0,8.0,99,0.11,,,1.45,VWS V14.01,2013-01-15 20:43:00,
2013-01-15 15:44:00,42.7,42.4,30.02,North,360,5.0,9.0,99,0.10,,,1.45,VWS V14.01,2013-01-15 20:44:00,
2013-01-15 15:45:00,42.7,42.4,30.02,NNW,347,6.0,7.0,99,0.10,,,1.45,VWS V14.01,2013-01-15 20:45:00,
2013-01-15 15:46:00,42.7,42.4,30.02,NNE,22,1.0,6.0,99,0.10,,,1.45,VWS V14.01,2013-01-15 20:46:00,
2013-01-15 15:47:00,42.7,42.4,30.02,NW,317,1.0,4.0,99,0.11,,-RA,1.46,VWS V14.01,2013-01-15 20:47:00,
2013-01-15 15:48:00,42.6,42.3,30.03,North,5,0.0,5.0,99,0.11,,,1.46,VWS V14.01,2013-01-15 20:48:00,
2013-01-15 15:49:00,42.7,42.4,30.03,North,5,0.0,1.0,99,0.11,,,1.46,VWS V14.01,2013-01-15 20:49:00,
2013-01-15 15:50:00,42.7,42.4,30.03,NNW,329,2.0,2.0,99,0.12,,,1.47,VWS V14.01,2013-01-15 20:50:00,
2013-01-15 15:51:00,42.7,42.4,30.04,NNW,329,0.0,3.0,99,0.12,,,1.47,VWS V14.01,2013-01-15 20:51:00,
2013-01-15 15:52:00,42.7,42.4,30.04,WNW,299,3.0,7.0,99,0.12,,-RA,1.47,VWS V14.01,2013-01-15 20:52:00,
2013-01-15 15:53:00,42.7,42.4,30.05,NNW,339,0.0,6.0,99,0.12,,,1.47,VWS V14.01,2013-01-15 20:53:00,
2013-01-15 15:54:00,42.7,42.4,30.05,NW,306,0.0,2.0,99,0.12,,,1.47,VWS V14.01,2013-01-15 20:54:00,
2013-01-15 15:55:00,42.7,42.4,30.05,North,355,2.0,3.0,99,0.12,,,1.48,VWS V14.01,2013-01-15 20:55:00,
2013-01-15 15:56:00,42.7,42.4,30.05,North,355,0.0,4.0,99,0.12,,,1.48,VWS V14.01,2013-01-15 20:56:00,
2013-01-15 15:57:00,42.7,42.4,30.05,WNW,297,1.0,5.0,99,0.12,,RA,1.49,VWS V14.01,2013-01-15 20:57:00,
2013-01-15 15:58:00,42.7,42.4,30.05,WNW,298,1.0,4.0,99,0.12,,,1.49,VWS V14.01,2013-01-15 20:58:00,
2013-01-15 15:59:00,42.7,42.4,30.05,North,360,5.0,5.0,99,0.13,,,1.50,VWS V14.01,2013-01-15 20:59:00,
2013-01-15 16:00:00,42.7,42.4,30.05,North,360,1.0,6.0,99,0.12,,,1.50,VWS V14.01,2013-01-15 21:00:00,
2013-01-15 16:01:00,42.6,42.3,30.05,North,360,1.0,1.0,99,0.13,,,1.51,VWS V14.01,2013-01-15 21:01:00,
2013-01-15 16:02:00,42.6,42.3,30.05,North,360,1.0,4.0,99,0.12,,RA,1.51,VWS V14.01,2013-01-15 21:02:00,
2013-01-15 16:03:00,42.6,42.3,30.05,North,360,0.0,1.0,99,0.13,,,1.52,VWS V14.01,2013-01-15 21:03:00,
2013-01-15 16:04:00,42.6,42.3,30.05,North,351,4.0,5.0,99,0.13,,,1.53,VWS V14.01,2013-01-15 21:04:00,
2013-01-15 16:05:00,42.6,42.3,30.05,North,360,1.0,5.0,99,0.13,,,1.53,VWS V14.01,2013-01-15 21:05:00,
2013-01-15 16:06:00,42.6,42.3,30.05,North,360,1.0,3.0,99,0.13,,,1.54,VWS V14.01,2013-01-15 21:06:00,
2013-01-15 16:07:00,42.6,42.3,30.05,North,360,1.0,2.0,99,0.14,,RA,1.55,VWS V14.01,2013-01-15 21:07:00,
2013-01-15 16:08:00,42.6,42.3,30.05,North,360,0.0,1.0,99,0.15,,,1.56,VWS V14.01,2013-01-15 21:08:00,
2013-01-15 16:09:00,42.6,42.3,30.05,North,360,2.0,4.0,99,0.16,,,1.57,VWS V14.01,2013-01-15 21:09:00,
2013-01-15 16:10:00,42.6,42.3,30.05,North,360,1.0,2.0,99,0.16,,,1.57,VWS V14.01,2013-01-15 21:10:00,
2013-01-15 16:11:00,42.6,42.3,30.05,North,360,1.0,5.0,99,0.16,,,1.58,VWS V14.01,2013-01-15 21:11:00,
2013-01-15 16:12:00,42.6,42.3,30.05,North,360,1.0,2.0,99,0.16,,RA,1.58,VWS V14.01,2013-01-15 21:12:00,
2013-01-15 16:13:00,42.6,42.3,30.05,North,360,0.0,1.0,99,0.17,,,1.59,VWS V14.01,2013-01-15 21:13:00,
2013-01-15 16:14:00,42.6,42.3,30.05,North,360,0.0,1.0,99,0.17,,,1.59,VWS V14.01,2013-01-15 21:14:00,
2013-01-15 16:15:00,42.6,42.3,30.06,North,360,1.0,3.0,99,0.16,,,1.59,VWS V14.01,2013-01-15 21:15:00,
2013-01-15 16:16:00,42.6,42.3,30.06,North,360,0.0,1.0,99,0.16,,,1.59,VWS V14.01,2013-01-15 21:16:00,
2013-01-15 16:17:00,42.6,42.3,30.06,North,360,2.0,4.0,99,0.17,, +RA,1.60,VWS V14.01,2013-01-15 21:17:00,
2013-01-15 16:18:00,42.6,42.3,30.06,North,360,2.0,4.0,99,0.18,,,1.61,VWS V14.01,2013-01-15 21:18:00,
2013-01-15 16:19:00,42.6,42.3,30.05,North,360,4.0,4.0,99,0.18,,,1.61,VWS V14.01,2013-01-15 21:19:00,
2013-01-15 16:20:00,42.6,42.3,30.05,North,360,2.0,4.0,99,0.19,,,1.62,VWS V14.01,2013-01-15 21:20:00,
2013-01-15 16:21:00,42.7,42.4,30.05,North,360,1.0,5.0,99,0.20,,,1.63,VWS V14.01,2013-01-15 21:21:00,
2013-01-15 16:22:00,42.7,42.4,30.05,North,360,2.0,2.0,99,0.20,, +RA,1.63,VWS V14.01,2013-01-15 21:22:00,
2013-01-15 16:23:00,42.7,42.4,30.04,North,360,1.0,4.0,99,0.20,,,1.63,VWS V14.01,2013-01-15 21:23:00,
2013-01-15 16:24:00,42.7,42.4,30.05,North,360,2.0,4.0,99,0.21,,,1.64,VWS V14.01,2013-01-15 21:24:00,
2013-01-15 16:25:00,42.7,42.4,30.05,North,360,4.0,5.0,99,0.22,,,1.65,VWS V14.01,2013-01-15 21:25:00,
2013-01-15 16:26:00,42.7,42.4,30.05,North,360,2.0,4.0,99,0.22,,,1.65,VWS V14.01,2013-01-15 21:26:00,
2013-01-15 16:27:00,42.7,42.4,30.05,North,360,1.0,2.0,99,0.22,, +RA,1.65,VWS V14.01,2013-01-15 21:27:00,
2013-01-15 16:28:00,42.7,42.4,30.05,North,360,2.0,2.0,99,0.23,,,1.66,VWS V14.01,2013-01-15 21:28:00,
2013-01-15 16:29:00,42.7,42.4,30.05,North,360,0.0,2.0,99,0.24,,,1.67,VWS V14.01,2013-01-15 21:29:00,
2013-01-15 16:30:00,42.7,42.4,30.05,North,360,0.0,0.0,99,0.24,,,1.67,VWS V14.01,2013-01-15 21:30:00,
2013-01-15 16:31:00,42.7,42.4,30.05,North,360,0.0,1.0,99,0.24,,,1.67,VWS V14.01,2013-01-15 21:31:00,
2013-01-15 16:32:00,42.7,42.4,30.05,North,360,0.0,1.0,99,0.24,, +RA,1.68,VWS V14.01,2013-01-15 21:32:00,
2013-01-15 16:33:00,42.7,42.4,30.05,North,360,0.0,1.0,99,0.25,,,1.69,VWS V14.01,2013-01-15 21:33:00,
2013-01-15 16:34:00,42.7,42.4,30.04,North,360,0.0,0.0,99,0.25,,,1.69,VWS V14.01,2013-01-15 21:34:00,
2013-01-15 16:35:00,42.7,42.4,30.04,North,360,2.0,2.0,99,0.25,,,1.69,VWS V14.01,2013-01-15 21:35:00,
2013-01-15 16:36:00,42.8,42.5,30.05,North,360,2.0,4.0,99,0.25,,,1.69,VWS V14.01,2013-01-15 21:36:00,
2013-01-15 16:37:00,42.8,42.5,30.04,North,360,2.0,4.0,99,0.25,, +RA,1.69,VWS V14.01,2013-01-15 21:37:00,
2013-01-15 16:38:00,42.8,42.5,30.04,North,360,1.0,2.0,99,0.26,,,1.70,VWS V14.01,2013-01-15 21:38:00,
2013-01-15 16:39:00,42.8,42.5,30.04,North,360,3.0,4.0,99,0.26,,,1.70,VWS V14.01,2013-01-15 21:39:00,
2013-01-15 16:40:00,42.8,42.5,30.05,North,360,0.0,3.0,99,0.25,,,1.70,VWS V14.01,2013-01-15 21:40:00,
2013-01-15 16:41:00,42.8,42.5,30.05,North,360,1.0,1.0,99,0.26,,,1.71,VWS V14.01,2013-01-15 21:41:00,
2013-01-15 16:42:00,42.8,42.5,30.05,North,360,3.0,4.0,99,0.26,, +RA,1.71,VWS V14.01,2013-01-15 21:42:00,
2013-01-15 16:43:00,42.8,42.5,30.04,North,360,3.0,4.0,99,0.26,,,1.71,VWS V14.01,2013-01-15 21:43:00,
2013-01-15 16:44:00,42.8,42.5,30.05,North,360,0.0,3.0,99,0.26,,,1.71,VWS V14.01,2013-01-15 21:44:00,
2013-01-15 16:45:00,42.9,42.6,30.05,North,360,2.0,3.0,99,0.26,,,1.71,VWS V14.01,2013-01-15 21:45:00,
2013-01-15 16:46:00,42.9,42.6,30.05,North,360,2.0,3.0,99,0.27,,,1.72,VWS V14.01,2013-01-15 21:46:00,
2013-01-15 16:47:00,42.9,42.6,30.05,North,360,2.0,2.0,99,0.27,, +RA,1.72,VWS V14.01,2013-01-15 21:47:00,
2013-01-15 16:48:00,42.9,42.6,30.05,North,360,1.0,4.0,99,0.26,,,1.72,VWS V14.01,2013-01-15 21:48:00,
2013-01-15 16:49:00,42.9,42.6,30.05,North,360,0.0,2.0,99,0.27,,,1.73,VWS V14.01,2013-01-15 21:49:00,
2013-01-15 16:50:00,42.9,42.6,30.05,North,360,0.0,0.0,99,0.27,,,1.73,VWS V14.01,2013-01-15 21:50:00,
2013-01-15 16:51:00,42.9,42.6,30.05,North,360,0.0,2.0,99,0.26,,,1.73,VWS V14.01,2013-01-15 21:51:00,
2013-01-15 16:52:00,42.9,42.6,30.05,North,360,0.0,0.0,99,0.26,, +RA,1.73,VWS V14.01,2013-01-15 21:52:00,
2013-01-15 16:53:00,42.9,42.6,30.06,North,360,2.0,4.0,99,0.26,,,1.73,VWS V14.01,2013-01-15 21:53:00,
2013-01-15 16:54:00,42.9,42.4,30.06,North,360,1.0,4.0,98,0.26,,,1.73,VWS V14.01,2013-01-15 21:54:00,
2013-01-15 16:55:00,42.9,42.6,30.06,North,360,0.0,2.0,99,0.26,,,1.73,VWS V14.01,2013-01-15 21:55:00,
2013-01-15 16:56:00,42.9,42.4,30.06,North,360,0.0,1.0,98,0.25,,,1.73,VWS V14.01,2013-01-15 21:56:00,
2013-01-15 16:57:00,42.9,42.4,30.06,North,360,1.0,1.0,98,0.25,,RA,1.73,VWS V14.01,2013-01-15 21:57:00,
2013-01-15 16:58:00,42.9,42.4,30.06,North,360,1.0,2.0,98,0.25,,,1.74,VWS V14.01,2013-01-15 21:58:00,
2013-01-15 16:59:00,42.9,42.4,30.05,North,360,2.0,3.0,98,0.25,,,1.74,VWS V14.01,2013-01-15 21:59:00,
2013-01-15 17:00:00,42.9,42.6,30.05,North,360,1.0,4.0,99,0.24,,,1.74,VWS V14.01,2013-01-15 22:00:00,
2013-01-15 17:01:00,42.9,42.4,30.05,North,360,0.0,0.0,98,0.25,,,1.75,VWS V14.01,2013-01-15 22:01:00,
2013-01-15 17:02:00,42.9,42.4,30.05,North,360,1.0,2.0,98,0.24,,RA,1.75,VWS V14.01,2013-01-15 22:02:00,
2013-01-15 17:03:00,42.9,42.4,30.05,North,360,1.0,3.0,98,0.24,,,1.75,VWS V14.01,2013-01-15 22:03:00,
2013-01-15 17:05:00,42.9,42.4,30.05,North,360,0.0,0.0,98,0.22,,,1.75,VWS V14.01,2013-01-15 22:05:00,
2013-01-15 17:06:00,42.9,42.4,30.05,North,360,0.0,1.0,98,0.22,,,1.75,VWS V14.01,2013-01-15 22:06:00,
2013-01-15 17:07:00,43.0,42.5,30.05,North,360,0.0,0.0,98,0.21,,RA,1.75,VWS V14.01,2013-01-15 22:07:00,
2013-01-15 17:08:00,43.0,42.7,30.05,North,360,0.0,0.0,99,0.21,,,1.76,VWS V14.01,2013-01-15 22:08:00,
2013-01-15 17:09:00,42.9,42.4,30.05,North,360,0.0,0.0,98,0.20,,,1.76,VWS V14.01,2013-01-15 22:09:00,
2013-01-15 17:10:00,43.0,42.7,30.05,North,360,0.0,0.0,99,0.19,,,1.76,VWS V14.01,2013-01-15 22:10:00,
2013-01-15 17:11:00,43.0,42.5,30.05,North,360,0.0,1.0,98,0.19,,,1.76,VWS V14.01,2013-01-15 22:11:00,
2013-01-15 17:12:00,43.0,42.7,30.05,North,360,2.0,2.0,99,0.18,,RA,1.76,VWS V14.01,2013-01-15 22:12:00,
2013-01-15 17:13:00,43.0,42.5,30.05,North,360,0.0,2.0,98,0.18,,,1.76,VWS V14.01,2013-01-15 22:13:00,
2013-01-15 17:14:00,43.0,42.5,30.05,North,360,0.0,0.0,98,0.17,,,1.76,VWS V14.01,2013-01-15 22:14:00,
2013-01-15 17:15:00,43.0,42.5,30.05,North,360,0.0,1.0,98,0.17,,,1.76,VWS V14.01,2013-01-15 22:15:00,
2013-01-15 17:16:00,43.0,42.5,30.05,North,360,2.0,2.0,98,0.17,,,1.76,VWS V14.01,2013-01-15 22:16:00,
2013-01-15 17:17:00,43.0,42.5,30.05,North,360,0.0,2.0,98,0.18,,RA,1.77,VWS V14.01,2013-01-15 22:17:00,
2013-01-15 17:18:00,43.0,42.5,30.05,North,360,0.0,0.0,98,0.17,,,1.77,VWS V14.01,2013-01-15 22:18:00,
2013-01-15 17:19:00,43.0,42.5,30.05,North,360,0.0,0.0,98,0.16,,,1.77,VWS V14.01,2013-01-15 22:19:00,
2013-01-15 17:22:00,43.0,42.5,30.04,North,360,0.0,1.0,98,0.14,,RA,1.77,VWS V14.01,2013-01-15 22:22:00,
2013-01-15 17:23:00,43.0,42.5,30.04,North,360,0.0,0.0,98,0.14,,,1.77,VWS V14.01,2013-01-15 22:23:00,
2013-01-15 17:24:00,43.0,42.5,30.04,North,360,0.0,0.0,98,0.14,,,1.77,VWS V14.01,2013-01-15 22:24:00,
2013-01-15 17:25:00,43.1,42.8,30.04,North,360,0.0,1.0,99,0.13,,,1.77,VWS V14.01,2013-01-15 22:25:00,
2013-01-15 17:26:00,43.0,42.5,30.03,North,360,0.0,0.0,98,0.12,,,1.77,VWS V14.01,2013-01-15 22:26:00,
2013-01-15 17:27:00,43.1,42.6,30.03,North,360,1.0,1.0,98,0.12,,RA,1.77,VWS V14.01,2013-01-15 22:27:00,
2013-01-15 17:28:00,43.1,42.8,30.03,North,360,0.0,2.0,99,0.12,,,1.77,VWS V14.01,2013-01-15 22:28:00,
2013-01-15 17:29:00,43.1,42.8,30.03,North,360,0.0,1.0,99,0.12,,,1.78,VWS V14.01,2013-01-15 22:29:00,
2013-01-15 17:30:00,43.1,42.8,30.03,North,360,0.0,2.0,99,0.11,,,1.78,VWS V14.01,2013-01-15 22:30:00,
2013-01-15 17:31:00,43.1,42.6,30.03,North,360,0.0,0.0,98,0.11,,,1.78,VWS V14.01,2013-01-15 22:31:00,
2013-01-15 17:32:00,43.1,42.8,30.03,North,360,0.0,0.0,99,0.11,,RA,1.78,VWS V14.01,2013-01-15 22:32:00,
2013-01-15 17:33:00,43.1,42.8,30.03,North,360,0.0,0.0,99,0.10,,,1.78,VWS V14.01,2013-01-15 22:33:00,
2013-01-15 17:34:00,43.1,42.8,30.03,North,360,0.0,0.0,99,0.09,,,1.78,VWS V14.01,2013-01-15 22:34:00,
2013-01-15 17:35:00,43.1,42.8,30.03,North,360,0.0,3.0,99,0.10,,,1.79,VWS V14.01,2013-01-15 22:35:00,
2013-01-15 17:36:00,43.1,42.6,30.03,North,360,0.0,0.0,98,0.10,,,1.79,VWS V14.01,2013-01-15 22:36:00,
2013-01-15 17:37:00,43.1,42.6,30.03,North,360,1.0,2.0,98,0.10,,-RA,1.79,VWS V14.01,2013-01-15 22:37:00,
2013-01-15 17:38:00,43.1,42.6,30.03,North,360,0.0,1.0,98,0.10,,,1.79,VWS V14.01,2013-01-15 22:38:00,
2013-01-15 17:39:00,43.1,42.6,30.03,North,360,0.0,1.0,98,0.09,,,1.79,VWS V14.01,2013-01-15 22:39:00,
2013-01-15 17:40:00,43.2,42.7,30.03,North,360,0.0,0.0,98,0.09,,,1.79,VWS V14.01,2013-01-15 22:40:00,
2013-01-15 17:41:00,43.1,42.6,30.04,North,360,0.0,0.0,98,0.09,,,1.79,VWS V14.01,2013-01-15 22:41:00,
2013-01-15 17:42:00,43.1,42.8,30.03,North,360,1.0,1.0,99,0.09,,-RA,1.80,VWS V14.01,2013-01-15 22:42:00,
2013-01-15 17:43:00,43.2,42.7,30.03,North,360,0.0,2.0,98,0.09,,,1.80,VWS V14.01,2013-01-15 22:43:00,
2013-01-15 17:44:00,43.2,42.9,30.04,North,360,0.0,0.0,99,0.10,,,1.81,VWS V14.01,2013-01-15 22:44:00,
2013-01-15 17:45:00,43.2,42.9,30.04,ENE,57,4.0,5.0,99,0.10,,,1.81,VWS V14.01,2013-01-15 22:45:00,
2013-01-15 17:46:00,43.2,42.9,30.04,ENE,57,1.0,4.0,99,0.10,,,1.81,VWS V14.01,2013-01-15 22:46:00,
2013-01-15 17:47:00,43.2,42.9,30.04,ENE,57,1.0,2.0,99,0.09,,-RA,1.81,VWS V14.01,2013-01-15 22:47:00,
2013-01-15 17:48:00,43.2,42.9,30.03,ENE,57,2.0,3.0,99,0.10,,,1.82,VWS V14.01,2013-01-15 22:48:00,
2013-01-15 17:49:00,43.2,42.9,30.03,ENE,67,2.0,2.0,99,0.11,,,1.83,VWS V14.01,2013-01-15 22:49:00,
2013-01-15 17:50:00,43.2,42.9,30.03,ENE,67,0.0,2.0,99,0.10,,,1.83,VWS V14.01,2013-01-15 22:50:00,
2013-01-15 17:51:00,43.2,42.9,30.03,ENE,67,0.0,0.0,99,0.10,,,1.83,VWS V14.01,2013-01-15 22:51:00,
2013-01-15 17:52:00,43.2,42.9,30.03,ENE,67,1.0,2.0,99,0.10,,-RA,1.83,VWS V14.01,2013-01-15 22:52:00,
2013-01-15 17:53:00,43.2,42.9,30.03,ENE,67,0.0,1.0,99,0.11,,,1.84,VWS V14.01,2013-01-15 22:53:00,
2013-01-15 17:54:00,43.2,42.9,30.03,ENE,67,0.0,1.0,99,0.11,,,1.84,VWS V14.01,2013-01-15 22:54:00,
2013-01-15 17:55:00,43.2,42.9,30.03,ENE,67,1.0,1.0,99,0.12,,,1.85,VWS V14.01,2013-01-15 22:55:00,
2013-01-15 17:56:00,43.2,42.9,30.03,ENE,67,0.0,1.0,99,0.12,,,1.85,VWS V14.01,2013-01-15 22:56:00,
2013-01-15 17:57:00,43.2,42.9,30.02,East,80,1.0,2.0,99,0.12,,-RA,1.85,VWS V14.01,2013-01-15 22:57:00,
2013-01-15 17:58:00,43.2,42.9,30.02,East,80,1.0,2.0,99,0.13,,,1.86,VWS V14.01,2013-01-15 22:58:00,
2013-01-15 17:59:00,43.3,43.0,30.02,East,80,0.0,1.0,99,0.12,,,1.86,VWS V14.01,2013-01-15 22:59:00,
2013-01-15 18:00:00,43.2,42.9,30.02,ESE,113,1.0,4.0,99,0.13,,,1.87,VWS V14.01,2013-01-15 23:00:00,
2013-01-15 18:01:00,43.3,43.0,30.02,ESE,113,0.0,1.0,99,0.13,,,1.87,VWS V14.01,2013-01-15 23:01:00,
2013-01-15 18:02:00,43.3,43.0,30.02,ESE,116,2.0,4.0,99,0.12,,-RA,1.87,VWS V14.01,2013-01-15 23:02:00,
2013-01-15 18:03:00,43.3,43.0,30.02,ESE,116,0.0,2.0,99,0.12,,,1.87,VWS V14.01,2013-01-15 23:03:00,
2013-01-15 18:04:00,43.3,43.0,30.02,ESE,116,0.0,1.0,99,0.12,,,1.87,VWS V14.01,2013-01-15 23:04:00,
2013-01-15 18:05:00,43.3,43.0,30.02,NE,42,1.0,4.0,99,0.12,,,1.87,VWS V14.01,2013-01-15 23:05:00,
2013-01-15 18:06:00,43.3,43.0,30.02,NE,42,0.0,1.0,99,0.12,,,1.87,VWS V14.01,2013-01-15 23:06:00,
2013-01-15 18:07:00,43.3,43.0,30.02,NE,42,0.0,1.0,99,0.13,,-RA,1.88,VWS V14.01,2013-01-15 23:07:00,
2013-01-15 18:08:00,43.3,43.0,30.02,NE,42,0.0,0.0,99,0.13,,,1.88,VWS V14.01,2013-01-15 23:08:00,
2013-01-15 18:09:00,43.3,43.0,30.02,NE,42,0.0,0.0,99,0.12,,,1.88,VWS V14.01,2013-01-15 23:09:00,
2013-01-15 18:10:00,43.3,43.0,30.02,NE,42,0.0,0.0,99,0.12,,,1.88,VWS V14.01,2013-01-15 23:10:00,
2013-01-15 18:11:00,43.3,43.0,30.02,NE,42,2.0,2.0,99,0.13,,,1.89,VWS V14.01,2013-01-15 23:11:00,
2013-01-15 18:12:00,43.3,43.0,30.02,NE,42,0.0,0.0,99,0.13,,-RA,1.89,VWS V14.01,2013-01-15 23:12:00,
2013-01-15 18:13:00,43.3,43.0,30.02,NE,42,2.0,2.0,99,0.13,,,1.89,VWS V14.01,2013-01-15 23:13:00,
2013-01-15 18:14:00,43.3,43.0,30.02,NE,42,0.0,2.0,99,0.13,,,1.89,VWS V14.01,2013-01-15 23:14:00,
2013-01-15 18:15:00,43.3,43.0,30.02,NE,42,0.0,0.0,99,0.13,,,1.89,VWS V14.01,2013-01-15 23:15:00,
2013-01-15 18:16:00,43.4,43.1,30.02,NE,42,2.0,2.0,99,0.13,,,1.89,VWS V14.01,2013-01-15 23:16:00,
2013-01-15 18:17:00,43.4,43.1,30.02,NE,51,3.0,3.0,99,0.13,,-RA,1.89,VWS V14.01,2013-01-15 23:17:00,
2013-01-15 18:18:00,43.4,43.1,30.02,NE,44,2.0,4.0,99,0.12,,,1.89,VWS V14.01,2013-01-15 23:18:00,
2013-01-15 18:19:00,43.4,43.1,30.02,NE,44,0.0,2.0,99,0.12,,,1.89,VWS V14.01,2013-01-15 23:19:00,
2013-01-15 18:20:00,43.4,43.1,30.02,NE,44,0.0,1.0,99,0.13,,,1.90,VWS V14.01,2013-01-15 23:20:00,
2013-01-15 18:21:00,43.4,43.1,30.02,NE,44,0.0,0.0,99,0.13,,,1.90,VWS V14.01,2013-01-15 23:21:00,
2013-01-15 18:22:00,43.4,43.1,30.02,NE,44,1.0,1.0,99,0.13,,-RA,1.90,VWS V14.01,2013-01-15 23:22:00,
2013-01-15 18:23:00,43.4,43.1,30.02,NE,44,1.0,3.0,99,0.13,,,1.90,VWS V14.01,2013-01-15 23:23:00,
2013-01-15 18:24:00,43.4,43.1,30.02,NE,44,0.0,1.0,99,0.13,,,1.90,VWS V14.01,2013-01-15 23:24:00,
2013-01-15 18:25:00,43.4,43.1,30.02,NE,44,2.0,4.0,99,0.13,,,1.90,VWS V14.01,2013-01-15 23:25:00,
2013-01-15 18:26:00,43.4,43.1,30.03,NE,44,1.0,2.0,99,0.13,,,1.90,VWS V14.01,2013-01-15 23:26:00,
2013-01-15 18:27:00,43.5,43.2,30.03,NE,44,0.0,2.0,99,0.13,,RA,1.90,VWS V14.01,2013-01-15 23:27:00,
2013-01-15 18:28:00,43.5,43.2,30.03,NNE,25,2.0,4.0,99,0.14,,,1.91,VWS V14.01,2013-01-15 23:28:00,
2013-01-15 18:29:00,43.5,43.2,30.02,NNE,25,0.0,4.0,99,0.14,,,1.91,VWS V14.01,2013-01-15 23:29:00,
2013-01-15 18:30:00,43.5,43.2,30.02,NNE,25,0.0,1.0,99,0.13,,,1.91,VWS V14.01,2013-01-15 23:30:00,
2013-01-15 18:31:00,43.5,43.2,30.02,NNE,25,0.0,0.0,99,0.13,,,1.91,VWS V14.01,2013-01-15 23:31:00,
2013-01-15 18:32:00,43.5,43.2,30.02,NNE,25,2.0,2.0,99,0.13,,RA,1.91,VWS V14.01,2013-01-15 23:32:00,
2013-01-15 18:33:00,43.5,43.2,30.02,NNE,25,2.0,3.0,99,0.13,,,1.91,VWS V14.01,2013-01-15 23:33:00,
2013-01-15 18:34:00,43.5,43.2,30.02,NNE,25,1.0,3.0,99,0.13,,,1.91,VWS V14.01,2013-01-15 23:34:00,
2013-01-15 18:35:00,43.5,43.2,30.02,NNE,25,1.0,2.0,99,0.13,,,1.91,VWS V14.01,2013-01-15 23:35:00,
2013-01-15 18:36:00,43.5,43.2,30.02,NNE,25,1.0,2.0,99,0.12,,,1.91,VWS V14.01,2013-01-15 23:36:00,
2013-01-15 18:37:00,43.5,43.2,30.02,NNE,25,0.0,1.0,99,0.12,,RA,1.91,VWS V14.01,2013-01-15 23:37:00,
2013-01-15 18:38:00,43.5,43.2,30.03,NW,323,2.0,4.0,99,0.12,,,1.91,VWS V14.01,2013-01-15 23:38:00,
2013-01-15 18:39:00,43.5,43.2,30.03,NW,323,0.0,3.0,99,0.12,,,1.91,VWS V14.01,2013-01-15 23:39:00,
2013-01-15 18:40:00,43.5,43.2,30.03,NW,323,0.0,2.0,99,0.12,,,1.91,VWS V14.01,2013-01-15 23:40:00,
2013-01-15 18:41:00,43.5,43.2,30.03,NW,323,1.0,1.0,99,0.12,,,1.91,VWS V14.01,2013-01-15 23:41:00,
2013-01-15 18:42:00,43.6,43.3,30.03,NW,323,0.0,2.0,99,0.13,,-RA,1.92,VWS V14.01,2013-01-15 23:42:00,
2013-01-15 18:43:00,43.6,43.3,30.03,NW,323,0.0,1.0,99,0.12,,,1.92,VWS V14.01,2013-01-15 23:43:00,
2013-01-15 18:44:00,43.6,43.3,30.03,NW,323,1.0,1.0,99,0.12,,,1.92,VWS V14.01,2013-01-15 23:44:00,
2013-01-15 18:45:00,43.6,43.3,30.03,NW,323,0.0,4.0,99,0.11,,,1.92,VWS V14.01,2013-01-15 23:45:00,
2013-01-15 18:46:00,43.6,43.3,30.03,NW,323,0.0,1.0,99,0.11,,,1.92,VWS V14.01,2013-01-15 23:46:00,
2013-01-15 18:47:00,43.6,43.3,30.03,North,355,4.0,5.0,99,0.11,,-RA,1.92,VWS V14.01,2013-01-15 23:47:00,
2013-01-15 18:48:00,43.6,43.3,30.03,North,355,2.0,4.0,99,0.11,,,1.92,VWS V14.01,2013-01-15 23:48:00,
2013-01-15 18:49:00,43.5,43.2,30.03,North,355,1.0,3.0,99,0.10,,,1.92,VWS V14.01,2013-01-15 23:49:00,
2013-01-15 18:50:00,43.5,43.2,30.03,North,355,1.0,1.0,99,0.09,,,1.92,VWS V14.01,2013-01-15 23:50:00,
2013-01-15 18:51:00,43.5,43.2,30.03,NNW,331,4.0,5.0,99,0.10,,,1.93,VWS V14.01,2013-01-15 23:51:00,
2013-01-15 18:52:00,43.5,43.2,30.03,NNW,327,4.0,6.0,99,0.10,,-RA,1.93,VWS V14.01,2013-01-15 23:52:00,
2013-01-15 18:53:00,43.5,43.2,30.03,NNW,327,1.0,4.0,99,0.10,,,1.93,VWS V14.01,2013-01-15 23:53:00,
2013-01-15 18:54:00,43.5,43.2,30.03,NNW,327,0.0,2.0,99,0.09,,,1.93,VWS V14.01,2013-01-15 23:54:00,
2013-01-15 18:55:00,43.5,43.2,30.03,NNW,327,3.0,3.0,99,0.09,,,1.93,VWS V14.01,2013-01-15 23:55:00,
2013-01-15 18:56:00,43.5,43.2,30.03,NNW,327,0.0,5.0,99,0.08,,,1.93,VWS V14.01,2013-01-15 23:56:00,
2013-01-15 18:57:00,43.5,43.2,30.03,NNW,327,2.0,4.0,99,0.08,,-RA,1.93,VWS V14.01,2013-01-15 23:57:00,
2013-01-15 18:58:00,43.5,43.2,30.03,WNW,282,2.0,5.0,99,0.08,,,1.93,VWS V14.01,2013-01-15 23:58:00,
2013-01-15 18:59:00,43.4,43.1,30.03,NW,319,1.0,5.0,99,0.07,,,1.93,VWS V14.01,2013-01-15 23:59:00,
2013-01-15 19:00:00,43.4,43.1,30.03,NW,311,2.0,2.0,99,0.07,,,1.93,VWS V14.01,2013-01-16 00:00:00,
2013-01-15 19:01:00,43.4,43.1,30.02,NNE,13,7.0,7.0,99,0.06,,,1.93,VWS V14.01,2013-01-16 00:01:00,
2013-01-15 19:02:00,43.3,43.0,30.02,NNW,336,2.0,8.0,99,0.06,,-RA,1.93,VWS V14.01,2013-01-16 00:02:00,
2013-01-15 19:03:00,43.3,43.0,30.02,NNW,340,1.0,2.0,99,0.06,,,1.93,VWS V14.01,2013-01-16 00:03:00,
2013-01-15 19:04:00,43.3,43.0,30.02,NNW,340,0.0,1.0,99,0.06,,,1.93,VWS V14.01,2013-01-16 00:04:00,
2013-01-15 19:05:00,43.3,43.0,30.02,North,11,4.0,6.0,99,0.07,,,1.94,VWS V14.01,2013-01-16 00:05:00,
2013-01-15 19:06:00,43.2,42.9,30.02,NNE,17,3.0,5.0,99,0.07,,,1.94,VWS V14.01,2013-01-16 00:06:00,
2013-01-15 19:07:00,43.1,42.6,30.02,NE,55,4.0,4.0,98,0.07,,-RA,1.94,VWS V14.01,2013-01-16 00:07:00,
2013-01-15 19:08:00,43.1,42.6,30.02,NE,55,1.0,4.0,98,0.06,,,1.94,VWS V14.01,2013-01-16 00:08:00,
2013-01-15 19:09:00,43.1,42.6,30.02,NE,55,1.0,1.0,98,0.06,,,1.94,VWS V14.01,2013-01-16 00:09:00,
2013-01-15 19:10:00,43.1,42.6,30.03,North,5,3.0,6.0,98,0.06,,,1.94,VWS V14.01,2013-01-16 00:10:00,
2013-01-15 19:11:00,43.0,42.5,30.02,NNW,339,4.0,4.0,98,0.06,,,1.94,VWS V14.01,2013-01-16 00:11:00,
2013-01-15 19:12:00,43.0,42.5,30.02,NNW,333,2.0,5.0,98,0.05,,-RA,1.94,VWS V14.01,2013-01-16 00:12:00,
2013-01-15 19:13:00,43.0,42.5,30.02,NW,325,3.0,5.0,98,0.05,,,1.94,VWS V14.01,2013-01-16 00:13:00,
2013-01-15 19:14:00,42.9,42.4,30.02,NW,325,0.0,3.0,98,0.05,,,1.94,VWS V14.01,2013-01-16 00:14:00,
2013-01-15 19:15:00,42.9,42.4,30.02,NW,325,0.0,1.0,98,0.05,,,1.94,VWS V14.01,2013-01-16 00:15:00,
2013-01-15 19:16:00,42.9,42.4,30.02,NW,323,1.0,6.0,98,0.06,,,1.95,VWS V14.01,2013-01-16 00:16:00,
2013-01-15 19:17:00,42.9,42.4,30.02,NNW,331,1.0,5.0,98,0.06,,-RA,1.95,VWS V14.01,2013-01-16 00:17:00,
2013-01-15 19:18:00,42.9,42.4,30.02,NNW,331,0.0,1.0,98,0.06,,,1.95,VWS V14.01,2013-01-16 00:18:00,
2013-01-15 19:19:00,42.9,42.4,30.02,NNW,331,1.0,4.0,98,0.06,,,1.95,VWS V14.01,2013-01-16 00:19:00,
2013-01-15 19:20:00,42.9,42.4,30.02,NNW,331,1.0,4.0,98,0.06,,,1.95,VWS V14.01,2013-01-16 00:20:00,
2013-01-15 19:21:00,42.9,42.4,30.02,NNW,331,2.0,2.0,98,0.05,,,1.95,VWS V14.01,2013-01-16 00:21:00,
2013-01-15 19:22:00,42.9,42.4,30.02,NNW,328,2.0,4.0,98,0.05,,-RA,1.95,VWS V14.01,2013-01-16 00:22:00,
2013-01-15 19:23:00,42.8,42.5,30.03,NNW,328,0.0,2.0,99,0.05,,,1.95,VWS V14.01,2013-01-16 00:23:00,
2013-01-15 19:24:00,42.8,42.3,30.02,NNW,332,1.0,6.0,98,0.05,,,1.95,VWS V14.01,2013-01-16 00:24:00,
2013-01-15 19:25:00,42.8,42.5,30.03,NNW,332,2.0,3.0,99,0.05,,,1.95,VWS V14.01,2013-01-16 00:25:00,
2013-01-15 19:26:00,42.7,42.4,30.03,NNW,330,1.0,5.0,99,0.05,,,1.95,VWS V14.01,2013-01-16 00:26:00,
2013-01-15 19:27:00,42.7,42.4,30.03,NW,314,0.0,4.0,99,0.05,,-RA,1.95,VWS V14.01,2013-01-16 00:27:00,
2013-01-15 19:28:00,42.7,42.4,30.03,NW,312,4.0,5.0,99,0.06,,,1.96,VWS V14.01,2013-01-16 00:28:00,
2013-01-15 19:29:00,42.7,42.4,30.03,NW,307,2.0,5.0,99,0.05,,,1.96,VWS V14.01,2013-01-16 00:29:00,
2013-01-15 19:31:00,42.7,42.4,30.03,WNW,299,4.0,5.0,99,0.06,,,1.97,VWS V14.01,2013-01-16 00:31:00,
2013-01-15 19:32:00,42.7,42.4,30.03,WNW,300,0.0,5.0,99,0.06,,-RA,1.97,VWS V14.01,2013-01-16 00:32:00,
2013-01-15 19:33:00,42.7,42.4,30.03,North,355,0.0,4.0,99,0.06,,,1.97,VWS V14.01,2013-01-16 00:33:00,
2013-01-15 19:34:00,42.6,42.3,30.03,WNW,290,1.0,3.0,99,0.06,,,1.97,VWS V14.01,2013-01-16 00:34:00,
2013-01-15 19:35:00,42.6,42.3,30.03,WNW,290,0.0,1.0,99,0.06,,,1.97,VWS V14.01,2013-01-16 00:35:00,
2013-01-15 19:36:00,42.6,42.3,30.03,North,349,2.0,4.0,99,0.07,,,1.98,VWS V14.01,2013-01-16 00:36:00,
2013-01-15 19:37:00,42.5,42.2,30.03,North,350,3.0,5.0,99,0.07,,-RA,1.98,VWS V14.01,2013-01-16 00:37:00,
2013-01-15 19:38:00,42.5,42.0,30.02,NNW,347,2.0,6.0,98,0.08,,,1.99,VWS V14.01,2013-01-16 00:38:00,
2013-01-15 19:40:00,42.4,41.9,30.03,NNW,333,2.0,5.0,98,0.08,,,1.99,VWS V14.01,2013-01-16 00:40:00,
2013-01-15 19:41:00,42.4,41.9,30.03,NNW,336,2.0,4.0,98,0.08,,,1.99,VWS V14.01,2013-01-16 00:41:00,
2013-01-15 19:42:00,42.4,41.9,30.02,NNW,336,1.0,4.0,98,0.08,,-RA,1.99,VWS V14.01,2013-01-16 00:42:00,
2013-01-15 19:43:00,42.4,41.9,30.02,NNW,336,0.0,1.0,98,0.07,,,1.99,VWS V14.01,2013-01-16 00:43:00,
2013-01-15 19:44:00,42.3,41.8,30.03,NNW,336,0.0,1.0,98,0.08,,,2.00,VWS V14.01,2013-01-16 00:44:00,
2013-01-15 19:45:00,42.3,41.8,30.02,NNW,344,5.0,5.0,98,0.08,,,2.00,VWS V14.01,2013-01-16 00:45:00,
2013-01-15 19:46:00,42.3,41.8,30.02,NNW,345,4.0,6.0,98,0.08,,,2.00,VWS V14.01,2013-01-16 00:46:00,
2013-01-15 19:47:00,42.3,41.8,30.02,NNW,345,1.0,4.0,98,0.09,,-RA,2.01,VWS V14.01,2013-01-16 00:47:00,
2013-01-15 19:48:00,42.3,41.8,30.03,NNW,331,2.0,4.0,98,0.09,,,2.01,VWS V14.01,2013-01-16 00:48:00,
2013-01-15 19:49:00,42.2,41.9,30.03,North,355,6.0,7.0,99,0.09,,,2.01,VWS V14.01,2013-01-16 00:49:00,
2013-01-15 19:50:00,42.2,41.9,30.02,North,360,2.0,7.0,99,0.09,,,2.01,VWS V14.01,2013-01-16 00:50:00,
2013-01-15 19:51:00,42.2,41.9,30.02,North,5,1.0,4.0,99,0.09,,,2.01,VWS V14.01,2013-01-16 00:51:00,
2013-01-15 19:52:00,42.2,41.9,30.02,North,5,0.0,1.0,99,0.09,,-RA,2.02,VWS V14.01,2013-01-16 00:52:00,
2013-01-15 19:53:00,42.1,41.8,30.03,North,5,0.0,0.0,99,0.09,,,2.02,VWS V14.01,2013-01-16 00:53:00,
2013-01-15 19:54:00,42.1,41.8,30.02,North,5,0.0,0.0,99,0.09,,,2.02,VWS V14.01,2013-01-16 00:54:00,
2013-01-15 19:55:00,42.1,41.8,30.02,North,5,0.0,1.0,99,0.09,,,2.02,VWS V14.01,2013-01-16 00:55:00,
2013-01-15 19:56:00,42.1,41.8,30.02,North,5,1.0,2.0,99,0.10,,,2.03,VWS V14.01,2013-01-16 00:56:00,
2013-01-15 19:57:00,42.1,41.8,30.02,North,5,2.0,4.0,99,0.10,,RA,2.03,VWS V14.01,2013-01-16 00:57:00,
2013-01-15 19:58:00,42.1,41.8,30.02,North,5,2.0,5.0,99,0.10,,,2.03,VWS V14.01,2013-01-16 00:58:00,
2013-01-15 19:59:00,42.0,41.7,30.02,North,5,2.0,4.0,99,0.10,,,2.03,VWS V14.01,2013-01-16 00:59:00,
2013-01-15 20:00:00,42.0,41.7,30.02,North,5,0.0,2.0,99,0.10,,,2.03,VWS V14.01,2013-01-16 01:00:00,
2013-01-15 20:01:00,42.0,41.7,30.03,NNW,342,1.0,5.0,99,0.10,,,2.03,VWS V14.01,2013-01-16 01:01:00,
2013-01-15 20:02:00,42.0,41.7,30.03,NNW,342,1.0,1.0,99,0.11,,RA,2.04,VWS V14.01,2013-01-16 01:02:00,
2013-01-15 20:03:00,42.0,41.7,30.02,NNW,342,0.0,2.0,99,0.11,,,2.04,VWS V14.01,2013-01-16 01:03:00,
2013-01-15 20:04:00,42.0,41.7,30.03,NNW,342,1.0,1.0,99,0.11,,,2.04,VWS V14.01,2013-01-16 01:04:00,
2013-01-15 20:05:00,42.0,41.7,30.03,NNW,342,1.0,2.0,99,0.11,,,2.04,VWS V14.01,2013-01-16 01:05:00,
2013-01-15 20:06:00,42.0,41.7,30.03,NNW,342,0.0,2.0,99,0.10,,,2.04,VWS V14.01,2013-01-16 01:06:00,
2013-01-15 20:07:00,42.0,41.7,30.03,NNW,342,2.0,2.0,99,0.11,,-RA,2.05,VWS V14.01,2013-01-16 01:07:00,
2013-01-15 20:08:00,42.0,41.7,30.03,NNW,342,0.0,2.0,99,0.11,,,2.05,VWS V14.01,2013-01-16 01:08:00,
2013-01-15 20:09:00,42.0,41.7,30.02,NNW,342,0.0,1.0,99,0.11,,,2.05,VWS V14.01,2013-01-16 01:09:00,
2013-01-15 20:10:00,42.0,41.7,30.02,NNW,342,1.0,1.0,99,0.12,,,2.06,VWS V14.01,2013-01-16 01:10:00,
2013-01-15 20:11:00,42.0,41.7,30.03,NNW,342,1.0,3.0,99,0.12,,,2.06,VWS V14.01,2013-01-16 01:11:00,
2013-01-15 20:12:00,42.0,41.7,30.03,NNW,342,2.0,2.0,99,0.12,,-RA,2.06,VWS V14.01,2013-01-16 01:12:00,
2013-01-15 20:13:00,41.9,41.6,30.03,NNW,342,0.0,2.0,99,0.12,,,2.06,VWS V14.01,2013-01-16 01:13:00,
2013-01-15 20:14:00,42.0,41.7,30.03,NNW,342,0.0,0.0,99,0.12,,,2.06,VWS V14.01,2013-01-16 01:14:00,
2013-01-15 20:15:00,42.0,41.7,30.03,NNW,342,0.0,0.0,99,0.13,,,2.07,VWS V14.01,2013-01-16 01:15:00,
2013-01-15 20:16:00,41.9,41.6,30.03,NNW,342,0.0,0.0,99,0.13,,,2.07,VWS V14.01,2013-01-16 01:16:00,
2013-01-15 20:17:00,41.9,41.4,30.03,NNW,342,1.0,2.0,98,0.12,,-RA,2.07,VWS V14.01,2013-01-16 01:17:00,
2013-01-15 20:18:00,41.9,41.6,30.02,NNW,342,0.0,3.0,99,0.12,,,2.07,VWS V14.01,2013-01-16 01:18:00,
2013-01-15 20:19:00,41.9,41.4,30.03,NNW,342,0.0,1.0,98,0.12,,,2.07,VWS V14.01,2013-01-16 01:19:00,
2013-01-15 20:20:00,41.9,41.6,30.03,NNW,342,0.0,1.0,99,0.12,,,2.07,VWS V14.01,2013-01-16 01:20:00,
2013-01-15 20:21:00,41.9,41.4,30.03,NNW,342,0.0,0.0,98,0.12,,,2.07,VWS V14.01,2013-01-16 01:21:00,
2013-01-15 20:22:00,41.9,41.4,30.03,NNW,342,0.0,0.0,98,0.13,,-RA,2.08,VWS V14.01,2013-01-16 01:22:00,
2013-01-15 20:23:00,41.9,41.4,30.03,NNW,342,1.0,2.0,98,0.13,,,2.08,VWS V14.01,2013-01-16 01:23:00,
2013-01-15 20:25:00,41.9,41.6,30.03,NNW,342,2.0,2.0,99,0.13,,,2.08,VWS V14.01,2013-01-16 01:25:00,
2013-01-15 20:26:00,41.9,41.4,30.03,NNW,342,0.0,2.0,98,0.14,,,2.09,VWS V14.01,2013-01-16 01:26:00,
2013-01-15 20:27:00,41.9,41.4,30.03,NNW,342,0.0,2.0,98,0.14,,-RA,2.09,VWS V14.01,2013-01-16 01:27:00,
2013-01-15 20:28:00,41.9,41.6,30.03,NNW,342,4.0,5.0,99,0.14,,,2.09,VWS V14.01,2013-01-16 01:28:00,
2013-01-15 20:29:00,41.8,41.5,30.03,NNW,342,2.0,4.0,99,0.13,,,2.09,VWS V14.01,2013-01-16 01:29:00,
2013-01-15 20:30:00,41.8,41.3,30.03,NNW,342,0.0,2.0,98,0.13,,,2.09,VWS V14.01,2013-01-16 01:30:00,
2013-01-15 20:31:00,41.9,41.6,30.03,NNW,342,0.0,1.0,99,0.13,,,2.09,VWS V14.01,2013-01-16 01:31:00,
2013-01-15 20:32:00,41.9,41.6,30.03,NNW,342,0.0,0.0,99,0.12,,-RA,2.09,VWS V14.01,2013-01-16 01:32:00,
2013-01-15 20:33:00,41.9,41.6,30.03,NNW,342,0.0,0.0,99,0.13,,,2.10,VWS V14.01,2013-01-16 01:33:00,
2013-01-15 20:34:00,41.8,41.5,30.03,NNW,342,0.0,2.0,99,0.13,,,2.10,VWS V14.01,2013-01-16 01:34:00,
2013-01-15 20:35:00,41.9,41.6,30.03,NNW,342,0.0,0.0,99,0.14,,,2.11,VWS V14.01,2013-01-16 01:35:00,
2013-01-15 20:36:00,41.9,41.6,30.04,NNW,342,0.0,0.0,99,0.14,,,2.11,VWS V14.01,2013-01-16 01:36:00,
2013-01-15 20:37:00,41.9,41.6,30.03,NNW,342,2.0,2.0,99,0.13,,-RA,2.11,VWS V14.01,2013-01-16 01:37:00,
2013-01-15 20:38:00,41.9,41.6,30.03,NNW,342,2.0,2.0,99,0.13,,,2.11,VWS V14.01,2013-01-16 01:38:00,
2013-01-15 20:40:00,41.8,41.5,30.03,NNW,342,0.0,0.0,99,0.12,,,2.11,VWS V14.01,2013-01-16 01:40:00,
2013-01-15 20:41:00,41.8,41.5,30.03,NNW,342,0.0,0.0,99,0.12,,,2.11,VWS V14.01,2013-01-16 01:41:00,
2013-01-15 20:42:00,41.8,41.5,30.03,NNW,342,0.0,0.0,99,0.12,,-RA,2.11,VWS V14.01,2013-01-16 01:42:00,
2013-01-15 20:43:00,41.8,41.5,30.03,NNW,342,0.0,0.0,99,0.12,,,2.11,VWS V14.01,2013-01-16 01:43:00,
2013-01-15 20:44:00,41.8,41.5,30.03,NNW,342,0.0,0.0,99,0.12,,,2.11,VWS V14.01,2013-01-16 01:44:00,
2013-01-15 20:45:00,41.8,41.5,30.03,NNW,342,1.0,2.0,99,0.11,,,2.11,VWS V14.01,2013-01-16 01:45:00,
2013-01-15 20:46:00,41.8,41.5,30.02,NNW,342,0.0,1.0,99,0.11,,,2.11,VWS V14.01,2013-01-16 01:46:00,
2013-01-15 20:47:00,41.8,41.5,30.03,NNW,342,0.0,0.0,99,0.10,,-RA,2.11,VWS V14.01,2013-01-16 01:47:00,
2013-01-15 20:48:00,41.8,41.5,30.03,NNW,342,0.0,1.0,99,0.11,,,2.12,VWS V14.01,2013-01-16 01:48:00,
2013-01-15 20:49:00,41.8,41.5,30.03,NNW,342,0.0,1.0,99,0.11,,,2.12,VWS V14.01,2013-01-16 01:49:00,
2013-01-15 20:50:00,41.8,41.5,30.03,NNW,342,0.0,1.0,99,0.11,,,2.12,VWS V14.01,2013-01-16 01:50:00,
2013-01-15 20:51:00,41.8,41.5,30.02,NNW,342,0.0,0.0,99,0.11,,,2.12,VWS V14.01,2013-01-16 01:51:00,
2013-01-15 20:52:00,41.8,41.5,30.02,NNW,342,0.0,0.0,99,0.11,,-RA,2.12,VWS V14.01,2013-01-16 01:52:00,
2013-01-15 20:53:00,41.8,41.5,30.02,NNW,342,0.0,1.0,99,0.10,,,2.12,VWS V14.01,2013-01-16 01:53:00,
2013-01-15 20:54:00,41.8,41.5,30.02,NNW,342,0.0,2.0,99,0.10,,,2.12,VWS V14.01,2013-01-16 01:54:00,
2013-01-15 20:55:00,41.8,41.5,30.02,NNW,342,0.0,1.0,99,0.10,,,2.12,VWS V14.01,2013-01-16 01:55:00,
2013-01-15 20:57:00,41.8,41.5,30.02,NNW,346,3.0,3.0,99,0.10,,RA,2.13,VWS V14.01,2013-01-16 01:57:00,
2013-01-15 20:58:00,41.8,41.5,30.02,NNW,346,0.0,4.0,99,0.10,,,2.13,VWS V14.01,2013-01-16 01:58:00,
2013-01-15 20:59:00,41.8,41.5,30.02,NNW,346,0.0,1.0,99,0.10,,,2.13,VWS V14.01,2013-01-16 01:59:00,
2013-01-15 21:00:00,41.8,41.5,30.02,NNW,346,1.0,3.0,99,0.10,,,2.13,VWS V14.01,2013-01-16 02:00:00,
2013-01-15 21:01:00,41.9,41.6,30.02,NNW,346,0.0,2.0,99,0.10,,,2.13,VWS V14.01,2013-01-16 02:01:00,
2013-01-15 21:02:00,41.8,41.5,30.02,NNW,346,0.0,0.0,99,0.10,,RA,2.13,VWS V14.01,2013-01-16 02:02:00,
2013-01-15 21:03:00,41.9,41.6,30.02,NNW,346,2.0,2.0,99,0.09,,,2.13,VWS V14.01,2013-01-16 02:03:00,
2013-01-15 21:04:00,41.9,41.6,30.02,NNW,346,1.0,2.0,99,0.09,,,2.13,VWS V14.01,2013-01-16 02:04:00,
2013-01-15 21:06:00,41.9,41.6,30.02,NNW,346,0.0,0.0,99,0.09,,,2.13,VWS V14.01,2013-01-16 02:06:00,
2013-01-15 21:07:00,41.9,41.6,30.02,NNW,346,0.0,0.0,99,0.08,,RA,2.13,VWS V14.01,2013-01-16 02:07:00,
2013-01-15 21:11:00,41.9,41.6,30.02,NNW,346,0.0,0.0,99,0.07,,,2.13,VWS V14.01,2013-01-16 02:11:00,
2013-01-15 21:12:00,41.9,41.6,30.02,NNW,346,0.0,0.0,99,0.07,,RA,2.13,VWS V14.01,2013-01-16 02:12:00,
2013-01-15 21:13:00,41.9,41.6,30.02,NNW,346,1.0,2.0,99,0.07,,,2.13,VWS V14.01,2013-01-16 02:13:00,
2013-01-15 21:15:00,41.9,41.6,30.02,NNW,346,0.0,0.0,99,0.08,,,2.14,VWS V14.01,2013-01-16 02:15:00,
2013-01-15 21:16:00,41.9,41.6,30.02,NNW,346,0.0,1.0,99,0.07,,,2.14,VWS V14.01,2013-01-16 02:16:00,
2013-01-15 21:17:00,41.9,41.6,30.02,NNW,346,0.0,1.0,99,0.08,,RA,2.15,VWS V14.01,2013-01-16 02:17:00,
2013-01-15 21:21:00,41.9,41.6,30.02,NNW,346,0.0,1.0,99,0.08,,,2.15,VWS V14.01,2013-01-16 02:21:00,
2013-01-15 21:22:00,41.9,41.6,30.02,NNW,346,2.0,2.0,99,0.08,,-RA,2.15,VWS V14.01,2013-01-16 02:22:00,
2013-01-15 21:23:00,41.9,41.6,30.02,NNW,346,0.0,2.0,99,0.07,,,2.15,VWS V14.01,2013-01-16 02:23:00,
2013-01-15 21:24:00,41.9,41.6,30.02,NNW,346,0.0,1.0,99,0.07,,,2.15,VWS V14.01,2013-01-16 02:24:00,
2013-01-15 21:25:00,41.9,41.6,30.02,NNW,346,1.0,2.0,99,0.08,,,2.16,VWS V14.01,2013-01-16 02:25:00,
2013-01-15 21:26:00,41.9,41.6,30.02,NNW,346,0.0,2.0,99,0.08,,,2.16,VWS V14.01,2013-01-16 02:26:00,
2013-01-15 21:27:00,41.9,41.6,30.02,NNW,346,0.0,0.0,99,0.07,,-RA,2.16,VWS V14.01,2013-01-16 02:27:00,
2013-01-15 21:28:00,41.9,41.6,30.02,NNW,346,0.0,1.0,99,0.07,,,2.16,VWS V14.01,2013-01-16 02:28:00,
2013-01-15 21:29:00,41.9,41.6,30.02,NNW,346,0.0,1.0,99,0.07,,,2.16,VWS V14.01,2013-01-16 02:29:00,
2013-01-15 21:30:00,41.9,41.6,30.02,NNW,346,0.0,2.0,99,0.07,,,2.16,VWS V14.01,2013-01-16 02:30:00,
2013-01-15 21:31:00,41.9,41.6,30.02,NNW,346,0.0,1.0,99,0.07,,,2.16,VWS V14.01,2013-01-16 02:31:00,
2013-01-15 21:32:00,41.9,41.6,30.02,NNW,346,0.0,0.0,99,0.07,,-RA,2.16,VWS V14.01,2013-01-16 02:32:00,
2013-01-15 21:33:00,41.9,41.6,30.02,NNW,346,0.0,0.0,99,0.07,,,2.16,VWS V14.01,2013-01-16 02:33:00,
2013-01-15 21:34:00,41.9,41.6,30.02,NNW,346,2.0,2.0,99,0.06,,,2.16,VWS V14.01,2013-01-16 02:34:00,
2013-01-15 21:35:00,41.9,41.6,30.02,NNW,346,1.0,2.0,99,0.06,,,2.16,VWS V14.01,2013-01-16 02:35:00,
2013-01-15 21:36:00,41.9,41.6,30.02,NNW,346,1.0,4.0,99,0.05,,,2.16,VWS V14.01,2013-01-16 02:36:00,
2013-01-15 21:37:00,41.9,41.6,30.02,NNW,346,0.0,1.0,99,0.05,,-RA,2.16,VWS V14.01,2013-01-16 02:37:00,
2013-01-15 21:38:00,41.9,41.6,30.02,NNW,346,1.0,1.0,99,0.05,,,2.16,VWS V14.01,2013-01-16 02:38:00,
2013-01-15 21:39:00,41.9,41.6,30.02,NNW,346,0.0,1.0,99,0.05,,,2.16,VWS V14.01,2013-01-16 02:39:00,
2013-01-15 21:40:00,41.9,41.6,30.02,NNW,346,1.0,2.0,99,0.05,,,2.16,VWS V14.01,2013-01-16 02:40:00,
2013-01-15 21:41:00,41.9,41.6,30.02,NNW,346,0.0,1.0,99,0.05,,,2.16,VWS V14.01,2013-01-16 02:41:00,
2013-01-15 21:42:00,41.9,41.6,30.02,NNW,346,0.0,0.0,99,0.05,,-RA,2.16,VWS V14.01,2013-01-16 02:42:00,
2013-01-15 21:43:00,41.9,41.6,30.02,NNW,346,0.0,1.0,99,0.05,,,2.16,VWS V14.01,2013-01-16 02:43:00,
2013-01-15 21:44:00,41.9,41.6,30.02,NNW,346,0.0,0.0,99,0.05,,,2.16,VWS V14.01,2013-01-16 02:44:00,
2013-01-15 21:45:00,41.9,41.6,30.02,NNW,346,1.0,6.0,99,0.05,,,2.16,VWS V14.01,2013-01-16 02:45:00,
2013-01-15 21:46:00,42.0,41.7,30.02,NNW,346,0.0,2.0,99,0.05,,,2.16,VWS V14.01,2013-01-16 02:46:00,
2013-01-15 21:47:00,41.9,41.6,30.02,NNW,346,0.0,0.0,99,0.05,,-RA,2.16,VWS V14.01,2013-01-16 02:47:00,
2013-01-15 21:48:00,42.0,41.7,30.02,NNW,346,0.0,0.0,99,0.05,,,2.16,VWS V14.01,2013-01-16 02:48:00,
2013-01-15 21:49:00,42.0,41.7,30.02,NNW,346,1.0,2.0,99,0.04,,,2.16,VWS V14.01,2013-01-16 02:49:00,
2013-01-15 21:50:00,42.0,41.7,30.02,NNW,346,2.0,2.0,99,0.04,,,2.16,VWS V14.01,2013-01-16 02:50:00,
2013-01-15 21:51:00,42.0,41.7,30.02,NNW,346,1.0,2.0,99,0.04,,,2.16,VWS V14.01,2013-01-16 02:51:00,
2013-01-15 21:52:00,42.0,41.7,30.02,NNW,346,2.0,2.0,99,0.04,,-RA,2.16,VWS V14.01,2013-01-16 02:52:00,
2013-01-15 21:53:00,42.0,41.7,30.03,NNW,346,0.0,2.0,99,0.04,,,2.16,VWS V14.01,2013-01-16 02:53:00,
2013-01-15 21:54:00,42.0,41.7,30.03,NNW,346,0.0,0.0,99,0.04,,,2.16,VWS V14.01,2013-01-16 02:54:00,
2013-01-15 21:55:00,42.0,41.7,30.02,NNW,346,2.0,2.0,99,0.04,,,2.16,VWS V14.01,2013-01-16 02:55:00,
2013-01-15 21:56:00,42.0,41.7,30.03,NNW,346,1.0,2.0,99,0.04,,,2.16,VWS V14.01,2013-01-16 02:56:00,
2013-01-15 21:57:00,42.0,41.7,30.02,NNW,346,1.0,4.0,99,0.03,,-RA,2.16,VWS V14.01,2013-01-16 02:57:00,
2013-01-15 21:58:00,42.0,41.7,30.03,NNW,346,0.0,1.0,99,0.03,,,2.16,VWS V14.01,2013-01-16 02:58:00,
2013-01-15 21:59:00,42.0,41.7,30.03,NNW,346,0.0,2.0,99,0.03,,,2.16,VWS V14.01,2013-01-16 02:59:00,
2013-01-15 22:00:00,42.0,41.7,30.03,NNW,346,0.0,2.0,99,0.03,,,2.16,VWS V14.01,2013-01-16 03:00:00,
2013-01-15 22:01:00,42.0,41.7,30.03,NNW,346,0.0,2.0,99,0.03,,,2.16,VWS V14.01,2013-01-16 03:01:00,
2013-01-15 22:02:00,42.0,41.7,30.03,NNW,346,1.0,1.0,99,0.03,,-RA,2.16,VWS V14.01,2013-01-16 03:02:00,
2013-01-15 22:03:00,42.0,41.7,30.03,NNW,344,5.0,5.0,99,0.03,,,2.16,VWS V14.01,2013-01-16 03:03:00,
2013-01-15 22:04:00,42.0,41.7,30.03,NNW,344,1.0,5.0,99,0.03,,,2.16,VWS V14.01,2013-01-16 03:04:00,
2013-01-15 22:05:00,42.0,41.7,30.03,NNW,338,2.0,5.0,99,0.03,,,2.16,VWS V14.01,2013-01-16 03:05:00,
2013-01-15 22:06:00,42.0,41.7,30.03,NNW,336,4.0,5.0,99,0.03,,,2.16,VWS V14.01,2013-01-16 03:06:00,
2013-01-15 22:07:00,41.9,41.6,30.03,NNW,336,0.0,4.0,99,0.03,,-RA,2.16,VWS V14.01,2013-01-16 03:07:00,
2013-01-15 22:08:00,41.9,41.6,30.03,NNW,336,2.0,2.0,99,0.03,,,2.16,VWS V14.01,2013-01-16 03:08:00,
2013-01-15 22:09:00,41.9,41.6,30.03,NNW,336,0.0,2.0,99,0.03,,,2.16,VWS V14.01,2013-01-16 03:09:00,
2013-01-15 22:10:00,41.9,41.6,30.03,NNW,336,0.0,1.0,99,0.03,,,2.16,VWS V14.01,2013-01-16 03:10:00,
2013-01-15 22:11:00,41.9,41.6,30.03,NNW,336,0.0,0.0,99,0.03,,,2.16,VWS V14.01,2013-01-16 03:11:00,
2013-01-15 22:12:00,41.9,41.6,30.03,NNW,336,0.0,0.0,99,0.03,,-RA,2.16,VWS V14.01,2013-01-16 03:12:00,
2013-01-15 22:13:00,41.9,41.6,30.03,NNW,336,4.0,5.0,99,0.03,,,2.16,VWS V14.01,2013-01-16 03:13:00,
2013-01-15 22:14:00,41.9,41.6,30.03,NNW,336,0.0,5.0,99,0.03,,,2.16,VWS V14.01,2013-01-16 03:14:00,
2013-01-15 22:15:00,41.9,41.6,30.03,NNW,336,0.0,0.0,99,0.02,,,2.16,VWS V14.01,2013-01-16 03:15:00,
2013-01-15 22:16:00,41.9,41.6,30.03,NNW,336,2.0,2.0,99,0.02,,,2.16,VWS V14.01,2013-01-16 03:16:00,
2013-01-15 22:17:00,41.8,41.5,30.03,NNW,336,0.0,2.0,99,0.02,,-RA,2.16,VWS V14.01,2013-01-16 03:17:00,
2013-01-15 22:18:00,41.8,41.5,30.02,NNW,336,1.0,1.0,99,0.01,,,2.16,VWS V14.01,2013-01-16 03:18:00,
2013-01-15 22:19:00,41.8,41.5,30.03,NNW,336,2.0,4.0,99,0.01,,,2.16,VWS V14.01,2013-01-16 03:19:00,
2013-01-15 22:20:00,41.8,41.5,30.03,NNW,336,0.0,2.0,99,0.02,,,2.17,VWS V14.01,2013-01-16 03:20:00,
2013-01-15 22:21:00,41.8,41.5,30.03,NNW,336,0.0,1.0,99,0.02,,,2.17,VWS V14.01,2013-01-16 03:21:00,
2013-01-15 22:22:00,41.8,41.5,30.03,NNW,336,0.0,2.0,99,0.02,,-RA,2.17,VWS V14.01,2013-01-16 03:22:00,
2013-01-15 22:23:00,41.8,41.5,30.03,NNW,336,0.0,1.0,99,0.02,,,2.17,VWS V14.01,2013-01-16 03:23:00,
2013-01-15 22:24:00,41.8,41.5,30.03,NNW,336,2.0,2.0,99,0.02,,,2.17,VWS V14.01,2013-01-16 03:24:00,
2013-01-15 22:25:00,41.8,41.5,30.03,NNW,336,1.0,3.0,99,0.02,,,2.17,VWS V14.01,2013-01-16 03:25:00,
2013-01-15 22:26:00,41.8,41.5,30.03,NNW,336,4.0,4.0,99,0.01,,,2.17,VWS V14.01,2013-01-16 03:26:00,
2013-01-15 22:27:00,41.8,41.5,30.03,NNW,336,2.0,4.0,99,0.01,,-RA,2.17,VWS V14.01,2013-01-16 03:27:00,
2013-01-15 22:28:00,41.7,41.4,30.03,NNW,336,4.0,5.0,99,0.01,,,2.17,VWS V14.01,2013-01-16 03:28:00,
2013-01-15 22:29:00,41.7,41.4,30.03,NNW,336,3.0,5.0,99,0.01,,,2.17,VWS V14.01,2013-01-16 03:29:00,
2013-01-15 22:30:00,41.6,41.3,30.03,NNW,336,2.0,4.0,99,0.01,,,2.17,VWS V14.01,2013-01-16 03:30:00,
2013-01-15 22:31:00,41.6,41.3,30.03,NNW,336,0.0,4.0,99,0.01,,,2.17,VWS V14.01,2013-01-16 03:31:00,
2013-01-15 22:32:00,41.6,41.3,30.02,NNW,336,0.0,0.0,99,0.01,,-RA,2.17,VWS V14.01,2013-01-16 03:32:00,
2013-01-15 22:33:00,41.6,41.3,30.03,NNW,336,0.0,0.0,99,0.01,,,2.17,VWS V14.01,2013-01-16 03:33:00,
2013-01-15 22:34:00,41.6,41.3,30.03,NNW,336,3.0,3.0,99,0.01,,,2.17,VWS V14.01,2013-01-16 03:34:00,
2013-01-15 22:35:00,41.5,41.2,30.03,NNW,336,2.0,3.0,99,0.01,,,2.17,VWS V14.01,2013-01-16 03:35:00,
2013-01-15 22:36:00,41.5,41.2,30.03,NNW,342,4.0,5.0,99,0.01,,,2.17,VWS V14.01,2013-01-16 03:36:00,
2013-01-15 22:37:00,41.5,41.2,30.03,NNW,342,0.0,5.0,99,0.01,,-RA,2.17,VWS V14.01,2013-01-16 03:37:00,
2013-01-15 22:38:00,41.5,41.2,30.03,NNW,342,4.0,4.0,99,0.01,,,2.17,VWS V14.01,2013-01-16 03:38:00,
2013-01-15 22:39:00,41.5,41.0,30.03,NNW,342,4.0,4.0,98,0.01,,,2.17,VWS V14.01,2013-01-16 03:39:00,
2013-01-15 22:40:00,41.4,40.9,30.02,NNW,343,4.0,5.0,98,0.01,,,2.17,VWS V14.01,2013-01-16 03:40:00,
2013-01-15 22:41:00,41.4,40.9,30.02,NNW,343,1.0,4.0,98,0.01,,,2.17,VWS V14.01,2013-01-16 03:41:00,
2013-01-15 22:42:00,41.4,40.9,30.03,NNW,343,0.0,3.0,98,0.01,,-RA,2.17,VWS V14.01,2013-01-16 03:42:00,
2013-01-15 22:43:00,41.4,40.9,30.02,NNW,343,2.0,3.0,98,0.02,,,2.18,VWS V14.01,2013-01-16 03:43:00,
2013-01-15 22:44:00,41.3,40.8,30.02,NNW,343,2.0,2.0,98,0.02,,,2.18,VWS V14.01,2013-01-16 03:44:00,
2013-01-15 22:45:00,41.3,40.8,30.02,NNW,343,0.0,2.0,98,0.02,,,2.18,VWS V14.01,2013-01-16 03:45:00,
2013-01-15 22:46:00,41.3,40.8,30.02,NNW,343,0.0,1.0,98,0.02,,,2.18,VWS V14.01,2013-01-16 03:46:00,
2013-01-15 22:47:00,41.3,40.8,30.02,NNW,343,0.0,0.0,98,0.02,,-RA,2.18,VWS V14.01,2013-01-16 03:47:00,
2013-01-15 22:48:00,41.3,40.8,30.03,NNW,343,0.0,0.0,98,0.02,,,2.18,VWS V14.01,2013-01-16 03:48:00,
2013-01-15 22:49:00,41.3,41.0,30.02,NNW,343,0.0,0.0,99,0.03,,,2.19,VWS V14.01,2013-01-16 03:49:00,
2013-01-15 22:50:00,41.3,41.0,30.02,NNW,343,1.0,1.0,99,0.03,,,2.19,VWS V14.01,2013-01-16 03:50:00,
2013-01-15 22:51:00,41.3,41.0,30.02,NNW,343,1.0,2.0,99,0.03,,,2.19,VWS V14.01,2013-01-16 03:51:00,
2013-01-15 22:52:00,41.3,41.0,30.02,NNW,343,1.0,3.0,99,0.03,,-RA,2.19,VWS V14.01,2013-01-16 03:52:00,
2013-01-15 22:53:00,41.3,41.0,30.02,NNW,343,0.0,1.0,99,0.03,,,2.19,VWS V14.01,2013-01-16 03:53:00,
2013-01-15 22:54:00,41.3,41.0,30.02,NNW,343,0.0,0.0,99,0.03,,,2.19,VWS V14.01,2013-01-16 03:54:00,
2013-01-15 22:55:00,41.3,41.0,30.02,NNW,343,0.0,1.0,99,0.03,,,2.19,VWS V14.01,2013-01-16 03:55:00,
2013-01-15 22:56:00,41.3,41.0,30.02,NNW,343,0.0,0.0,99,0.03,,,2.19,VWS V14.01,2013-01-16 03:56:00,
2013-01-15 22:57:00,41.3,41.0,30.01,NNW,343,0.0,0.0,99,0.03,,-RA,2.19,VWS V14.01,2013-01-16 03:57:00,
2013-01-15 22:58:00,41.3,41.0,30.02,NNW,343,0.0,0.0,99,0.03,,,2.19,VWS V14.01,2013-01-16 03:58:00,
2013-01-15 22:59:00,41.3,41.0,30.02,NNW,343,0.0,1.0,99,0.03,,,2.19,VWS V14.01,2013-01-16 03:59:00,
2013-01-15 23:00:00,41.3,41.0,30.02,NNW,343,0.0,0.0,99,0.03,,,2.19,VWS V14.01,2013-01-16 04:00:00,
2013-01-15 23:01:00,41.3,41.0,30.02,NNW,343,0.0,0.0,99,0.03,,,2.19,VWS V14.01,2013-01-16 04:01:00,
2013-01-15 23:02:00,41.3,41.0,30.02,NNW,343,0.0,0.0,99,0.03,,-RA,2.19,VWS V14.01,2013-01-16 04:02:00,
2013-01-15 23:03:00,41.3,41.0,30.02,NNW,343,0.0,0.0,99,0.03,,,2.19,VWS V14.01,2013-01-16 04:03:00,
2013-01-15 23:04:00,41.3,41.0,30.02,NNW,343,0.0,0.0,99,0.03,,,2.19,VWS V14.01,2013-01-16 04:04:00,
2013-01-15 23:05:00,41.3,41.0,30.02,NNW,343,1.0,2.0,99,0.04,,,2.20,VWS V14.01,2013-01-16 04:05:00,
2013-01-15 23:06:00,41.4,41.1,30.02,NNW,343,1.0,2.0,99,0.04,,,2.20,VWS V14.01,2013-01-16 04:06:00,
2013-01-15 23:07:00,41.4,41.1,30.02,NNW,343,0.0,1.0,99,0.04,,-RA,2.20,VWS V14.01,2013-01-16 04:07:00,
2013-01-15 23:08:00,41.4,41.1,30.02,NNW,343,0.0,0.0,99,0.04,,,2.20,VWS V14.01,2013-01-16 04:08:00,
2013-01-15 23:09:00,41.4,41.1,30.02,NNW,343,1.0,1.0,99,0.04,,,2.20,VWS V14.01,2013-01-16 04:09:00,
2013-01-15 23:10:00,41.4,41.1,30.02,NNW,343,1.0,2.0,99,0.04,,,2.20,VWS V14.01,2013-01-16 04:10:00,
2013-01-15 23:11:00,41.4,41.1,30.01,NNW,343,0.0,2.0,99,0.04,,,2.20,VWS V14.01,2013-01-16 04:11:00,
2013-01-15 23:12:00,41.4,41.1,30.02,NNW,343,0.0,0.0,99,0.04,,-RA,2.20,VWS V14.01,2013-01-16 04:12:00,
2013-01-15 23:13:00,41.4,41.1,30.02,NNW,343,0.0,0.0,99,0.04,,,2.20,VWS V14.01,2013-01-16 04:13:00,
2013-01-15 23:14:00,41.4,41.1,30.02,NNW,343,0.0,0.0,99,0.04,,,2.20,VWS V14.01,2013-01-16 04:14:00,
2013-01-15 23:15:00,41.4,41.1,30.02,NNW,343,0.0,0.0,99,0.04,,,2.20,VWS V14.01,2013-01-16 04:15:00,
2013-01-15 23:16:00,41.4,41.1,30.02,NNW,343,0.0,0.0,99,0.04,,,2.20,VWS V14.01,2013-01-16 04:16:00,
2013-01-15 23:17:00,41.4,41.1,30.02,NNW,343,0.0,0.0,99,0.04,,-RA,2.20,VWS V14.01,2013-01-16 04:17:00,
2013-01-15 23:18:00,41.4,41.1,30.02,NNW,343,1.0,2.0,99,0.04,,,2.20,VWS V14.01,2013-01-16 04:18:00,
2013-01-15 23:19:00,41.4,41.1,30.02,NNW,343,1.0,2.0,99,0.04,,,2.20,VWS V14.01,2013-01-16 04:19:00,
2013-01-15 23:20:00,41.4,41.1,30.02,NNW,343,0.0,1.0,99,0.05,,,2.21,VWS V14.01,2013-01-16 04:20:00,
2013-01-15 23:21:00,41.4,41.1,30.02,NNW,343,1.0,2.0,99,0.04,,,2.21,VWS V14.01,2013-01-16 04:21:00,
2013-01-15 23:22:00,41.4,41.1,30.02,NNW,343,2.0,4.0,99,0.04,,-RA,2.21,VWS V14.01,2013-01-16 04:22:00,
2013-01-15 23:23:00,41.4,41.1,30.01,NNW,343,4.0,4.0,99,0.04,,,2.21,VWS V14.01,2013-01-16 04:23:00,
2013-01-15 23:24:00,41.4,41.1,30.01,NNW,343,0.0,4.0,99,0.04,,,2.21,VWS V14.01,2013-01-16 04:24:00,
2013-01-15 23:25:00,41.4,41.1,30.02,NNW,343,0.0,1.0,99,0.04,,,2.21,VWS V14.01,2013-01-16 04:25:00,
2013-01-15 23:26:00,41.4,41.1,30.02,NNW,343,2.0,2.0,99,0.04,,,2.21,VWS V14.01,2013-01-16 04:26:00,
2013-01-15 23:27:00,41.4,41.1,30.02,NNW,343,4.0,4.0,99,0.04,,-RA,2.21,VWS V14.01,2013-01-16 04:27:00,
2013-01-15 23:28:00,41.4,41.1,30.01,NNW,343,0.0,4.0,99,0.04,,,2.21,VWS V14.01,2013-01-16 04:28:00,
2013-01-15 23:30:00,41.4,41.1,30.01,NNW,343,1.0,2.0,99,0.04,,,2.21,VWS V14.01,2013-01-16 04:30:00,
2013-01-15 23:31:00,41.4,41.1,30.01,NNW,343,1.0,4.0,99,0.04,,,2.21,VWS V14.01,2013-01-16 04:31:00,
2013-01-15 23:32:00,41.4,41.1,30.01,NNW,343,2.0,3.0,99,0.04,,-RA,2.21,VWS V14.01,2013-01-16 04:32:00,
2013-01-15 23:35:00,41.4,41.1,30.01,NNW,343,1.0,3.0,99,0.04,,,2.21,VWS V14.01,2013-01-16 04:35:00,
2013-01-15 23:36:00,41.4,41.1,30.01,NNW,343,0.0,2.0,99,0.04,,,2.21,VWS V14.01,2013-01-16 04:36:00,
2013-01-15 23:37:00,41.4,41.1,30.00,NNW,343,2.0,2.0,99,0.04,,-RA,2.21,VWS V14.01,2013-01-16 04:37:00,
2013-01-15 23:38:00,41.4,41.1,30.00,NNW,343,0.0,2.0,99,0.04,,,2.21,VWS V14.01,2013-01-16 04:38:00,
2013-01-15 23:39:00,41.4,41.1,30.00,NNW,343,0.0,0.0,99,0.04,,,2.21,VWS V14.01,2013-01-16 04:39:00,
2013-01-15 23:40:00,41.4,41.1,30.00,NNW,343,0.0,1.0,99,0.04,,,2.21,VWS V14.01,2013-01-16 04:40:00,
2013-01-15 23:41:00,41.4,41.1,30.01,NNW,343,0.0,2.0,99,0.04,,,2.21,VWS V14.01,2013-01-16 04:41:00,
2013-01-15 23:42:00,41.4,41.1,30.01,NNW,343,0.0,2.0,99,0.04,,-RA,2.21,VWS V14.01,2013-01-16 04:42:00,
2013-01-15 23:43:00,41.4,41.1,30.01,NNW,343,0.0,1.0,99,0.05,,,2.22,VWS V14.01,2013-01-16 04:43:00,
2013-01-15 23:44:00,41.4,41.1,30.01,NNW,343,0.0,1.0,99,0.05,,,2.23,VWS V14.01,2013-01-16 04:44:00,
2013-01-15 23:45:00,41.4,41.1,30.00,NNW,343,1.0,1.0,99,0.06,,,2.24,VWS V14.01,2013-01-16 04:45:00,
2013-01-15 23:46:00,41.4,41.1,30.00,NNW,343,0.0,1.0,99,0.07,,,2.25,VWS V14.01,2013-01-16 04:46:00,
2013-01-15 23:47:00,41.5,41.2,30.00,NNW,343,0.0,0.0,99,0.08,,-RA,2.26,VWS V14.01,2013-01-16 04:47:00,
2013-01-15 23:48:00,41.5,41.2,30.00,NNW,343,1.0,1.0,99,0.09,,,2.27,VWS V14.01,2013-01-16 04:48:00,
2013-01-15 23:49:00,41.4,41.1,30.00,NNW,343,0.0,2.0,99,0.09,,,2.27,VWS V14.01,2013-01-16 04:49:00,
2013-01-15 23:50:00,41.5,41.2,30.00,NNW,343,2.0,2.0,99,0.10,,,2.29,VWS V14.01,2013-01-16 04:50:00,
2013-01-15 23:51:00,41.5,41.2,30.00,NNW,343,0.0,2.0,99,0.10,,,2.29,VWS V14.01,2013-01-16 04:51:00,
2013-01-15 23:52:00,41.4,41.1,30.00,NNW,343,1.0,1.0,99,0.11,,-RA,2.30,VWS V14.01,2013-01-16 04:52:00,
2013-01-15 23:53:00,41.5,41.2,30.00,NNW,343,2.0,4.0,99,0.12,,,2.31,VWS V14.01,2013-01-16 04:53:00,
2013-01-15 23:54:00,41.5,41.2,30.00,NNW,343,1.0,2.0,99,0.12,,,2.31,VWS V14.01,2013-01-16 04:54:00,
2013-01-15 23:55:00,41.5,41.2,29.99,NNW,343,0.0,1.0,99,0.13,,,2.32,VWS V14.01,2013-01-16 04:55:00,
2013-01-15 23:56:00,41.5,41.2,29.99,NNW,343,1.0,1.0,99,0.14,,,2.33,VWS V14.01,2013-01-16 04:56:00,
2013-01-15 23:57:00,41.5,41.2,29.99,NNW,343,1.0,2.0,99,0.14,,-RA,2.33,VWS V14.01,2013-01-16 04:57:00,
2013-01-15 23:58:00,41.5,41.2,29.99,NNW,343,2.0,2.0,99,0.14,,,2.33,VWS V14.01,2013-01-16 04:58:00,
2013-01-15 23:59:00,41.5,41.2,29.99,NNW,343,2.0,2.0,99,0.14,,,2.33,VWS V14.01,2013-01-16 04:59:00,